<?xml version='1.0' encoding='UTF-8'?><gpx version="1.1" creator="JPX - https://github.com/jenetics/jpx" xmlns="http://www.topografix.com/GPX/1/1"><trk><trkseg><trkpt lat="44.19550982227731" lon="8.126626090825374"><ele>698.0</ele><time>2026-04-16T12:40:43Z</time></trkpt><trkpt lat="44.195572596334685" lon="8.126583680478047"><ele>698.0</ele><time>2026-04-16T12:45:53Z</time></trkpt><trkpt lat="44.195498717838795" lon="8.126636628497563"><ele>698.0</ele><time>2026-04-16T12:45:55Z</time></trkpt><trkpt lat="44.19543654447029" lon="8.126716361821513"><ele>698.0</ele><time>2026-04-16T12:45:57Z</time></trkpt><trkpt lat="44.195382133506214" lon="8.126791686839"><ele>698.0</ele><time>2026-04-16T12:45:59Z</time></trkpt><trkpt lat="44.19527932560234" lon="8.126876898891217"><ele>698.0</ele><time>2026-04-16T12:46:01Z</time></trkpt><trkpt lat="44.1952146392" lon="8.126925378881435"><ele>698.0</ele><time>2026-04-16T12:46:02Z</time></trkpt><trkpt lat="44.195144165420864" lon="8.126978820613182"><ele>698.0</ele><time>2026-04-16T12:46:03Z</time></trkpt><trkpt lat="44.19506741045792" lon="8.127027422924444"><ele>698.0</ele><time>2026-04-16T12:46:04Z</time></trkpt><trkpt lat="44.19499480611926" lon="8.127063874444922"><ele>698.0</ele><time>2026-04-16T12:46:05Z</time></trkpt><trkpt lat="44.19491058247088" lon="8.127093722438747"><ele>698.0</ele><time>2026-04-16T12:46:06Z</time></trkpt><trkpt lat="44.194818430822444" lon="8.127119882658524"><ele>698.0</ele><time>2026-04-16T12:46:07Z</time></trkpt><trkpt lat="44.19471518393899" lon="8.12711653753918"><ele>699.2</ele><time>2026-04-16T12:46:08Z</time></trkpt><trkpt lat="44.19460158804698" lon="8.127095604983099"><ele>700.4</ele><time>2026-04-16T12:46:09Z</time></trkpt><trkpt lat="44.19449304785688" lon="8.127064215568993"><ele>701.6</ele><time>2026-04-16T12:46:10Z</time></trkpt><trkpt lat="44.19438771188718" lon="8.12702609328994"><ele>702.8000000000001</ele><time>2026-04-16T12:46:11Z</time></trkpt><trkpt lat="44.19427935065877" lon="8.126979436942976"><ele>704.0</ele><time>2026-04-16T12:46:12Z</time></trkpt><trkpt lat="44.194166792397645" lon="8.12692222886765"><ele>704.0</ele><time>2026-04-16T12:46:13Z</time></trkpt><trkpt lat="44.19405003945819" lon="8.126843442411602"><ele>704.0</ele><time>2026-04-16T12:46:14Z</time></trkpt><trkpt lat="44.19393985812491" lon="8.126772671181257"><ele>704.0</ele><time>2026-04-16T12:46:15Z</time></trkpt><trkpt lat="44.193829925613095" lon="8.126695396625939"><ele>704.0</ele><time>2026-04-16T12:46:16Z</time></trkpt><trkpt lat="44.19372801727633" lon="8.126632686244063"><ele>704.4000000000001</ele><time>2026-04-16T12:46:17Z</time></trkpt><trkpt lat="44.193626384391095" lon="8.126577722731723"><ele>704.8</ele><time>2026-04-16T12:46:18Z</time></trkpt><trkpt lat="44.19351954225706" lon="8.126518334614033"><ele>705.2</ele><time>2026-04-16T12:46:19Z</time></trkpt><trkpt lat="44.193415518232875" lon="8.12646974733601"><ele>705.5999999999999</ele><time>2026-04-16T12:46:20Z</time></trkpt><trkpt lat="44.19331591807305" lon="8.126448819073909"><ele>706.0</ele><time>2026-04-16T12:46:21Z</time></trkpt><trkpt lat="44.19322251628768" lon="8.126472840456733"><ele>705.0</ele><time>2026-04-16T12:46:22Z</time></trkpt><trkpt lat="44.19312360552356" lon="8.12654640147293"><ele>704.0</ele><time>2026-04-16T12:46:23Z</time></trkpt><trkpt lat="44.19302479259933" lon="8.126651860800639"><ele>703.0</ele><time>2026-04-16T12:46:24Z</time></trkpt><trkpt lat="44.19290628650325" lon="8.126754318157522"><ele>702.0</ele><time>2026-04-16T12:46:25Z</time></trkpt><trkpt lat="44.1927753465024" lon="8.126840404703175"><ele>702.0</ele><time>2026-04-16T12:46:26Z</time></trkpt><trkpt lat="44.19264137849753" lon="8.126909319487716"><ele>702.0</ele><time>2026-04-16T12:46:27Z</time></trkpt><trkpt lat="44.1925196342247" lon="8.126971141194101"><ele>702.0</ele><time>2026-04-16T12:46:28Z</time></trkpt><trkpt lat="44.19240387034782" lon="8.127035594739905"><ele>702.0</ele><time>2026-04-16T12:46:29Z</time></trkpt><trkpt lat="44.192288156364526" lon="8.127123828018833"><ele>702.25</ele><time>2026-04-16T12:46:30Z</time></trkpt><trkpt lat="44.19217739238072" lon="8.127229379352112"><ele>702.5</ele><time>2026-04-16T12:46:31Z</time></trkpt><trkpt lat="44.19205894731904" lon="8.12735138312477"><ele>702.75</ele><time>2026-04-16T12:46:32Z</time></trkpt><trkpt lat="44.19194303892594" lon="8.127468935408613"><ele>703.0</ele><time>2026-04-16T12:46:33Z</time></trkpt><trkpt lat="44.191825230542165" lon="8.127589471970657"><ele>703.0</ele><time>2026-04-16T12:46:34Z</time></trkpt><trkpt lat="44.19169985190424" lon="8.127715668026891"><ele>703.0</ele><time>2026-04-16T12:46:35Z</time></trkpt><trkpt lat="44.191575454817844" lon="8.127829457739818"><ele>703.0</ele><time>2026-04-16T12:46:36Z</time></trkpt><trkpt lat="44.1914615364809" lon="8.127918209046138"><ele>703.0</ele><time>2026-04-16T12:46:37Z</time></trkpt><trkpt lat="44.19134906154408" lon="8.127999838558468"><ele>703.0</ele><time>2026-04-16T12:46:38Z</time></trkpt><trkpt lat="44.19123720622075" lon="8.128083288592123"><ele>703.0</ele><time>2026-04-16T12:46:39Z</time></trkpt><trkpt lat="44.191128758178806" lon="8.128170347318587"><ele>703.0</ele><time>2026-04-16T12:46:40Z</time></trkpt><trkpt lat="44.19102076618748" lon="8.128255122543157"><ele>703.0</ele><time>2026-04-16T12:46:41Z</time></trkpt><trkpt lat="44.19091150317546" lon="8.12834270074119"><ele>703.0</ele><time>2026-04-16T12:46:42Z</time></trkpt><trkpt lat="44.19079983910963" lon="8.128424546228285"><ele>703.0</ele><time>2026-04-16T12:46:43Z</time></trkpt><trkpt lat="44.190684971889105" lon="8.128496279726628"><ele>703.0</ele><time>2026-04-16T12:46:44Z</time></trkpt><trkpt lat="44.19056301851064" lon="8.12854778218032"><ele>703.0</ele><time>2026-04-16T12:46:45Z</time></trkpt><trkpt lat="44.190432672856886" lon="8.12858276361111"><ele>702.75</ele><time>2026-04-16T12:46:46Z</time></trkpt><trkpt lat="44.190299124981934" lon="8.128612840324331"><ele>702.5</ele><time>2026-04-16T12:46:47Z</time></trkpt><trkpt lat="44.19016444230918" lon="8.128640584213134"><ele>702.25</ele><time>2026-04-16T12:46:48Z</time></trkpt><trkpt lat="44.19002417503601" lon="8.128667956698767"><ele>702.0</ele><time>2026-04-16T12:46:49Z</time></trkpt><trkpt lat="44.189883009843996" lon="8.128699388543959"><ele>701.75</ele><time>2026-04-16T12:46:50Z</time></trkpt><trkpt lat="44.189737564228835" lon="8.128735950913313"><ele>701.5</ele><time>2026-04-16T12:46:51Z</time></trkpt><trkpt lat="44.189591394421505" lon="8.128773113914779"><ele>701.25</ele><time>2026-04-16T12:46:52Z</time></trkpt><trkpt lat="44.18944604270607" lon="8.128807777312478"><ele>701.0</ele><time>2026-04-16T12:46:53Z</time></trkpt><trkpt lat="44.18930369616059" lon="8.12884152718616"><ele>701.0</ele><time>2026-04-16T12:46:54Z</time></trkpt><trkpt lat="44.18916809637677" lon="8.128871053109119"><ele>701.0</ele><time>2026-04-16T12:46:55Z</time></trkpt><trkpt lat="44.18903830968383" lon="8.128898717286354"><ele>701.0</ele><time>2026-04-16T12:46:56Z</time></trkpt><trkpt lat="44.18891740989167" lon="8.128926888321526"><ele>701.0</ele><time>2026-04-16T12:46:57Z</time></trkpt><trkpt lat="44.188804042914505" lon="8.128953312669584"><ele>701.1999999999999</ele><time>2026-04-16T12:46:58Z</time></trkpt><trkpt lat="44.18869402956969" lon="8.128980452518764"><ele>701.4</ele><time>2026-04-16T12:46:59Z</time></trkpt><trkpt lat="44.18859497073192" lon="8.12900511316733"><ele>701.6</ele><time>2026-04-16T12:47:00Z</time></trkpt><trkpt lat="44.18850031855244" lon="8.129032160292883"><ele>701.8</ele><time>2026-04-16T12:47:01Z</time></trkpt><trkpt lat="44.18841172034386" lon="8.129064609101361"><ele>702.0</ele><time>2026-04-16T12:47:02Z</time></trkpt><trkpt lat="44.1883339822004" lon="8.129099254515312"><ele>701.8333333333334</ele><time>2026-04-16T12:47:03Z</time></trkpt><trkpt lat="44.18826428167439" lon="8.129117127610504"><ele>701.6666666666666</ele><time>2026-04-16T12:47:04Z</time></trkpt><trkpt lat="44.188143997698" lon="8.129055884709269"><ele>701.5</ele><time>2026-04-16T12:47:06Z</time></trkpt><trkpt lat="44.1880925181021" lon="8.128981997437078"><ele>701.3333333333333</ele><time>2026-04-16T12:47:07Z</time></trkpt><trkpt lat="44.18805655977309" lon="8.128896427775896"><ele>701.1666666666666</ele><time>2026-04-16T12:47:08Z</time></trkpt><trkpt lat="44.188025611529525" lon="8.128807732330172"><ele>701.0</ele><time>2026-04-16T12:47:09Z</time></trkpt><trkpt lat="44.187991864848755" lon="8.128720439048491"><ele>701.0</ele><time>2026-04-16T12:47:10Z</time></trkpt><trkpt lat="44.18794604293907" lon="8.12863506378288"><ele>701.0</ele><time>2026-04-16T12:47:11Z</time></trkpt><trkpt lat="44.18788699881184" lon="8.128561305701417"><ele>701.0</ele><time>2026-04-16T12:47:12Z</time></trkpt><trkpt lat="44.18782375975919" lon="8.128488564924305"><ele>701.0</ele><time>2026-04-16T12:47:13Z</time></trkpt><trkpt lat="44.187764999054245" lon="8.128401392360049"><ele>701.0</ele><time>2026-04-16T12:47:14Z</time></trkpt><trkpt lat="44.18771440502941" lon="8.128299103805778"><ele>701.0</ele><time>2026-04-16T12:47:15Z</time></trkpt><trkpt lat="44.18768267011086" lon="8.128194257420894"><ele>700.8333333333333</ele><time>2026-04-16T12:47:16Z</time></trkpt><trkpt lat="44.18765371575696" lon="8.128098062243556"><ele>700.6666666666666</ele><time>2026-04-16T12:47:17Z</time></trkpt><trkpt lat="44.18762159808374" lon="8.128001315027158"><ele>700.5</ele><time>2026-04-16T12:47:18Z</time></trkpt><trkpt lat="44.18758766338793" lon="8.127907555786766"><ele>700.3333333333334</ele><time>2026-04-16T12:47:19Z</time></trkpt><trkpt lat="44.18755407707396" lon="8.127820025416144"><ele>700.1666666666667</ele><time>2026-04-16T12:47:20Z</time></trkpt><trkpt lat="44.18752336016472" lon="8.127730996137679"><ele>700.0</ele><time>2026-04-16T12:47:21Z</time></trkpt><trkpt lat="44.187487474622536" lon="8.127626983144907"><ele>700.0</ele><time>2026-04-16T12:47:22Z</time></trkpt><trkpt lat="44.1874486842451" lon="8.12752301254699"><ele>700.0</ele><time>2026-04-16T12:47:23Z</time></trkpt><trkpt lat="44.18740865610381" lon="8.12742026431997"><ele>700.0</ele><time>2026-04-16T12:47:24Z</time></trkpt><trkpt lat="44.187368677783894" lon="8.127331409308109"><ele>700.0</ele><time>2026-04-16T12:47:25Z</time></trkpt><trkpt lat="44.187328446678514" lon="8.12725688010529"><ele>700.0</ele><time>2026-04-16T12:47:26Z</time></trkpt><trkpt lat="44.187264594859805" lon="8.127142107463685"><ele>700.0</ele><time>2026-04-16T12:47:28Z</time></trkpt><trkpt lat="44.18719431537838" lon="8.127022721795608"><ele>701.6666666666667</ele><time>2026-04-16T12:47:30Z</time></trkpt><trkpt lat="44.18714735235655" lon="8.12695169475821"><ele>703.3333333333334</ele><time>2026-04-16T12:47:31Z</time></trkpt><trkpt lat="44.187096888069526" lon="8.12688369385346"><ele>705.0</ele><time>2026-04-16T12:47:32Z</time></trkpt><trkpt lat="44.187048973685386" lon="8.126815362914916"><ele>706.6666666666666</ele><time>2026-04-16T12:47:33Z</time></trkpt><trkpt lat="44.18699434166211" lon="8.126733093298688"><ele>708.3333333333333</ele><time>2026-04-16T12:47:34Z</time></trkpt><trkpt lat="44.18693821196065" lon="8.126644554883114"><ele>710.0</ele><time>2026-04-16T12:47:35Z</time></trkpt><trkpt lat="44.186885684966754" lon="8.126550254268036"><ele>710.2</ele><time>2026-04-16T12:47:36Z</time></trkpt><trkpt lat="44.18682339221724" lon="8.126446502223695"><ele>710.4</ele><time>2026-04-16T12:47:37Z</time></trkpt><trkpt lat="44.186757823681795" lon="8.126344321364101"><ele>710.5999999999999</ele><time>2026-04-16T12:47:38Z</time></trkpt><trkpt lat="44.186695449920535" lon="8.126225770199353"><ele>710.8</ele><time>2026-04-16T12:47:39Z</time></trkpt><trkpt lat="44.18664808126091" lon="8.126094971268909"><ele>711.0</ele><time>2026-04-16T12:47:40Z</time></trkpt><trkpt lat="44.18660991013814" lon="8.125957729484744"><ele>711.0</ele><time>2026-04-16T12:47:41Z</time></trkpt><trkpt lat="44.18655578634674" lon="8.125828995440088"><ele>711.0</ele><time>2026-04-16T12:47:42Z</time></trkpt><trkpt lat="44.186519914534315" lon="8.125706334150037"><ele>711.0</ele><time>2026-04-16T12:47:43Z</time></trkpt><trkpt lat="44.1864992185457" lon="8.12559043999818"><ele>711.0</ele><time>2026-04-16T12:47:44Z</time></trkpt><trkpt lat="44.18648597089903" lon="8.1254414358812"><ele>711.0</ele><time>2026-04-16T12:47:45Z</time></trkpt><trkpt lat="44.18644590359149" lon="8.125325016569603"><ele>716.25</ele><time>2026-04-16T12:47:46Z</time></trkpt><trkpt lat="44.18639666304172" lon="8.125187634209025"><ele>721.5</ele><time>2026-04-16T12:47:47Z</time></trkpt><trkpt lat="44.18634224015568" lon="8.125050023366375"><ele>726.75</ele><time>2026-04-16T12:47:48Z</time></trkpt><trkpt lat="44.186275176151696" lon="8.124913603544488"><ele>732.0</ele><time>2026-04-16T12:47:49Z</time></trkpt><trkpt lat="44.186209464719695" lon="8.124785127470897"><ele>732.0</ele><time>2026-04-16T12:47:50Z</time></trkpt><trkpt lat="44.18612184446124" lon="8.124645035982876"><ele>732.0</ele><time>2026-04-16T12:47:51Z</time></trkpt><trkpt lat="44.186060804493096" lon="8.124506942653497"><ele>732.0</ele><time>2026-04-16T12:47:52Z</time></trkpt><trkpt lat="44.18602267064011" lon="8.1243637383428"><ele>732.0</ele><time>2026-04-16T12:47:53Z</time></trkpt><trkpt lat="44.185999345314386" lon="8.124221060829296"><ele>732.0</ele><time>2026-04-16T12:47:54Z</time></trkpt><trkpt lat="44.185985543591144" lon="8.12407589734378"><ele>732.0</ele><time>2026-04-16T12:47:55Z</time></trkpt><trkpt lat="44.185960100519985" lon="8.123923347781195"><ele>732.0</ele><time>2026-04-16T12:47:56Z</time></trkpt><trkpt lat="44.18592562832361" lon="8.123782257424118"><ele>732.0</ele><time>2026-04-16T12:47:57Z</time></trkpt><trkpt lat="44.18588395644636" lon="8.123641614983422"><ele>732.0</ele><time>2026-04-16T12:47:58Z</time></trkpt><trkpt lat="44.185839057218004" lon="8.123506824881222"><ele>730.8</ele><time>2026-04-16T12:47:59Z</time></trkpt><trkpt lat="44.185802070253686" lon="8.123374053608805"><ele>729.6</ele><time>2026-04-16T12:48:00Z</time></trkpt><trkpt lat="44.185750944902914" lon="8.123242670314228"><ele>728.4</ele><time>2026-04-16T12:48:01Z</time></trkpt><trkpt lat="44.18572627467804" lon="8.123115983849734"><ele>727.1999999999999</ele><time>2026-04-16T12:48:02Z</time></trkpt><trkpt lat="44.18569250957848" lon="8.123009013396567"><ele>726.0</ele><time>2026-04-16T12:48:03Z</time></trkpt><trkpt lat="44.18568604915395" lon="8.122898468368374"><ele>726.0</ele><time>2026-04-16T12:48:04Z</time></trkpt><trkpt lat="44.18569820609839" lon="8.122785073884115"><ele>726.0</ele><time>2026-04-16T12:48:05Z</time></trkpt><trkpt lat="44.185728098529545" lon="8.122653856599182"><ele>726.0</ele><time>2026-04-16T12:48:06Z</time></trkpt><trkpt lat="44.185754161726024" lon="8.122529600525507"><ele>726.0</ele><time>2026-04-16T12:48:07Z</time></trkpt><trkpt lat="44.1857744005729" lon="8.12240968998539"><ele>726.0</ele><time>2026-04-16T12:48:08Z</time></trkpt><trkpt lat="44.18579649679382" lon="8.122314278195654"><ele>726.0</ele><time>2026-04-16T12:48:09Z</time></trkpt><trkpt lat="44.18580148990046" lon="8.12219785315329"><ele>725.6666666666666</ele><time>2026-04-16T12:48:10Z</time></trkpt><trkpt lat="44.18578804289121" lon="8.122071919562721"><ele>725.3333333333334</ele><time>2026-04-16T12:48:11Z</time></trkpt><trkpt lat="44.18574961123004" lon="8.121969888293453"><ele>725.0</ele><time>2026-04-16T12:48:12Z</time></trkpt><trkpt lat="44.18572460366102" lon="8.121876450795643"><ele>724.6666666666667</ele><time>2026-04-16T12:48:13Z</time></trkpt><trkpt lat="44.18565363221397" lon="8.121792512143031"><ele>724.3333333333334</ele><time>2026-04-16T12:48:14Z</time></trkpt><trkpt lat="44.18557711439249" lon="8.12172670956229"><ele>724.0</ele><time>2026-04-16T12:48:15Z</time></trkpt><trkpt lat="44.18551259624748" lon="8.121675208121943"><ele>724.0</ele><time>2026-04-16T12:48:16Z</time></trkpt><trkpt lat="44.18545310255352" lon="8.121602588363357"><ele>724.0</ele><time>2026-04-16T12:48:17Z</time></trkpt><trkpt lat="44.18540138792102" lon="8.12152937626593"><ele>724.0</ele><time>2026-04-16T12:48:18Z</time></trkpt><trkpt lat="44.18536225574958" lon="8.12141392385778"><ele>724.0</ele><time>2026-04-16T12:48:19Z</time></trkpt><trkpt lat="44.185330493927594" lon="8.121312369032978"><ele>724.0</ele><time>2026-04-16T12:48:20Z</time></trkpt><trkpt lat="44.18527882050102" lon="8.121193038385067"><ele>724.0</ele><time>2026-04-16T12:48:21Z</time></trkpt><trkpt lat="44.18523147706499" lon="8.12111200242442"><ele>724.6</ele><time>2026-04-16T12:48:22Z</time></trkpt><trkpt lat="44.185127637737835" lon="8.12098433984476"><ele>725.2</ele><time>2026-04-16T12:48:24Z</time></trkpt><trkpt lat="44.18504201360669" lon="8.120930464400612"><ele>725.8000000000001</ele><time>2026-04-16T12:48:25Z</time></trkpt><trkpt lat="44.18493551803256" lon="8.120888914891472"><ele>726.4000000000001</ele><time>2026-04-16T12:48:26Z</time></trkpt><trkpt lat="44.18485364004626" lon="8.120838634383816"><ele>727.0</ele><time>2026-04-16T12:48:27Z</time></trkpt><trkpt lat="44.184784554359055" lon="8.120797294352338"><ele>727.0</ele><time>2026-04-16T12:48:28Z</time></trkpt><trkpt lat="44.18469931051797" lon="8.12076532331284"><ele>727.0</ele><time>2026-04-16T12:48:29Z</time></trkpt><trkpt lat="44.18461551004875" lon="8.12074186283952"><ele>727.0</ele><time>2026-04-16T12:48:30Z</time></trkpt><trkpt lat="44.18454064178615" lon="8.12069996333154"><ele>727.0</ele><time>2026-04-16T12:48:31Z</time></trkpt><trkpt lat="44.184458089899906" lon="8.120653903017104"><ele>727.0</ele><time>2026-04-16T12:48:32Z</time></trkpt><trkpt lat="44.184375171622364" lon="8.12061497747266"><ele>727.0</ele><time>2026-04-16T12:48:33Z</time></trkpt><trkpt lat="44.18429611600167" lon="8.120549944821457"><ele>728.1666666666667</ele><time>2026-04-16T12:48:34Z</time></trkpt><trkpt lat="44.184220956974904" lon="8.12050563428796"><ele>729.3333333333334</ele><time>2026-04-16T12:48:35Z</time></trkpt><trkpt lat="44.18413903099158" lon="8.120443388301855"><ele>730.5</ele><time>2026-04-16T12:48:36Z</time></trkpt><trkpt lat="44.18405999572808" lon="8.120380869861547"><ele>731.6666666666666</ele><time>2026-04-16T12:48:37Z</time></trkpt><trkpt lat="44.18398279618654" lon="8.1203221885442"><ele>732.8333333333333</ele><time>2026-04-16T12:48:38Z</time></trkpt><trkpt lat="44.183903503438174" lon="8.120261827449015"><ele>734.0</ele><time>2026-04-16T12:48:39Z</time></trkpt><trkpt lat="44.18382509571383" lon="8.120201944972282"><ele>734.0</ele><time>2026-04-16T12:48:40Z</time></trkpt><trkpt lat="44.18374406787022" lon="8.120140725269685"><ele>734.0</ele><time>2026-04-16T12:48:41Z</time></trkpt><trkpt lat="44.183667537487715" lon="8.120085341745687"><ele>734.0</ele><time>2026-04-16T12:48:42Z</time></trkpt><trkpt lat="44.183590768338505" lon="8.120035362828549"><ele>734.0</ele><time>2026-04-16T12:48:43Z</time></trkpt><trkpt lat="44.18352850347823" lon="8.119994042052218"><ele>734.0</ele><time>2026-04-16T12:48:44Z</time></trkpt><trkpt lat="44.1834462392766" lon="8.11995129240071"><ele>734.0</ele><time>2026-04-16T12:48:45Z</time></trkpt><trkpt lat="44.18337377316318" lon="8.119914170547391"><ele>736.4000000000001</ele><time>2026-04-16T12:48:46Z</time></trkpt><trkpt lat="44.18330562166495" lon="8.119869617994093"><ele>738.8</ele><time>2026-04-16T12:48:47Z</time></trkpt><trkpt lat="44.183235859361176" lon="8.119816045259546"><ele>741.2</ele><time>2026-04-16T12:48:48Z</time></trkpt><trkpt lat="44.18314919051449" lon="8.119771981314296"><ele>743.5999999999999</ele><time>2026-04-16T12:48:49Z</time></trkpt><trkpt lat="44.18305903763564" lon="8.119734398008697"><ele>746.0</ele><time>2026-04-16T12:48:50Z</time></trkpt><trkpt lat="44.18295200947058" lon="8.119682882969517"><ele>746.0</ele><time>2026-04-16T12:48:51Z</time></trkpt><trkpt lat="44.18285670918592" lon="8.11963192675263"><ele>746.0</ele><time>2026-04-16T12:48:52Z</time></trkpt><trkpt lat="44.18276691848737" lon="8.119569694137377"><ele>746.0</ele><time>2026-04-16T12:48:53Z</time></trkpt><trkpt lat="44.18268445097164" lon="8.119503088330127"><ele>746.0</ele><time>2026-04-16T12:48:54Z</time></trkpt><trkpt lat="44.182589590532096" lon="8.119445405729378"><ele>746.0</ele><time>2026-04-16T12:48:55Z</time></trkpt><trkpt lat="44.182497891707136" lon="8.119402853643784"><ele>746.0</ele><time>2026-04-16T12:48:56Z</time></trkpt><trkpt lat="44.182398704351655" lon="8.119371712799055"><ele>746.0</ele><time>2026-04-16T12:48:57Z</time></trkpt><trkpt lat="44.18229567186067" lon="8.119335226233"><ele>746.0</ele><time>2026-04-16T12:48:58Z</time></trkpt><trkpt lat="44.18221120369353" lon="8.119294793309518"><ele>746.0</ele><time>2026-04-16T12:48:59Z</time></trkpt><trkpt lat="44.18213040151283" lon="8.119243480679417"><ele>746.0</ele><time>2026-04-16T12:49:00Z</time></trkpt><trkpt lat="44.1820540073394" lon="8.11915765292102"><ele>743.5999999999999</ele><time>2026-04-16T12:49:01Z</time></trkpt><trkpt lat="44.181971998199174" lon="8.119068116683993"><ele>741.2</ele><time>2026-04-16T12:49:02Z</time></trkpt><trkpt lat="44.18188470905352" lon="8.118997569384167"><ele>738.8</ele><time>2026-04-16T12:49:03Z</time></trkpt><trkpt lat="44.181796326356306" lon="8.118930343769387"><ele>736.4000000000001</ele><time>2026-04-16T12:49:04Z</time></trkpt><trkpt lat="44.181706406004785" lon="8.118864119037097"><ele>734.0</ele><time>2026-04-16T12:49:05Z</time></trkpt><trkpt lat="44.18162746644429" lon="8.11879100795908"><ele>735.8333333333333</ele><time>2026-04-16T12:49:06Z</time></trkpt><trkpt lat="44.18156303817425" lon="8.11873410309328"><ele>737.6666666666666</ele><time>2026-04-16T12:49:07Z</time></trkpt><trkpt lat="44.18148832022423" lon="8.11868248656452"><ele>739.5</ele><time>2026-04-16T12:49:08Z</time></trkpt><trkpt lat="44.181424831897765" lon="8.118602723341821"><ele>741.3333333333334</ele><time>2026-04-16T12:49:09Z</time></trkpt><trkpt lat="44.1813457305573" lon="8.118530905677915"><ele>743.1666666666667</ele><time>2026-04-16T12:49:10Z</time></trkpt><trkpt lat="44.18123937332677" lon="8.11849753946618"><ele>745.0</ele><time>2026-04-16T12:49:11Z</time></trkpt><trkpt lat="44.181139625527756" lon="8.1184672530082"><ele>745.0</ele><time>2026-04-16T12:49:12Z</time></trkpt><trkpt lat="44.181054707448844" lon="8.118416911738663"><ele>745.0</ele><time>2026-04-16T12:49:13Z</time></trkpt><trkpt lat="44.18096163568252" lon="8.118388632207962"><ele>745.0</ele><time>2026-04-16T12:49:14Z</time></trkpt><trkpt lat="44.1808566672072" lon="8.11832253841088"><ele>745.0</ele><time>2026-04-16T12:49:15Z</time></trkpt><trkpt lat="44.18076164878535" lon="8.118253005951866"><ele>745.0</ele><time>2026-04-16T12:49:16Z</time></trkpt><trkpt lat="44.18066758912891" lon="8.118187717852814"><ele>747.6</ele><time>2026-04-16T12:49:17Z</time></trkpt><trkpt lat="44.18057965898926" lon="8.11813137048656"><ele>750.2</ele><time>2026-04-16T12:49:18Z</time></trkpt><trkpt lat="44.18049995721384" lon="8.118079492045936"><ele>752.8</ele><time>2026-04-16T12:49:19Z</time></trkpt><trkpt lat="44.180427733819734" lon="8.118007789145521"><ele>755.4</ele><time>2026-04-16T12:49:20Z</time></trkpt><trkpt lat="44.18033718965027" lon="8.117948465672994"><ele>758.0</ele><time>2026-04-16T12:49:21Z</time></trkpt><trkpt lat="44.18025145234636" lon="8.117904771459068"><ele>758.0</ele><time>2026-04-16T12:49:22Z</time></trkpt><trkpt lat="44.180149740661086" lon="8.117844168230071"><ele>758.0</ele><time>2026-04-16T12:49:23Z</time></trkpt><trkpt lat="44.180058073831155" lon="8.117774275194664"><ele>758.0</ele><time>2026-04-16T12:49:24Z</time></trkpt><trkpt lat="44.1799658495168" lon="8.117707354114474"><ele>758.0</ele><time>2026-04-16T12:49:25Z</time></trkpt><trkpt lat="44.17987634364839" lon="8.117657057971332"><ele>758.0</ele><time>2026-04-16T12:49:26Z</time></trkpt><trkpt lat="44.17978027084173" lon="8.1176122956918"><ele>756.8333333333333</ele><time>2026-04-16T12:49:27Z</time></trkpt><trkpt lat="44.17968795907031" lon="8.117607635543472"><ele>755.6666666666666</ele><time>2026-04-16T12:49:28Z</time></trkpt><trkpt lat="44.17960411167535" lon="8.117627761351692"><ele>754.5</ele><time>2026-04-16T12:49:29Z</time></trkpt><trkpt lat="44.179505142214026" lon="8.11765495490827"><ele>753.3333333333334</ele><time>2026-04-16T12:49:30Z</time></trkpt><trkpt lat="44.17941899918948" lon="8.117657368473855"><ele>752.1666666666667</ele><time>2026-04-16T12:49:31Z</time></trkpt><trkpt lat="44.1793409109381" lon="8.117623663510846"><ele>751.0</ele><time>2026-04-16T12:49:32Z</time></trkpt><trkpt lat="44.17927366222429" lon="8.117565946612132"><ele>751.0</ele><time>2026-04-16T12:49:33Z</time></trkpt><trkpt lat="44.17920915585754" lon="8.117487298690522"><ele>751.0</ele><time>2026-04-16T12:49:34Z</time></trkpt><trkpt lat="44.179136937760944" lon="8.117393856359039"><ele>751.0</ele><time>2026-04-16T12:49:35Z</time></trkpt><trkpt lat="44.17908053929253" lon="8.117276121468333"><ele>751.0</ele><time>2026-04-16T12:49:36Z</time></trkpt><trkpt lat="44.179024013717985" lon="8.117171522196815"><ele>751.0</ele><time>2026-04-16T12:49:37Z</time></trkpt><trkpt lat="44.17896817487056" lon="8.117055902114345"><ele>753.8</ele><time>2026-04-16T12:49:38Z</time></trkpt><trkpt lat="44.17888341465216" lon="8.116953154670963"><ele>756.5999999999999</ele><time>2026-04-16T12:49:39Z</time></trkpt><trkpt lat="44.17879816469727" lon="8.11686521782546"><ele>759.4</ele><time>2026-04-16T12:49:40Z</time></trkpt><trkpt lat="44.178696707405805" lon="8.116815881799852"><ele>762.2</ele><time>2026-04-16T12:49:41Z</time></trkpt><trkpt lat="44.178606019434106" lon="8.116785979313043"><ele>765.0</ele><time>2026-04-16T12:49:42Z</time></trkpt><trkpt lat="44.17852149317845" lon="8.116746906592548"><ele>765.0</ele><time>2026-04-16T12:49:43Z</time></trkpt><trkpt lat="44.17841620039481" lon="8.116702708306269"><ele>765.0</ele><time>2026-04-16T12:49:44Z</time></trkpt><trkpt lat="44.17833299077075" lon="8.116660755530136"><ele>765.0</ele><time>2026-04-16T12:49:45Z</time></trkpt><trkpt lat="44.17824694265796" lon="8.116634384747385"><ele>765.0</ele><time>2026-04-16T12:49:46Z</time></trkpt><trkpt lat="44.17816048373686" lon="8.1166310803592"><ele>765.0</ele><time>2026-04-16T12:49:47Z</time></trkpt><trkpt lat="44.17808171808605" lon="8.116616187688303"><ele>765.0</ele><time>2026-04-16T12:49:48Z</time></trkpt><trkpt lat="44.17798490855945" lon="8.116609706483144"><ele>765.0</ele><time>2026-04-16T12:49:49Z</time></trkpt><trkpt lat="44.17786521639986" lon="8.116620653446914"><ele>765.0</ele><time>2026-04-16T12:49:50Z</time></trkpt><trkpt lat="44.17774978271359" lon="8.116613153216047"><ele>765.0</ele><time>2026-04-16T12:49:51Z</time></trkpt><trkpt lat="44.1776549438067" lon="8.11659567638787"><ele>765.0</ele><time>2026-04-16T12:49:52Z</time></trkpt><trkpt lat="44.17756196443705" lon="8.116599120371207"><ele>765.0</ele><time>2026-04-16T12:49:53Z</time></trkpt><trkpt lat="44.17746440474334" lon="8.116618585803433"><ele>765.0</ele><time>2026-04-16T12:49:55Z</time></trkpt><trkpt lat="44.177380260917445" lon="8.116688122147634"><ele>765.0</ele><time>2026-04-16T12:49:57Z</time></trkpt><trkpt lat="44.17726134758951" lon="8.116759329194343"><ele>765.0</ele><time>2026-04-16T12:49:59Z</time></trkpt><trkpt lat="44.177182345173556" lon="8.116805118077554"><ele>765.0</ele><time>2026-04-16T12:50:00Z</time></trkpt><trkpt lat="44.17711212536785" lon="8.11683527683178"><ele>765.6666666666666</ele><time>2026-04-16T12:50:01Z</time></trkpt><trkpt lat="44.177044687800475" lon="8.116862671468892"><ele>766.3333333333333</ele><time>2026-04-16T12:50:02Z</time></trkpt><trkpt lat="44.17697161136503" lon="8.11689761462336"><ele>767.0</ele><time>2026-04-16T12:50:03Z</time></trkpt><trkpt lat="44.17690216887902" lon="8.116922724328706"><ele>767.6666666666666</ele><time>2026-04-16T12:50:04Z</time></trkpt><trkpt lat="44.17683015517133" lon="8.116949710954687"><ele>768.3333333333333</ele><time>2026-04-16T12:50:05Z</time></trkpt><trkpt lat="44.17676161634752" lon="8.116998180821748"><ele>769.0</ele><time>2026-04-16T12:50:06Z</time></trkpt><trkpt lat="44.17668958983168" lon="8.117080724555505"><ele>768.9999999999999</ele><time>2026-04-16T12:50:07Z</time></trkpt><trkpt lat="44.17660742284587" lon="8.117140659841942"><ele>769.0</ele><time>2026-04-16T12:50:08Z</time></trkpt><trkpt lat="44.17654276467699" lon="8.11718673074836"><ele>769.0</ele><time>2026-04-16T12:50:09Z</time></trkpt><trkpt lat="44.17644679431203" lon="8.1172396379684"><ele>769.0</ele><time>2026-04-16T12:50:11Z</time></trkpt><trkpt lat="44.176349196023985" lon="8.11728587301308"><ele>768.9999999999999</ele><time>2026-04-16T12:50:13Z</time></trkpt><trkpt lat="44.17627575321253" lon="8.117300648961526"><ele>769.0</ele><time>2026-04-16T12:50:15Z</time></trkpt><trkpt lat="44.176179127858305" lon="8.11728972200215"><ele>769.1666666666666</ele><time>2026-04-16T12:50:17Z</time></trkpt><trkpt lat="44.176115937401065" lon="8.117294287697137"><ele>769.3333333333333</ele><time>2026-04-16T12:50:19Z</time></trkpt><trkpt lat="44.17603627831634" lon="8.117306063406097"><ele>769.5</ele><time>2026-04-16T12:50:22Z</time></trkpt><trkpt lat="44.17595286176705" lon="8.117336482668358"><ele>769.6666666666667</ele><time>2026-04-16T12:50:26Z</time></trkpt><trkpt lat="44.17586867187687" lon="8.117355188980074"><ele>769.8333333333334</ele><time>2026-04-16T12:50:28Z</time></trkpt><trkpt lat="44.17579374566618" lon="8.117387856858091"><ele>770.0</ele><time>2026-04-16T12:50:30Z</time></trkpt><trkpt lat="44.175723542199314" lon="8.117434205358382"><ele>774.2</ele><time>2026-04-16T12:50:38Z</time></trkpt><trkpt lat="44.17564398227729" lon="8.11750197803737"><ele>778.4</ele><time>2026-04-16T12:50:40Z</time></trkpt><trkpt lat="44.17553914202695" lon="8.11761701756957"><ele>782.5999999999999</ele><time>2026-04-16T12:50:42Z</time></trkpt><trkpt lat="44.1754651335892" lon="8.117674022790089"><ele>786.8</ele><time>2026-04-16T12:50:43Z</time></trkpt><trkpt lat="44.175383255580485" lon="8.117723170573694"><ele>791.0</ele><time>2026-04-16T12:50:44Z</time></trkpt><trkpt lat="44.17530387634231" lon="8.117774771015108"><ele>791.0000000000001</ele><time>2026-04-16T12:50:45Z</time></trkpt><trkpt lat="44.17524093224107" lon="8.117803413801708"><ele>791.0</ele><time>2026-04-16T12:50:46Z</time></trkpt><trkpt lat="44.17516347420201" lon="8.117826798783119"><ele>791.0</ele><time>2026-04-16T12:50:48Z</time></trkpt><trkpt lat="44.1750941824813" lon="8.117881299927024"><ele>791.0</ele><time>2026-04-16T12:50:50Z</time></trkpt><trkpt lat="44.175060762283664" lon="8.117957411735159"><ele>791.0000000000001</ele><time>2026-04-16T12:50:56Z</time></trkpt><trkpt lat="44.17498076729055" lon="8.118037675421325"><ele>791.0</ele><time>2026-04-16T12:50:59Z</time></trkpt><trkpt lat="44.1749097957024" lon="8.118131910331634"><ele>794.0000000000001</ele><time>2026-04-16T12:51:01Z</time></trkpt><trkpt lat="44.174827032555775" lon="8.11818760336652"><ele>797.0</ele><time>2026-04-16T12:51:03Z</time></trkpt><trkpt lat="44.17475688474357" lon="8.118229600010617"><ele>800.0</ele><time>2026-04-16T12:51:05Z</time></trkpt><trkpt lat="44.17466859140371" lon="8.11826377889552"><ele>803.0</ele><time>2026-04-16T12:51:07Z</time></trkpt><trkpt lat="44.17460341757731" lon="8.11828648576998"><ele>806.0000000000001</ele><time>2026-04-16T12:51:10Z</time></trkpt><trkpt lat="44.17452168352557" lon="8.118318530351205"><ele>809.0</ele><time>2026-04-16T12:51:13Z</time></trkpt><trkpt lat="44.17444342079659" lon="8.118360254524921"><ele>809.0000000000001</ele><time>2026-04-16T12:51:17Z</time></trkpt><trkpt lat="44.17438569374536" lon="8.118419274718164"><ele>809.0</ele><time>2026-04-16T12:51:21Z</time></trkpt><trkpt lat="44.17431446444282" lon="8.118504431885974"><ele>809.0</ele><time>2026-04-16T12:51:24Z</time></trkpt><trkpt lat="44.174255246239206" lon="8.118571493128341"><ele>809.0</ele><time>2026-04-16T12:51:26Z</time></trkpt><trkpt lat="44.17421495925383" lon="8.118694938224257"><ele>809.0000000000001</ele><time>2026-04-16T12:51:29Z</time></trkpt><trkpt lat="44.17417164210805" lon="8.118813291395387"><ele>809.0</ele><time>2026-04-16T12:51:31Z</time></trkpt><trkpt lat="44.1740924258629" lon="8.118952451307571"><ele>814.2</ele><time>2026-04-16T12:51:33Z</time></trkpt><trkpt lat="44.17398986185435" lon="8.119096808900014"><ele>819.4000000000001</ele><time>2026-04-16T12:51:35Z</time></trkpt><trkpt lat="44.17391592360756" lon="8.119174759950694"><ele>824.6</ele><time>2026-04-16T12:51:36Z</time></trkpt><trkpt lat="44.1738470111709" lon="8.119245111059893"><ele>829.8</ele><time>2026-04-16T12:51:37Z</time></trkpt><trkpt lat="44.17378763396801" lon="8.11930540756632"><ele>835.0</ele><time>2026-04-16T12:51:38Z</time></trkpt><trkpt lat="44.17373089501231" lon="8.119430782187155"><ele>835.0</ele><time>2026-04-16T12:51:40Z</time></trkpt><trkpt lat="44.17368898387266" lon="8.119581929461274"><ele>835.0</ele><time>2026-04-16T12:51:42Z</time></trkpt><trkpt lat="44.17365896318195" lon="8.11967641289566"><ele>835.0</ele><time>2026-04-16T12:51:43Z</time></trkpt><trkpt lat="44.173624259443386" lon="8.119825437961987"><ele>835.0</ele><time>2026-04-16T12:51:45Z</time></trkpt><trkpt lat="44.17353468241414" lon="8.119944253789198"><ele>835.0</ele><time>2026-04-16T12:51:47Z</time></trkpt><trkpt lat="44.173455709283736" lon="8.120015999259907"><ele>833.4</ele><time>2026-04-16T12:51:48Z</time></trkpt><trkpt lat="44.1733828860601" lon="8.120085823314152"><ele>831.8</ele><time>2026-04-16T12:51:49Z</time></trkpt><trkpt lat="44.17332941587381" lon="8.120133768841722"><ele>830.2</ele><time>2026-04-16T12:51:50Z</time></trkpt><trkpt lat="44.173221284095234" lon="8.120232925304766"><ele>828.6</ele><time>2026-04-16T12:51:52Z</time></trkpt><trkpt lat="44.17316269878188" lon="8.12032280869233"><ele>827.0</ele><time>2026-04-16T12:51:54Z</time></trkpt><trkpt lat="44.17311953649235" lon="8.120438565940942"><ele>831.4000000000001</ele><time>2026-04-16T12:51:56Z</time></trkpt><trkpt lat="44.17302120805882" lon="8.120508660726111"><ele>835.8000000000001</ele><time>2026-04-16T12:51:58Z</time></trkpt><trkpt lat="44.17294207342124" lon="8.120587353689992"><ele>840.2</ele><time>2026-04-16T12:52:00Z</time></trkpt><trkpt lat="44.17292217385941" lon="8.120684065743724"><ele>844.6</ele><time>2026-04-16T12:52:02Z</time></trkpt><trkpt lat="44.172883005376896" lon="8.120819262642277"><ele>849.0</ele><time>2026-04-16T12:52:05Z</time></trkpt><trkpt lat="44.172862965785704" lon="8.120925854586336"><ele>849.0</ele><time>2026-04-16T12:52:07Z</time></trkpt><trkpt lat="44.17283079834955" lon="8.121044670492925"><ele>849.0</ele><time>2026-04-16T12:52:10Z</time></trkpt><trkpt lat="44.17280596415074" lon="8.121129764280429"><ele>849.0</ele><time>2026-04-16T12:52:14Z</time></trkpt><trkpt lat="44.17276880023401" lon="8.121204342263695"><ele>849.0</ele><time>2026-04-16T12:52:24Z</time></trkpt><trkpt lat="44.172753394080225" lon="8.121299768937467"><ele>849.0</ele><time>2026-04-16T12:55:03Z</time></trkpt><trkpt lat="44.17273427016004" lon="8.121412233376128"><ele>849.0</ele><time>2026-04-16T12:55:07Z</time></trkpt><trkpt lat="44.1726905301646" lon="8.121504255297973"><ele>848.3333333333334</ele><time>2026-04-16T12:55:09Z</time></trkpt><trkpt lat="44.17266104338213" lon="8.121586607756809"><ele>847.6666666666667</ele><time>2026-04-16T12:55:12Z</time></trkpt><trkpt lat="44.172635963266906" lon="8.121686562934919"><ele>847.0</ele><time>2026-04-16T12:55:15Z</time></trkpt><trkpt lat="44.172599585891774" lon="8.121783417763304"><ele>846.3333333333334</ele><time>2026-04-16T12:55:17Z</time></trkpt><trkpt lat="44.17250199834564" lon="8.121819973181791"><ele>845.6666666666667</ele><time>2026-04-16T12:55:19Z</time></trkpt><trkpt lat="44.17239969741603" lon="8.121792905665487"><ele>845.0</ele><time>2026-04-16T12:55:21Z</time></trkpt><trkpt lat="44.17231292151826" lon="8.121763024889496"><ele>846.6</ele><time>2026-04-16T12:55:23Z</time></trkpt><trkpt lat="44.1721931460231" lon="8.12177693647614"><ele>848.2</ele><time>2026-04-16T12:55:25Z</time></trkpt><trkpt lat="44.172142652644226" lon="8.121716125514723"><ele>849.8</ele><time>2026-04-16T12:55:27Z</time></trkpt><trkpt lat="44.17210872876269" lon="8.121610603192403"><ele>851.4</ele><time>2026-04-16T12:55:29.999Z</time></trkpt><trkpt lat="44.17204775411472" lon="8.121512452163035"><ele>853.0</ele><time>2026-04-16T12:55:32.999Z</time></trkpt><trkpt lat="44.171996126460336" lon="8.12140616078422"><ele>855.1666666666666</ele><time>2026-04-16T12:55:35.999Z</time></trkpt><trkpt lat="44.17197124684816" lon="8.121278336118603"><ele>857.3333333333333</ele><time>2026-04-16T12:55:37.999Z</time></trkpt><trkpt lat="44.17193199593333" lon="8.121167112696279"><ele>859.5</ele><time>2026-04-16T12:55:40.999Z</time></trkpt><trkpt lat="44.171883245140066" lon="8.12109964058964"><ele>861.6666666666667</ele><time>2026-04-16T12:55:42.999Z</time></trkpt><trkpt lat="44.17179065035416" lon="8.121079610144351"><ele>863.8333333333334</ele><time>2026-04-16T12:55:44.999Z</time></trkpt><trkpt lat="44.17171896565558" lon="8.12105740971915"><ele>866.0</ele><time>2026-04-16T12:55:48.999Z</time></trkpt><trkpt lat="44.171643682032595" lon="8.121030060746877"><ele>866.0</ele><time>2026-04-16T12:55:53.999Z</time></trkpt><trkpt lat="44.17157049335294" lon="8.12096211495852"><ele>865.9999999999999</ele><time>2026-04-16T12:55:55.999Z</time></trkpt><trkpt lat="44.1714945777657" lon="8.120905938396536"><ele>865.9999999999999</ele><time>2026-04-16T12:55:57.999Z</time></trkpt><trkpt lat="44.17142861178597" lon="8.120821123653858"><ele>866.0</ele><time>2026-04-16T12:56:00.999Z</time></trkpt><trkpt lat="44.17138316178319" lon="8.12069855449559"><ele>866.0</ele><time>2026-04-16T12:56:02.999Z</time></trkpt><trkpt lat="44.17132834193687" lon="8.1205919482425"><ele>869.0</ele><time>2026-04-16T12:56:04.999Z</time></trkpt><trkpt lat="44.1712586611" lon="8.120474614706005"><ele>871.9999999999999</ele><time>2026-04-16T12:56:06.999Z</time></trkpt><trkpt lat="44.17120973733673" lon="8.12038836190907"><ele>874.9999999999999</ele><time>2026-04-16T12:56:08.999Z</time></trkpt><trkpt lat="44.17115899574557" lon="8.120284051915323"><ele>878.0</ele><time>2026-04-16T12:56:10.999Z</time></trkpt><trkpt lat="44.171106069077524" lon="8.120168390003814"><ele>881.0</ele><time>2026-04-16T12:56:12.999Z</time></trkpt><trkpt lat="44.171086416754044" lon="8.120038915782589"><ele>881.0000000000001</ele><time>2026-04-16T12:56:14.999Z</time></trkpt><trkpt lat="44.17102518994905" lon="8.11991806103997"><ele>881.0</ele><time>2026-04-16T12:56:16.999Z</time></trkpt><trkpt lat="44.17101478718245" lon="8.119828421690444"><ele>881.0</ele><time>2026-04-16T12:56:17.999Z</time></trkpt><trkpt lat="44.17097901968489" lon="8.119667383093798"><ele>881.0</ele><time>2026-04-16T12:56:19.999Z</time></trkpt><trkpt lat="44.17094837490754" lon="8.119589368160748"><ele>881.0000000000001</ele><time>2026-04-16T12:56:21Z</time></trkpt><trkpt lat="44.17088147808782" lon="8.119520710117888"><ele>881.0</ele><time>2026-04-16T12:56:21.999Z</time></trkpt><trkpt lat="44.170811191858384" lon="8.119436601386257"><ele>881.6666666666667</ele><time>2026-04-16T12:56:22.999Z</time></trkpt><trkpt lat="44.170757851327146" lon="8.11938570263004"><ele>882.3333333333334</ele><time>2026-04-16T12:56:23.999Z</time></trkpt><trkpt lat="44.170693017784565" lon="8.119330928234683"><ele>883.0</ele><time>2026-04-16T12:56:24.999Z</time></trkpt><trkpt lat="44.170642721323574" lon="8.11925254764096"><ele>883.6666666666667</ele><time>2026-04-16T12:56:25.999Z</time></trkpt><trkpt lat="44.170581840203134" lon="8.11911119554855"><ele>884.3333333333334</ele><time>2026-04-16T12:56:27.999Z</time></trkpt><trkpt lat="44.17054530301733" lon="8.119032739201277"><ele>885.0</ele><time>2026-04-16T12:56:28.999Z</time></trkpt><trkpt lat="44.17050349186622" lon="8.118965369525558"><ele>885.0</ele><time>2026-04-16T12:56:29.999Z</time></trkpt><trkpt lat="44.170443107642" lon="8.118914814029324"><ele>885.0</ele><time>2026-04-16T12:56:30.999Z</time></trkpt><trkpt lat="44.1703394597014" lon="8.118819652691629"><ele>885.0</ele><time>2026-04-16T12:56:32.999Z</time></trkpt><trkpt lat="44.170263644169" lon="8.118715134358267"><ele>885.0</ele><time>2026-04-16T12:56:34.999Z</time></trkpt><trkpt lat="44.17024085420031" lon="8.118560822916034"><ele>885.0</ele><time>2026-04-16T12:56:36.999Z</time></trkpt><trkpt lat="44.17023901690845" lon="8.118413662408592"><ele>885.0</ele><time>2026-04-16T12:56:37.999Z</time></trkpt><trkpt lat="44.170217873626505" lon="8.118304944842249"><ele>885.0</ele><time>2026-04-16T12:56:38.999Z</time></trkpt><trkpt lat="44.17019567824252" lon="8.118221086928658"><ele>885.0</ele><time>2026-04-16T12:56:39.999Z</time></trkpt><trkpt lat="44.17012711381157" lon="8.118092678368564"><ele>885.0</ele><time>2026-04-16T12:56:41.999Z</time></trkpt><trkpt lat="44.17008025634601" lon="8.118021538579969"><ele>885.0</ele><time>2026-04-16T12:56:43.999Z</time></trkpt><trkpt lat="44.170031489539554" lon="8.117941847839559"><ele>885.0</ele><time>2026-04-16T12:56:45.999Z</time></trkpt><trkpt lat="44.169998471349466" lon="8.11784605161219"><ele>887.3333333333334</ele><time>2026-04-16T12:56:48.999Z</time></trkpt><trkpt lat="44.169921681527924" lon="8.117720451894249"><ele>889.6666666666667</ele><time>2026-04-16T12:56:50.999Z</time></trkpt><trkpt lat="44.16987286683881" lon="8.117657198993149"><ele>892.0</ele><time>2026-04-16T12:56:51.999Z</time></trkpt><trkpt lat="44.16980816226108" lon="8.117606257721022"><ele>894.3333333333334</ele><time>2026-04-16T12:56:52.999Z</time></trkpt><trkpt lat="44.16974817584987" lon="8.117560717259924"><ele>896.6666666666667</ele><time>2026-04-16T12:56:53.999Z</time></trkpt><trkpt lat="44.16968062192484" lon="8.117472596333554"><ele>899.0</ele><time>2026-04-16T12:56:55.999Z</time></trkpt><trkpt lat="44.16958020164748" lon="8.117412232615862"><ele>899.0000000000001</ele><time>2026-04-16T12:56:57.999Z</time></trkpt><trkpt lat="44.16948302443023" lon="8.11738088257401"><ele>899.0</ele><time>2026-04-16T12:56:59.999Z</time></trkpt><trkpt lat="44.16941529664918" lon="8.11739028815566"><ele>899.0</ele><time>2026-04-16T12:57:00.999Z</time></trkpt><trkpt lat="44.169335625485125" lon="8.117405139432009"><ele>899.0</ele><time>2026-04-16T12:57:01.999Z</time></trkpt><trkpt lat="44.1692709491324" lon="8.117423078821464"><ele>899.0000000000001</ele><time>2026-04-16T12:57:02.999Z</time></trkpt><trkpt lat="44.16916965532122" lon="8.117470224083869"><ele>899.0</ele><time>2026-04-16T12:57:04.999Z</time></trkpt><trkpt lat="44.16905204833521" lon="8.117503075628685"><ele>901.4000000000001</ele><time>2026-04-16T12:57:06.999Z</time></trkpt><trkpt lat="44.16897680941377" lon="8.117550901929532"><ele>903.8000000000001</ele><time>2026-04-16T12:57:08.999Z</time></trkpt><trkpt lat="44.16890968943683" lon="8.117660279436484"><ele>906.1999999999999</ele><time>2026-04-16T12:57:10.999Z</time></trkpt><trkpt lat="44.16885692889693" lon="8.11776132909883"><ele>908.5999999999999</ele><time>2026-04-16T12:57:12.999Z</time></trkpt><trkpt lat="44.16877823615642" lon="8.117873214956253"><ele>911.0</ele><time>2026-04-16T12:57:14.999Z</time></trkpt><trkpt lat="44.168714907886844" lon="8.117918147360259"><ele>911.0000000000001</ele><time>2026-04-16T12:57:15.999Z</time></trkpt><trkpt lat="44.16865721420983" lon="8.117970835302858"><ele>911.0</ele><time>2026-04-16T12:57:16.999Z</time></trkpt><trkpt lat="44.16858079937679" lon="8.118030838722726"><ele>911.0</ele><time>2026-04-16T12:57:17.999Z</time></trkpt><trkpt lat="44.16850137496325" lon="8.118067028646209"><ele>911.0</ele><time>2026-04-16T12:57:18.999Z</time></trkpt><trkpt lat="44.16842606168127" lon="8.118092167603734"><ele>911.0000000000001</ele><time>2026-04-16T12:57:19.999Z</time></trkpt><trkpt lat="44.1683525616245" lon="8.11811298174364"><ele>911.0</ele><time>2026-04-16T12:57:20.999Z</time></trkpt><trkpt lat="44.16828701593315" lon="8.118105719721195"><ele>911.0</ele><time>2026-04-16T12:57:21.999Z</time></trkpt><trkpt lat="44.16820101787324" lon="8.11808429055641"><ele>910.9999999999999</ele><time>2026-04-16T12:57:23.999Z</time></trkpt><trkpt lat="44.16813570731027" lon="8.117985608330248"><ele>910.9999999999999</ele><time>2026-04-16T12:57:25.999Z</time></trkpt><trkpt lat="44.16813644211503" lon="8.11786046220845"><ele>911.0</ele><time>2026-04-16T12:57:27.999Z</time></trkpt><trkpt lat="44.168071282626705" lon="8.117752011536265"><ele>911.0</ele><time>2026-04-16T12:57:29.999Z</time></trkpt><trkpt lat="44.168005648548025" lon="8.11769127422621"><ele>910.0</ele><time>2026-04-16T12:57:30.999Z</time></trkpt><trkpt lat="44.167904649738034" lon="8.117587487120604"><ele>908.9999999999999</ele><time>2026-04-16T12:57:32.999Z</time></trkpt><trkpt lat="44.167837510777154" lon="8.11753417064704"><ele>907.9999999999999</ele><time>2026-04-16T12:57:33.999Z</time></trkpt><trkpt lat="44.16770089942306" lon="8.11749194777615"><ele>907.0</ele><time>2026-04-16T12:57:35.999Z</time></trkpt><trkpt lat="44.16762547643656" lon="8.117426086077556"><ele>906.0</ele><time>2026-04-16T12:57:36.999Z</time></trkpt><trkpt lat="44.16754591181643" lon="8.117400150678428"><ele>906.5</ele><time>2026-04-16T12:57:37.999Z</time></trkpt><trkpt lat="44.16747856335363" lon="8.117376466718245"><ele>907.0</ele><time>2026-04-16T12:57:38.999Z</time></trkpt><trkpt lat="44.16740143842" lon="8.117362531084135"><ele>907.5</ele><time>2026-04-16T12:57:39.999Z</time></trkpt><trkpt lat="44.1673165499846" lon="8.117367372347768"><ele>908.0</ele><time>2026-04-16T12:57:40.999Z</time></trkpt><trkpt lat="44.167205854253915" lon="8.117372599439054"><ele>908.5</ele><time>2026-04-16T12:57:42.999Z</time></trkpt><trkpt lat="44.16712215366433" lon="8.117408906632235"><ele>909.0</ele><time>2026-04-16T12:57:43.999Z</time></trkpt><trkpt lat="44.16705557564369" lon="8.117449333032575"><ele>909.0</ele><time>2026-04-16T12:57:44.999Z</time></trkpt><trkpt lat="44.16697800867799" lon="8.117498296645929"><ele>909.0</ele><time>2026-04-16T12:57:45.999Z</time></trkpt><trkpt lat="44.16688598804349" lon="8.11753629381839"><ele>909.0</ele><time>2026-04-16T12:57:46.999Z</time></trkpt><trkpt lat="44.166802460671796" lon="8.117571574205579"><ele>909.0</ele><time>2026-04-16T12:57:47.999Z</time></trkpt><trkpt lat="44.16673814368657" lon="8.11760209619769"><ele>909.0</ele><time>2026-04-16T12:57:48.999Z</time></trkpt><trkpt lat="44.16665016399648" lon="8.117636034798947"><ele>909.0</ele><time>2026-04-16T12:57:49.999Z</time></trkpt><trkpt lat="44.16656979882624" lon="8.117679804147397"><ele>911.1666666666666</ele><time>2026-04-16T12:57:50.999Z</time></trkpt><trkpt lat="44.16649645395356" lon="8.117711456936457"><ele>913.3333333333333</ele><time>2026-04-16T12:57:51.999Z</time></trkpt><trkpt lat="44.16642385493138" lon="8.117723129691788"><ele>915.5</ele><time>2026-04-16T12:57:52.999Z</time></trkpt><trkpt lat="44.1663454888599" lon="8.117740099875514"><ele>917.6666666666666</ele><time>2026-04-16T12:57:53.999Z</time></trkpt><trkpt lat="44.16626410081868" lon="8.117769917383049"><ele>919.8333333333333</ele><time>2026-04-16T12:57:54.999Z</time></trkpt><trkpt lat="44.16618580468578" lon="8.117850625860427"><ele>922.0</ele><time>2026-04-16T12:57:55.999Z</time></trkpt><trkpt lat="44.16611245154325" lon="8.117924113427577"><ele>922.0</ele><time>2026-04-16T12:57:56.999Z</time></trkpt><trkpt lat="44.16601740505553" lon="8.118001039343131"><ele>922.0</ele><time>2026-04-16T12:57:57.999Z</time></trkpt><trkpt lat="44.165925515214596" lon="8.118070099910502"><ele>922.0</ele><time>2026-04-16T12:57:58.999Z</time></trkpt><trkpt lat="44.16584495775333" lon="8.11816738233471"><ele>922.0</ele><time>2026-04-16T12:57:59.999Z</time></trkpt><trkpt lat="44.1657759326877" lon="8.118241471656507"><ele>922.0</ele><time>2026-04-16T12:58:00.999Z</time></trkpt><trkpt lat="44.165700593789865" lon="8.118304292332157"><ele>920.4999999999999</ele><time>2026-04-16T12:58:01.999Z</time></trkpt><trkpt lat="44.16562707940404" lon="8.11834128330253"><ele>919.0</ele><time>2026-04-16T12:58:02.999Z</time></trkpt><trkpt lat="44.165544459661525" lon="8.11837749359481"><ele>917.5</ele><time>2026-04-16T12:58:03.999Z</time></trkpt><trkpt lat="44.1654663779532" lon="8.118450923058376"><ele>916.0</ele><time>2026-04-16T12:58:04.999Z</time></trkpt><trkpt lat="44.165400560423635" lon="8.11851816719227"><ele>914.4999999999999</ele><time>2026-04-16T12:58:05.999Z</time></trkpt><trkpt lat="44.165341004645015" lon="8.118608746492871"><ele>913.0</ele><time>2026-04-16T12:58:06.999Z</time></trkpt><trkpt lat="44.165229883141514" lon="8.118688234042283"><ele>913.0</ele><time>2026-04-16T12:58:08.999Z</time></trkpt><trkpt lat="44.165103594588736" lon="8.118692919228804"><ele>913.0</ele><time>2026-04-16T12:58:10.999Z</time></trkpt><trkpt lat="44.165026668890754" lon="8.118691764750084"><ele>913.0</ele><time>2026-04-16T12:58:11.999Z</time></trkpt><trkpt lat="44.16495329578666" lon="8.118696578816204"><ele>913.0</ele><time>2026-04-16T12:58:12.999Z</time></trkpt><trkpt lat="44.164834273475144" lon="8.118617282507525"><ele>913.0</ele><time>2026-04-16T12:58:14.999Z</time></trkpt><trkpt lat="44.164785997872045" lon="8.118555793674648"><ele>910.8571428571427</ele><time>2026-04-16T12:58:15.999Z</time></trkpt><trkpt lat="44.164751846090454" lon="8.118481476199543"><ele>908.7142857142857</ele><time>2026-04-16T12:58:16.999Z</time></trkpt><trkpt lat="44.16471348504825" lon="8.118390713710566"><ele>906.5714285714284</ele><time>2026-04-16T12:58:17.999Z</time></trkpt><trkpt lat="44.16466925919725" lon="8.11831413958302"><ele>904.4285714285713</ele><time>2026-04-16T12:58:18.999Z</time></trkpt><trkpt lat="44.16462166845388" lon="8.118228316803675"><ele>902.2857142857142</ele><time>2026-04-16T12:58:19.999Z</time></trkpt><trkpt lat="44.16457833937496" lon="8.11815496839975"><ele>900.1428571428571</ele><time>2026-04-16T12:58:20.999Z</time></trkpt><trkpt lat="44.16452042188956" lon="8.118096849247967"><ele>898.0</ele><time>2026-04-16T12:58:21.999Z</time></trkpt><trkpt lat="44.16444342664473" lon="8.118043400256914"><ele>899.0</ele><time>2026-04-16T12:58:23.999Z</time></trkpt><trkpt lat="44.16435446669579" lon="8.117927189273809"><ele>900.0</ele><time>2026-04-16T12:58:25.999Z</time></trkpt><trkpt lat="44.16428621522247" lon="8.117863607694785"><ele>901.0</ele><time>2026-04-16T12:58:26.999Z</time></trkpt><trkpt lat="44.16419613454029" lon="8.117843929719676"><ele>902.0</ele><time>2026-04-16T12:58:27.999Z</time></trkpt><trkpt lat="44.164114734948335" lon="8.117866486469772"><ele>903.0</ele><time>2026-04-16T12:58:28.999Z</time></trkpt><trkpt lat="44.16402967406633" lon="8.117891981310617"><ele>903.0</ele><time>2026-04-16T12:58:29.999Z</time></trkpt><trkpt lat="44.163961866754185" lon="8.11787434297877"><ele>903.0</ele><time>2026-04-16T12:58:30.999Z</time></trkpt><trkpt lat="44.163880382790566" lon="8.117844539418382"><ele>903.0</ele><time>2026-04-16T12:58:31.999Z</time></trkpt><trkpt lat="44.16380137086146" lon="8.117811335378446"><ele>903.0</ele><time>2026-04-16T12:58:32.999Z</time></trkpt><trkpt lat="44.163737096647274" lon="8.117745948748796"><ele>903.0</ele><time>2026-04-16T12:58:33.999Z</time></trkpt><trkpt lat="44.16367404975896" lon="8.11767166306911"><ele>903.0</ele><time>2026-04-16T12:58:34.999Z</time></trkpt><trkpt lat="44.16362503341287" lon="8.117593412866354"><ele>903.0</ele><time>2026-04-16T12:58:36.999Z</time></trkpt><trkpt lat="44.16356292769883" lon="8.117491147318601"><ele>903.0</ele><time>2026-04-16T12:58:38.999Z</time></trkpt><trkpt lat="44.16348946535242" lon="8.117400269744902"><ele>903.0</ele><time>2026-04-16T12:58:40.999Z</time></trkpt><trkpt lat="44.16336920776593" lon="8.117402189650115"><ele>903.0</ele><time>2026-04-16T12:58:42.999Z</time></trkpt><trkpt lat="44.163304797854764" lon="8.117405502397744"><ele>903.0</ele><time>2026-04-16T12:58:43.999Z</time></trkpt><trkpt lat="44.16322863295912" lon="8.117413977762675"><ele>902.3333333333334</ele><time>2026-04-16T12:58:44.999Z</time></trkpt><trkpt lat="44.16316513634279" lon="8.117408792572721"><ele>901.6666666666667</ele><time>2026-04-16T12:58:45.999Z</time></trkpt><trkpt lat="44.16303008736842" lon="8.117381940874214"><ele>901.0</ele><time>2026-04-16T12:58:47.999Z</time></trkpt><trkpt lat="44.16296174592865" lon="8.117376280474174"><ele>900.3333333333334</ele><time>2026-04-16T12:58:48.999Z</time></trkpt><trkpt lat="44.16289400796361" lon="8.117372970454536"><ele>899.6666666666667</ele><time>2026-04-16T12:58:49.999Z</time></trkpt><trkpt lat="44.162826671774404" lon="8.117358256055686"><ele>899.0</ele><time>2026-04-16T12:58:50.999Z</time></trkpt><trkpt lat="44.16271765932027" lon="8.117301568550072"><ele>899.0000000000001</ele><time>2026-04-16T12:58:52.999Z</time></trkpt><trkpt lat="44.16266798415492" lon="8.117247596553431"><ele>899.0</ele><time>2026-04-16T12:58:53.999Z</time></trkpt><trkpt lat="44.162634183204" lon="8.117171025124538"><ele>899.0</ele><time>2026-04-16T12:58:54.999Z</time></trkpt><trkpt lat="44.16262177836357" lon="8.117075441888517"><ele>899.0</ele><time>2026-04-16T12:58:55.999Z</time></trkpt><trkpt lat="44.16262371862966" lon="8.116969303407911"><ele>899.0000000000001</ele><time>2026-04-16T12:58:56.999Z</time></trkpt><trkpt lat="44.162630352642324" lon="8.116790675144598"><ele>899.0</ele><time>2026-04-16T12:58:58.999Z</time></trkpt><trkpt lat="44.16266038614139" lon="8.11666321344522"><ele>900.4000000000001</ele><time>2026-04-16T12:59:00.999Z</time></trkpt><trkpt lat="44.162677095889315" lon="8.116555351333055"><ele>901.8000000000001</ele><time>2026-04-16T12:59:02.999Z</time></trkpt><trkpt lat="44.162690576268986" lon="8.116413764204694"><ele>903.1999999999999</ele><time>2026-04-16T12:59:04.999Z</time></trkpt><trkpt lat="44.16270118085303" lon="8.116274439873356"><ele>904.5999999999999</ele><time>2026-04-16T12:59:06.999Z</time></trkpt><trkpt lat="44.162718471005334" lon="8.116150710828272"><ele>906.0</ele><time>2026-04-16T12:59:08.999Z</time></trkpt><trkpt lat="44.16272933977319" lon="8.116002639806037"><ele>906.0</ele><time>2026-04-16T12:59:10.999Z</time></trkpt><trkpt lat="44.16271901663078" lon="8.115831251197891"><ele>905.9999999999999</ele><time>2026-04-16T12:59:12.999Z</time></trkpt><trkpt lat="44.16269596691811" lon="8.11568793919355"><ele>905.9999999999999</ele><time>2026-04-16T12:59:14.999Z</time></trkpt><trkpt lat="44.16269328643574" lon="8.115512224270807"><ele>906.0</ele><time>2026-04-16T12:59:16.999Z</time></trkpt><trkpt lat="44.16266340822561" lon="8.115406512232553"><ele>906.0</ele><time>2026-04-16T12:59:17.999Z</time></trkpt><trkpt lat="44.16263513952781" lon="8.1152970178894"><ele>908.4</ele><time>2026-04-16T12:59:18.999Z</time></trkpt><trkpt lat="44.162612822425714" lon="8.115193466771329"><ele>910.8</ele><time>2026-04-16T12:59:19.999Z</time></trkpt><trkpt lat="44.16259584115602" lon="8.11509005453453"><ele>913.1999999999999</ele><time>2026-04-16T12:59:20.999Z</time></trkpt><trkpt lat="44.162589304142934" lon="8.11490210753218"><ele>915.5999999999999</ele><time>2026-04-16T12:59:22.999Z</time></trkpt><trkpt lat="44.16254291345477" lon="8.1147546132894"><ele>918.0</ele><time>2026-04-16T12:59:24.999Z</time></trkpt><trkpt lat="44.16249963291802" lon="8.114627854021956"><ele>919.0</ele><time>2026-04-16T12:59:25.999Z</time></trkpt><trkpt lat="44.16248296259778" lon="8.114522699448862"><ele>920.0</ele><time>2026-04-16T12:59:26.999Z</time></trkpt><trkpt lat="44.16251739193666" lon="8.114353736646507"><ele>921.0</ele><time>2026-04-16T12:59:28.999Z</time></trkpt><trkpt lat="44.162549952737976" lon="8.114261099431932"><ele>922.0</ele><time>2026-04-16T12:59:29.999Z</time></trkpt><trkpt lat="44.162579103221525" lon="8.114177975760565"><ele>923.0</ele><time>2026-04-16T12:59:30.999Z</time></trkpt><trkpt lat="44.162604650861454" lon="8.114032248071375"><ele>923.0000000000001</ele><time>2026-04-16T12:59:32.999Z</time></trkpt><trkpt lat="44.162637970828406" lon="8.113943925531949"><ele>923.0</ele><time>2026-04-16T12:59:33.999Z</time></trkpt><trkpt lat="44.16268623976263" lon="8.113786604451418"><ele>923.0</ele><time>2026-04-16T12:59:35.999Z</time></trkpt><trkpt lat="44.162718003538" lon="8.113708007482684"><ele>923.0</ele><time>2026-04-16T12:59:36.999Z</time></trkpt><trkpt lat="44.162754773930395" lon="8.113625629321616"><ele>923.0000000000001</ele><time>2026-04-16T12:59:37.999Z</time></trkpt><trkpt lat="44.162771466513156" lon="8.113540438048167"><ele>923.0</ele><time>2026-04-16T12:59:38.999Z</time></trkpt><trkpt lat="44.16280439561495" lon="8.113430110248025"><ele>923.0</ele><time>2026-04-16T12:59:39.999Z</time></trkpt><trkpt lat="44.162825536984904" lon="8.113301455519752"><ele>923.0</ele><time>2026-04-16T12:59:40.999Z</time></trkpt><trkpt lat="44.16282725536581" lon="8.113184456000335"><ele>923.0</ele><time>2026-04-16T12:59:41.999Z</time></trkpt><trkpt lat="44.1628463411197" lon="8.112986530192085"><ele>923.0</ele><time>2026-04-16T12:59:43.999Z</time></trkpt><trkpt lat="44.16284574488874" lon="8.11288829854964"><ele>923.0</ele><time>2026-04-16T12:59:44.999Z</time></trkpt><trkpt lat="44.16288043758336" lon="8.112720672541139"><ele>923.0000000000001</ele><time>2026-04-16T12:59:46.999Z</time></trkpt><trkpt lat="44.16288453219563" lon="8.112625396719721"><ele>923.0</ele><time>2026-04-16T12:59:47.999Z</time></trkpt><trkpt lat="44.162870278931486" lon="8.11252013482674"><ele>923.0</ele><time>2026-04-16T12:59:48.999Z</time></trkpt><trkpt lat="44.162856069769" lon="8.112412335600117"><ele>923.0</ele><time>2026-04-16T12:59:49.999Z</time></trkpt><trkpt lat="44.16285456927094" lon="8.112296618148411"><ele>923.0000000000001</ele><time>2026-04-16T12:59:50.999Z</time></trkpt><trkpt lat="44.16289312350666" lon="8.112178598183517"><ele>923.0</ele><time>2026-04-16T12:59:52.999Z</time></trkpt><trkpt lat="44.16297037350063" lon="8.112089251863551"><ele>920.3333333333334</ele><time>2026-04-16T12:59:54.999Z</time></trkpt><trkpt lat="44.16305271900235" lon="8.112028374417038"><ele>917.6666666666667</ele><time>2026-04-16T12:59:56.999Z</time></trkpt><trkpt lat="44.16311593868755" lon="8.112004068990657"><ele>915.0</ele><time>2026-04-16T12:59:57.999Z</time></trkpt><trkpt lat="44.16318777453221" lon="8.111989071918835"><ele>912.3333333333333</ele><time>2026-04-16T12:59:58.999Z</time></trkpt><trkpt lat="44.16324573848955" lon="8.111949955365644"><ele>909.6666666666666</ele><time>2026-04-16T12:59:59.999Z</time></trkpt><trkpt lat="44.163366006584695" lon="8.111865338802698"><ele>907.0</ele><time>2026-04-16T13:00:01.999Z</time></trkpt><trkpt lat="44.163437117775885" lon="8.111822242290755"><ele>909.1666666666666</ele><time>2026-04-16T13:00:02.999Z</time></trkpt><trkpt lat="44.16351976264855" lon="8.11176547972308"><ele>911.3333333333333</ele><time>2026-04-16T13:00:03.999Z</time></trkpt><trkpt lat="44.163598967727864" lon="8.111723199931477"><ele>913.5</ele><time>2026-04-16T13:00:04.999Z</time></trkpt><trkpt lat="44.16367837057243" lon="8.111706506407613"><ele>915.6666666666667</ele><time>2026-04-16T13:00:05.999Z</time></trkpt><trkpt lat="44.163758573445406" lon="8.111664558050272"><ele>917.8333333333334</ele><time>2026-04-16T13:00:06.999Z</time></trkpt><trkpt lat="44.16383209567413" lon="8.11162254048932"><ele>920.0</ele><time>2026-04-16T13:00:07.999Z</time></trkpt><trkpt lat="44.16389827956975" lon="8.11155563474639"><ele>920.0000000000001</ele><time>2026-04-16T13:00:08.999Z</time></trkpt><trkpt lat="44.163968421297604" lon="8.111497910740956"><ele>920.0</ele><time>2026-04-16T13:00:09.999Z</time></trkpt><trkpt lat="44.164035335581325" lon="8.111426395810193"><ele>920.0</ele><time>2026-04-16T13:00:10.999Z</time></trkpt><trkpt lat="44.164103038312696" lon="8.111390650512583"><ele>920.0</ele><time>2026-04-16T13:00:11.999Z</time></trkpt><trkpt lat="44.16417691268143" lon="8.111338621211098"><ele>920.0000000000001</ele><time>2026-04-16T13:00:12.999Z</time></trkpt><trkpt lat="44.16424072218894" lon="8.111298156804363"><ele>920.0</ele><time>2026-04-16T13:00:13.999Z</time></trkpt><trkpt lat="44.164310707509735" lon="8.111242263340712"><ele>924.8333333333334</ele><time>2026-04-16T13:00:14.999Z</time></trkpt><trkpt lat="44.16438404169799" lon="8.111190120083101"><ele>929.6666666666667</ele><time>2026-04-16T13:00:15.999Z</time></trkpt><trkpt lat="44.164453531074905" lon="8.111140375752635"><ele>934.5</ele><time>2026-04-16T13:00:16.999Z</time></trkpt><trkpt lat="44.16452010200142" lon="8.11108283340432"><ele>939.3333333333333</ele><time>2026-04-16T13:00:17.999Z</time></trkpt><trkpt lat="44.16460866904763" lon="8.111038745945663"><ele>944.1666666666666</ele><time>2026-04-16T13:00:18.999Z</time></trkpt><trkpt lat="44.16469648470477" lon="8.11099352068243"><ele>949.0</ele><time>2026-04-16T13:00:19.999Z</time></trkpt><trkpt lat="44.16477187955433" lon="8.110928295616056"><ele>948.9999999999999</ele><time>2026-04-16T13:00:20.999Z</time></trkpt><trkpt lat="44.16484470027615" lon="8.110850252924054"><ele>949.0</ele><time>2026-04-16T13:00:21.999Z</time></trkpt><trkpt lat="44.16489527637956" lon="8.110767041541449"><ele>949.0</ele><time>2026-04-16T13:00:22.999Z</time></trkpt><trkpt lat="44.16496712012322" lon="8.11069025971838"><ele>949.0</ele><time>2026-04-16T13:00:23.999Z</time></trkpt><trkpt lat="44.16504541084129" lon="8.110633701861286"><ele>948.9999999999999</ele><time>2026-04-16T13:00:24.999Z</time></trkpt><trkpt lat="44.165123573614" lon="8.110594782746729"><ele>949.0</ele><time>2026-04-16T13:00:25.999Z</time></trkpt><trkpt lat="44.165199856026874" lon="8.110543231760595"><ele>950.3333333333333</ele><time>2026-04-16T13:00:26.999Z</time></trkpt><trkpt lat="44.1652801009058" lon="8.110491656261907"><ele>951.6666666666666</ele><time>2026-04-16T13:00:27.999Z</time></trkpt><trkpt lat="44.16536798663587" lon="8.11042194988143"><ele>953.0</ele><time>2026-04-16T13:00:28.999Z</time></trkpt><trkpt lat="44.16543998983669" lon="8.11037336341404"><ele>954.3333333333333</ele><time>2026-04-16T13:00:29.999Z</time></trkpt><trkpt lat="44.16551098293306" lon="8.110325152678202"><ele>955.6666666666666</ele><time>2026-04-16T13:00:31Z</time></trkpt><trkpt lat="44.165562661964046" lon="8.110274549946794"><ele>957.0</ele><time>2026-04-16T13:00:31.999Z</time></trkpt><trkpt lat="44.16562858849636" lon="8.110214223310638"><ele>960.3333333333334</ele><time>2026-04-16T13:00:32.999Z</time></trkpt><trkpt lat="44.16570562945461" lon="8.11017502520402"><ele>963.6666666666667</ele><time>2026-04-16T13:00:33.999Z</time></trkpt><trkpt lat="44.165792638761815" lon="8.110159654946427"><ele>967.0</ele><time>2026-04-16T13:00:34.999Z</time></trkpt><trkpt lat="44.165869851316494" lon="8.11014416692646"><ele>970.3333333333334</ele><time>2026-04-16T13:00:35.999Z</time></trkpt><trkpt lat="44.16594323291164" lon="8.110126536695091"><ele>973.6666666666667</ele><time>2026-04-16T13:00:36.999Z</time></trkpt><trkpt lat="44.16602824293792" lon="8.110106238302043"><ele>977.0</ele><time>2026-04-16T13:00:37.999Z</time></trkpt><trkpt lat="44.166112549730755" lon="8.110064002968926"><ele>977.0</ele><time>2026-04-16T13:00:38.999Z</time></trkpt><trkpt lat="44.166197638977074" lon="8.110022853194378"><ele>977.0</ele><time>2026-04-16T13:00:39.999Z</time></trkpt><trkpt lat="44.16630074679663" lon="8.109992985496815"><ele>977.0</ele><time>2026-04-16T13:00:40.999Z</time></trkpt><trkpt lat="44.166398263745116" lon="8.109965143699553"><ele>977.0</ele><time>2026-04-16T13:00:41.999Z</time></trkpt><trkpt lat="44.16649534212149" lon="8.109963930658113"><ele>977.0</ele><time>2026-04-16T13:00:42.999Z</time></trkpt><trkpt lat="44.16656124364705" lon="8.109926534852354"><ele>976.2</ele><time>2026-04-16T13:00:43.999Z</time></trkpt><trkpt lat="44.16665190711715" lon="8.109851044362317"><ele>975.4000000000001</ele><time>2026-04-16T13:00:45.991Z</time></trkpt><trkpt lat="44.16671627814006" lon="8.109786267656283"><ele>974.5999999999999</ele><time>2026-04-16T13:00:46.991Z</time></trkpt><trkpt lat="44.16678183244139" lon="8.109707871074827"><ele>973.8</ele><time>2026-04-16T13:00:47.991Z</time></trkpt><trkpt lat="44.16687649162231" lon="8.109629216120275"><ele>973.0</ele><time>2026-04-16T13:00:48.991Z</time></trkpt><trkpt lat="44.16696463240801" lon="8.109585082921857"><ele>972.9999999999999</ele><time>2026-04-16T13:00:49.991Z</time></trkpt><trkpt lat="44.16704392951531" lon="8.109544405577338"><ele>973.0</ele><time>2026-04-16T13:00:50.991Z</time></trkpt><trkpt lat="44.16712060600228" lon="8.109493960115369"><ele>973.0</ele><time>2026-04-16T13:00:51.991Z</time></trkpt><trkpt lat="44.1671931514939" lon="8.10942252110124"><ele>973.0</ele><time>2026-04-16T13:00:52.991Z</time></trkpt><trkpt lat="44.16726445320017" lon="8.109346320103889"><ele>972.9999999999999</ele><time>2026-04-16T13:00:53.991Z</time></trkpt><trkpt lat="44.16733532420436" lon="8.109273011334716"><ele>973.0</ele><time>2026-04-16T13:00:54.991Z</time></trkpt><trkpt lat="44.167418688183574" lon="8.109181865740899"><ele>976.4</ele><time>2026-04-16T13:00:55.991Z</time></trkpt><trkpt lat="44.16748029353232" lon="8.10906765925509"><ele>979.8</ele><time>2026-04-16T13:00:56.991Z</time></trkpt><trkpt lat="44.16756651419093" lon="8.108960385971923"><ele>983.2</ele><time>2026-04-16T13:00:57.991Z</time></trkpt><trkpt lat="44.167650346720414" lon="8.108858967145851"><ele>986.6</ele><time>2026-04-16T13:00:58.991Z</time></trkpt><trkpt lat="44.16773036289895" lon="8.108752699735728"><ele>990.0</ele><time>2026-04-16T13:00:59.991Z</time></trkpt><trkpt lat="44.16779343319294" lon="8.108657372701762"><ele>990.0</ele><time>2026-04-16T13:01:00.991Z</time></trkpt><trkpt lat="44.16784085785447" lon="8.108565446298405"><ele>990.0</ele><time>2026-04-16T13:01:01.991Z</time></trkpt><trkpt lat="44.16785516988782" lon="8.108443859354656"><ele>990.0</ele><time>2026-04-16T13:01:02.991Z</time></trkpt><trkpt lat="44.167881786687644" lon="8.108295787092443"><ele>990.0</ele><time>2026-04-16T13:01:03.991Z</time></trkpt><trkpt lat="44.16790667957438" lon="8.108151245539252"><ele>990.0</ele><time>2026-04-16T13:01:04.991Z</time></trkpt><trkpt lat="44.16792831493068" lon="8.108003633006142"><ele>990.8333333333334</ele><time>2026-04-16T13:01:05.991Z</time></trkpt><trkpt lat="44.1679385962884" lon="8.107878032838164"><ele>991.6666666666667</ele><time>2026-04-16T13:01:06.991Z</time></trkpt><trkpt lat="44.16795896841879" lon="8.107756015440042"><ele>992.5</ele><time>2026-04-16T13:01:07.991Z</time></trkpt><trkpt lat="44.16800430090428" lon="8.10764731097152"><ele>993.3333333333334</ele><time>2026-04-16T13:01:08.991Z</time></trkpt><trkpt lat="44.1680575829222" lon="8.107549246592923"><ele>994.1666666666667</ele><time>2026-04-16T13:01:09.991Z</time></trkpt><trkpt lat="44.16808316495883" lon="8.107452282510954"><ele>995.0</ele><time>2026-04-16T13:01:10.991Z</time></trkpt><trkpt lat="44.168067045469336" lon="8.10732161408995"><ele>996.3333333333334</ele><time>2026-04-16T13:01:11.991Z</time></trkpt><trkpt lat="44.16804641435689" lon="8.107202440420007"><ele>997.6666666666667</ele><time>2026-04-16T13:01:12.991Z</time></trkpt><trkpt lat="44.16802974980893" lon="8.107085548453025"><ele>999.0</ele><time>2026-04-16T13:01:13.991Z</time></trkpt><trkpt lat="44.167987873584394" lon="8.106999872149721"><ele>1000.3333333333333</ele><time>2026-04-16T13:01:14.991Z</time></trkpt><trkpt lat="44.16794263101516" lon="8.10692158489334"><ele>1001.6666666666666</ele><time>2026-04-16T13:01:15.991Z</time></trkpt><trkpt lat="44.16786856845321" lon="8.106869430473651"><ele>1003.0</ele><time>2026-04-16T13:01:16.991Z</time></trkpt><trkpt lat="44.167795587650104" lon="8.106835001454247"><ele>1003.0</ele><time>2026-04-16T13:01:17.991Z</time></trkpt><trkpt lat="44.16773212260747" lon="8.106807839300759"><ele>1003.0</ele><time>2026-04-16T13:01:18.991Z</time></trkpt><trkpt lat="44.16765351945097" lon="8.106684499702714"><ele>1003.0</ele><time>2026-04-16T13:01:20.991Z</time></trkpt><trkpt lat="44.167658495122375" lon="8.10659252144032"><ele>1003.0</ele><time>2026-04-16T13:01:21.991Z</time></trkpt><trkpt lat="44.16768128856939" lon="8.106408821206749"><ele>1003.0</ele><time>2026-04-16T13:01:23.991Z</time></trkpt><trkpt lat="44.16769632836059" lon="8.106314920153743"><ele>1003.2</ele><time>2026-04-16T13:01:24.991Z</time></trkpt><trkpt lat="44.167708210606" lon="8.10620503730453"><ele>1003.4</ele><time>2026-04-16T13:01:25.991Z</time></trkpt><trkpt lat="44.16770910035095" lon="8.106064686549123"><ele>1003.6000000000001</ele><time>2026-04-16T13:01:26.991Z</time></trkpt><trkpt lat="44.16771963662933" lon="8.105929103783161"><ele>1003.8000000000001</ele><time>2026-04-16T13:01:27.991Z</time></trkpt><trkpt lat="44.16772545230527" lon="8.10577962891803"><ele>1004.0</ele><time>2026-04-16T13:01:28.991Z</time></trkpt><trkpt lat="44.167739796530725" lon="8.105637529754627"><ele>1004.6</ele><time>2026-04-16T13:01:29.991Z</time></trkpt><trkpt lat="44.16775670805466" lon="8.105508512669664"><ele>1005.2</ele><time>2026-04-16T13:01:30.991Z</time></trkpt><trkpt lat="44.16776115949676" lon="8.105377247665135"><ele>1005.8000000000001</ele><time>2026-04-16T13:01:31.991Z</time></trkpt><trkpt lat="44.16776795662114" lon="8.105249888075926"><ele>1006.4000000000001</ele><time>2026-04-16T13:01:32.989Z</time></trkpt><trkpt lat="44.167775832739466" lon="8.10512429870128"><ele>1007.0</ele><time>2026-04-16T13:01:33.99Z</time></trkpt><trkpt lat="44.167787447578874" lon="8.104997250550461"><ele>1008.0</ele><time>2026-04-16T13:01:34.99Z</time></trkpt><trkpt lat="44.16780617132943" lon="8.104857780335761"><ele>1009.0</ele><time>2026-04-16T13:01:35.99Z</time></trkpt><trkpt lat="44.167833836862364" lon="8.104718192750466"><ele>1010.0</ele><time>2026-04-16T13:01:36.989Z</time></trkpt><trkpt lat="44.16785991526672" lon="8.104588245021626"><ele>1011.0</ele><time>2026-04-16T13:01:37.989Z</time></trkpt><trkpt lat="44.167877702165555" lon="8.104460901274644"><ele>1012.0</ele><time>2026-04-16T13:01:38.989Z</time></trkpt><trkpt lat="44.16789199904905" lon="8.104347132945165"><ele>1011.9999999999999</ele><time>2026-04-16T13:01:39.989Z</time></trkpt><trkpt lat="44.1678983722338" lon="8.104231052671548"><ele>1012.0</ele><time>2026-04-16T13:01:40.989Z</time></trkpt><trkpt lat="44.16790574417349" lon="8.104112988788186"><ele>1012.0</ele><time>2026-04-16T13:01:41.989Z</time></trkpt><trkpt lat="44.167925536614284" lon="8.103987456973154"><ele>1012.0</ele><time>2026-04-16T13:01:42.989Z</time></trkpt><trkpt lat="44.16795318981842" lon="8.103872564064094"><ele>1011.9999999999999</ele><time>2026-04-16T13:01:43.989Z</time></trkpt><trkpt lat="44.16798891655355" lon="8.103763174299857"><ele>1012.0</ele><time>2026-04-16T13:01:44.989Z</time></trkpt><trkpt lat="44.16802746246956" lon="8.103633776430177"><ele>1010.4000000000001</ele><time>2026-04-16T13:01:45.99Z</time></trkpt><trkpt lat="44.168076453206766" lon="8.103523859959909"><ele>1008.8000000000001</ele><time>2026-04-16T13:01:46.99Z</time></trkpt><trkpt lat="44.16812987894151" lon="8.103405011418491"><ele>1007.2</ele><time>2026-04-16T13:01:47.99Z</time></trkpt><trkpt lat="44.168188283943024" lon="8.103294170968681"><ele>1005.6</ele><time>2026-04-16T13:01:48.99Z</time></trkpt><trkpt lat="44.16822847494289" lon="8.103189731257766"><ele>1004.0</ele><time>2026-04-16T13:01:49.99Z</time></trkpt><trkpt lat="44.16825333439716" lon="8.103079508251305"><ele>1009.1666666666667</ele><time>2026-04-16T13:01:50.99Z</time></trkpt><trkpt lat="44.168280303247" lon="8.10299039867188"><ele>1014.3333333333334</ele><time>2026-04-16T13:01:51.99Z</time></trkpt><trkpt lat="44.168324342184455" lon="8.102890809088956"><ele>1019.5</ele><time>2026-04-16T13:01:52.99Z</time></trkpt><trkpt lat="44.168378576381706" lon="8.102793452199919"><ele>1024.6666666666667</ele><time>2026-04-16T13:01:53.99Z</time></trkpt><trkpt lat="44.16843867619215" lon="8.102701669272262"><ele>1029.8333333333333</ele><time>2026-04-16T13:01:54.99Z</time></trkpt><trkpt lat="44.16850380291451" lon="8.10262462809383"><ele>1035.0</ele><time>2026-04-16T13:01:55.99Z</time></trkpt><trkpt lat="44.16856628915" lon="8.102565854703085"><ele>1035.0</ele><time>2026-04-16T13:01:56.99Z</time></trkpt><trkpt lat="44.168621385040396" lon="8.10250536115288"><ele>1035.0</ele><time>2026-04-16T13:01:57.99Z</time></trkpt><trkpt lat="44.168671727530274" lon="8.102429626520818"><ele>1035.0</ele><time>2026-04-16T13:01:58.99Z</time></trkpt><trkpt lat="44.1687172502769" lon="8.102324776289626"><ele>1035.0</ele><time>2026-04-16T13:01:59.99Z</time></trkpt><trkpt lat="44.168753717676736" lon="8.102230130005696"><ele>1035.0</ele><time>2026-04-16T13:02:00.99Z</time></trkpt><trkpt lat="44.16878261101946" lon="8.102139562106833"><ele>1035.0</ele><time>2026-04-16T13:02:01.99Z</time></trkpt><trkpt lat="44.168807449819894" lon="8.102030135531535"><ele>1037.4</ele><time>2026-04-16T13:02:02.99Z</time></trkpt><trkpt lat="44.16882144778408" lon="8.101892082276544"><ele>1039.8</ele><time>2026-04-16T13:02:03.99Z</time></trkpt><trkpt lat="44.16884546271637" lon="8.10175771692403"><ele>1042.2</ele><time>2026-04-16T13:02:04.99Z</time></trkpt><trkpt lat="44.16886393077826" lon="8.101628579159732"><ele>1044.6</ele><time>2026-04-16T13:02:05.99Z</time></trkpt><trkpt lat="44.168885319551656" lon="8.101494991946641"><ele>1047.0</ele><time>2026-04-16T13:02:06.99Z</time></trkpt><trkpt lat="44.16892162132017" lon="8.101379020753106"><ele>1047.6</ele><time>2026-04-16T13:02:07.99Z</time></trkpt><trkpt lat="44.168957999313676" lon="8.101254424391797"><ele>1048.2</ele><time>2026-04-16T13:02:08.99Z</time></trkpt><trkpt lat="44.16899963142423" lon="8.101131255993305"><ele>1048.8</ele><time>2026-04-16T13:02:09.99Z</time></trkpt><trkpt lat="44.16904499235837" lon="8.10102194116658"><ele>1049.4</ele><time>2026-04-16T13:02:10.99Z</time></trkpt><trkpt lat="44.16910556553147" lon="8.100929395376856"><ele>1050.0</ele><time>2026-04-16T13:02:11.99Z</time></trkpt><trkpt lat="44.169153819300284" lon="8.100819762456371"><ele>1050.6</ele><time>2026-04-16T13:02:12.99Z</time></trkpt><trkpt lat="44.16919123265442" lon="8.10068655841924"><ele>1051.2</ele><time>2026-04-16T13:02:13.99Z</time></trkpt><trkpt lat="44.16922124070618" lon="8.100563839977283"><ele>1051.8</ele><time>2026-04-16T13:02:14.99Z</time></trkpt><trkpt lat="44.16923861516409" lon="8.10044052154444"><ele>1052.4</ele><time>2026-04-16T13:02:15.99Z</time></trkpt><trkpt lat="44.16924786363386" lon="8.100321184334463"><ele>1053.0</ele><time>2026-04-16T13:02:16.99Z</time></trkpt><trkpt lat="44.169252066687214" lon="8.100193197140811"><ele>1053.0</ele><time>2026-04-16T13:02:17.99Z</time></trkpt><trkpt lat="44.169267667055685" lon="8.100059754876176"><ele>1053.0</ele><time>2026-04-16T13:02:18.99Z</time></trkpt><trkpt lat="44.16930126098098" lon="8.099961728133263"><ele>1053.0</ele><time>2026-04-16T13:02:19.99Z</time></trkpt><trkpt lat="44.169326950938675" lon="8.099863904961559"><ele>1053.0</ele><time>2026-04-16T13:02:20.99Z</time></trkpt><trkpt lat="44.169351942489726" lon="8.099749738490425"><ele>1053.0</ele><time>2026-04-16T13:02:21.99Z</time></trkpt><trkpt lat="44.169392205925206" lon="8.099646636866362"><ele>1053.0</ele><time>2026-04-16T13:02:22.99Z</time></trkpt><trkpt lat="44.16944914283824" lon="8.09953267791843"><ele>1054.0</ele><time>2026-04-16T13:02:23.99Z</time></trkpt><trkpt lat="44.16950085108864" lon="8.099396785253267"><ele>1055.0</ele><time>2026-04-16T13:02:24.99Z</time></trkpt><trkpt lat="44.16955524680332" lon="8.09928679968974"><ele>1056.0</ele><time>2026-04-16T13:02:25.99Z</time></trkpt><trkpt lat="44.16961657533658" lon="8.099163662367292"><ele>1057.0</ele><time>2026-04-16T13:02:26.99Z</time></trkpt><trkpt lat="44.16967738818635" lon="8.099030684663164"><ele>1058.0</ele><time>2026-04-16T13:02:27.99Z</time></trkpt><trkpt lat="44.169732507649655" lon="8.098909416562979"><ele>1055.0</ele><time>2026-04-16T13:02:28.99Z</time></trkpt><trkpt lat="44.169774441870906" lon="8.098746585371245"><ele>1052.0</ele><time>2026-04-16T13:02:29.99Z</time></trkpt><trkpt lat="44.16980383771184" lon="8.09856578093707"><ele>1049.0</ele><time>2026-04-16T13:02:30.99Z</time></trkpt><trkpt lat="44.16982501411074" lon="8.098388934200099"><ele>1046.0</ele><time>2026-04-16T13:02:31.99Z</time></trkpt><trkpt lat="44.16985681828378" lon="8.098208271448577"><ele>1049.0</ele><time>2026-04-16T13:02:32.99Z</time></trkpt><trkpt lat="44.169868486426054" lon="8.098035147871508"><ele>1052.0</ele><time>2026-04-16T13:02:33.99Z</time></trkpt><trkpt lat="44.16989425037135" lon="8.097884490703793"><ele>1055.0</ele><time>2026-04-16T13:02:34.99Z</time></trkpt><trkpt lat="44.16992755474662" lon="8.097746172943335"><ele>1058.0</ele><time>2026-04-16T13:02:35.99Z</time></trkpt><trkpt lat="44.16994935063269" lon="8.097599503095559"><ele>1061.0</ele><time>2026-04-16T13:02:36.99Z</time></trkpt><trkpt lat="44.16997543502474" lon="8.097479374007804"><ele>1062.0</ele><time>2026-04-16T13:02:37.99Z</time></trkpt><trkpt lat="44.17001123980139" lon="8.097341292567437"><ele>1063.0</ele><time>2026-04-16T13:02:38.99Z</time></trkpt><trkpt lat="44.170028690484074" lon="8.097190244519123"><ele>1064.0</ele><time>2026-04-16T13:02:39.99Z</time></trkpt><trkpt lat="44.1700511754028" lon="8.097022903415406"><ele>1065.0</ele><time>2026-04-16T13:02:40.99Z</time></trkpt><trkpt lat="44.1700648009854" lon="8.096859400291098"><ele>1065.0</ele><time>2026-04-16T13:02:41.99Z</time></trkpt><trkpt lat="44.17009540794584" lon="8.096700483026849"><ele>1065.0</ele><time>2026-04-16T13:02:42.99Z</time></trkpt><trkpt lat="44.1701059951497" lon="8.096539270523264"><ele>1065.0</ele><time>2026-04-16T13:02:43.99Z</time></trkpt><trkpt lat="44.17012427826685" lon="8.096400932356358"><ele>1065.0</ele><time>2026-04-16T13:02:44.99Z</time></trkpt><trkpt lat="44.17017816164918" lon="8.096273644952246"><ele>1065.0</ele><time>2026-04-16T13:02:45.99Z</time></trkpt><trkpt lat="44.170242737477" lon="8.096161013823018"><ele>1064.4</ele><time>2026-04-16T13:02:46.99Z</time></trkpt><trkpt lat="44.1703076288784" lon="8.09606359951611"><ele>1063.8</ele><time>2026-04-16T13:02:47.99Z</time></trkpt><trkpt lat="44.1703646434163" lon="8.095955365874225"><ele>1063.2</ele><time>2026-04-16T13:02:48.99Z</time></trkpt><trkpt lat="44.17041896823105" lon="8.095846193775527"><ele>1062.6</ele><time>2026-04-16T13:02:49.99Z</time></trkpt><trkpt lat="44.170468801673785" lon="8.095738562882751"><ele>1062.0</ele><time>2026-04-16T13:02:50.99Z</time></trkpt><trkpt lat="44.17051368118529" lon="8.095635240899526"><ele>1061.8333333333333</ele><time>2026-04-16T13:02:51.99Z</time></trkpt><trkpt lat="44.17055939676661" lon="8.09553936560124"><ele>1061.6666666666667</ele><time>2026-04-16T13:02:52.99Z</time></trkpt><trkpt lat="44.170607508010036" lon="8.09544993781756"><ele>1061.5</ele><time>2026-04-16T13:02:53.99Z</time></trkpt><trkpt lat="44.170655464966295" lon="8.095371512385006"><ele>1061.3333333333335</ele><time>2026-04-16T13:02:54.99Z</time></trkpt><trkpt lat="44.170698565243896" lon="8.095305829344234"><ele>1061.1666666666667</ele><time>2026-04-16T13:02:55.99Z</time></trkpt><trkpt lat="44.1707500196661" lon="8.095223692923229"><ele>1061.0</ele><time>2026-04-16T13:02:56.99Z</time></trkpt><trkpt lat="44.17081540319204" lon="8.095094040580543"><ele>1061.3999999999999</ele><time>2026-04-16T13:02:58.99Z</time></trkpt><trkpt lat="44.170846357886944" lon="8.094989828899738"><ele>1061.8</ele><time>2026-04-16T13:03:00.99Z</time></trkpt><trkpt lat="44.17090066129273" lon="8.094884261652036"><ele>1062.1999999999998</ele><time>2026-04-16T13:03:02.99Z</time></trkpt><trkpt lat="44.17097534493955" lon="8.094805610485686"><ele>1062.6</ele><time>2026-04-16T13:03:04.99Z</time></trkpt><trkpt lat="44.171064320551885" lon="8.09475656013293"><ele>1063.0</ele><time>2026-04-16T13:03:06.99Z</time></trkpt><trkpt lat="44.17114495411488" lon="8.09469756150992"><ele>1063.0</ele><time>2026-04-16T13:03:08.99Z</time></trkpt><trkpt lat="44.17125241166552" lon="8.09464869455203"><ele>1063.0</ele><time>2026-04-16T13:03:10.99Z</time></trkpt><trkpt lat="44.17137508481127" lon="8.094577939376077"><ele>1063.0</ele><time>2026-04-16T13:03:12.99Z</time></trkpt><trkpt lat="44.17144729673991" lon="8.094557881667626"><ele>1063.0</ele><time>2026-04-16T13:03:13.99Z</time></trkpt><trkpt lat="44.17150933440952" lon="8.094533853182979"><ele>1063.0</ele><time>2026-04-16T13:03:14.99Z</time></trkpt><trkpt lat="44.171626934102036" lon="8.094445156105351"><ele>1063.8333333333333</ele><time>2026-04-16T13:03:16.99Z</time></trkpt><trkpt lat="44.17169565483746" lon="8.094420191420616"><ele>1064.6666666666665</ele><time>2026-04-16T13:03:17.99Z</time></trkpt><trkpt lat="44.17178437668363" lon="8.094407460950805"><ele>1065.5</ele><time>2026-04-16T13:03:18.99Z</time></trkpt><trkpt lat="44.171886201387565" lon="8.094398279966565"><ele>1066.3333333333333</ele><time>2026-04-16T13:03:19.99Z</time></trkpt><trkpt lat="44.171968177860364" lon="8.094371194985676"><ele>1067.1666666666667</ele><time>2026-04-16T13:03:20.99Z</time></trkpt><trkpt lat="44.17205943014795" lon="8.094312598795296"><ele>1068.0</ele><time>2026-04-16T13:03:21.99Z</time></trkpt><trkpt lat="44.172150673621616" lon="8.094255391610757"><ele>1068.0</ele><time>2026-04-16T13:03:22.99Z</time></trkpt><trkpt lat="44.172233066293614" lon="8.094217472081072"><ele>1068.0</ele><time>2026-04-16T13:03:23.99Z</time></trkpt><trkpt lat="44.17232111058357" lon="8.094192761511318"><ele>1068.0</ele><time>2026-04-16T13:03:24.99Z</time></trkpt><trkpt lat="44.172411299055646" lon="8.094168682725485"><ele>1068.0</ele><time>2026-04-16T13:03:25.99Z</time></trkpt><trkpt lat="44.17248277642067" lon="8.094166236566863"><ele>1068.0</ele><time>2026-04-16T13:03:26.99Z</time></trkpt><trkpt lat="44.17260332274761" lon="8.09416627379294"><ele>1069.2</ele><time>2026-04-16T13:03:28.99Z</time></trkpt><trkpt lat="44.1726959006672" lon="8.094091948187"><ele>1070.4</ele><time>2026-04-16T13:03:30.99Z</time></trkpt><trkpt lat="44.172757777131224" lon="8.093991978078524"><ele>1071.6000000000001</ele><time>2026-04-16T13:03:32.99Z</time></trkpt><trkpt lat="44.17283988091904" lon="8.093908007747338"><ele>1072.8</ele><time>2026-04-16T13:03:34.99Z</time></trkpt><trkpt lat="44.172905842485" lon="8.09378861654636"><ele>1074.0</ele><time>2026-04-16T13:03:36.99Z</time></trkpt><trkpt lat="44.17295588087742" lon="8.09373395552659"><ele>1070.4</ele><time>2026-04-16T13:03:37.99Z</time></trkpt><trkpt lat="44.17307401904248" lon="8.093648819073158"><ele>1066.8000000000002</ele><time>2026-04-16T13:03:39.988Z</time></trkpt><trkpt lat="44.173140351020166" lon="8.093589732510022"><ele>1063.1999999999998</ele><time>2026-04-16T13:03:40.988Z</time></trkpt><trkpt lat="44.173204679417864" lon="8.093559848887585"><ele>1059.6</ele><time>2026-04-16T13:03:41.989Z</time></trkpt><trkpt lat="44.173284407907026" lon="8.09351411328559"><ele>1056.0</ele><time>2026-04-16T13:03:42.989Z</time></trkpt><trkpt lat="44.17338194324389" lon="8.093495180965633"><ele>1056.0</ele><time>2026-04-16T13:03:43.989Z</time></trkpt><trkpt lat="44.173465930090124" lon="8.09348422168146"><ele>1056.0</ele><time>2026-04-16T13:03:44.989Z</time></trkpt><trkpt lat="44.17355242073489" lon="8.093451365790038"><ele>1056.0</ele><time>2026-04-16T13:03:45.988Z</time></trkpt><trkpt lat="44.17364244690834" lon="8.093396863505545"><ele>1056.0</ele><time>2026-04-16T13:03:46.988Z</time></trkpt><trkpt lat="44.17373246595437" lon="8.093348292259485"><ele>1056.0</ele><time>2026-04-16T13:03:47.989Z</time></trkpt><trkpt lat="44.17382122016932" lon="8.093287937107865"><ele>1052.1666666666667</ele><time>2026-04-16T13:03:48.989Z</time></trkpt><trkpt lat="44.17390069273888" lon="8.093238401481697"><ele>1048.3333333333333</ele><time>2026-04-16T13:03:49.989Z</time></trkpt><trkpt lat="44.1739748472321" lon="8.093208845096916"><ele>1044.5</ele><time>2026-04-16T13:03:50.988Z</time></trkpt><trkpt lat="44.17405365139052" lon="8.093184355576795"><ele>1040.6666666666665</ele><time>2026-04-16T13:03:51.988Z</time></trkpt><trkpt lat="44.17411901101323" lon="8.093152213896623"><ele>1036.8333333333333</ele><time>2026-04-16T13:03:52.988Z</time></trkpt><trkpt lat="44.17419842988251" lon="8.093136393830761"><ele>1033.0</ele><time>2026-04-16T13:03:54.988Z</time></trkpt><trkpt lat="44.1742598843642" lon="8.093159697686596"><ele>1033.0</ele><time>2026-04-16T13:03:56.988Z</time></trkpt><trkpt lat="44.17433789329554" lon="8.093134746665566"><ele>1033.0</ele><time>2026-04-16T13:03:58.988Z</time></trkpt><trkpt lat="44.174418035687815" lon="8.093025381362816"><ele>1033.0</ele><time>2026-04-16T13:04:00.988Z</time></trkpt><trkpt lat="44.174437606542014" lon="8.092892573885802"><ele>1033.0</ele><time>2026-04-16T13:04:02.988Z</time></trkpt><trkpt lat="44.17450327178773" lon="8.0927553090219"><ele>1033.0</ele><time>2026-04-16T13:04:04.988Z</time></trkpt><trkpt lat="44.17457642798418" lon="8.092682806555908"><ele>1033.0</ele><time>2026-04-16T13:04:05.988Z</time></trkpt><trkpt lat="44.17465895452258" lon="8.092620206632038"><ele>1033.0</ele><time>2026-04-16T13:04:06.988Z</time></trkpt><trkpt lat="44.174749879835325" lon="8.09258906549883"><ele>1033.0</ele><time>2026-04-16T13:04:07.988Z</time></trkpt><trkpt lat="44.174844065281015" lon="8.09253507552124"><ele>1033.0</ele><time>2026-04-16T13:04:08.988Z</time></trkpt><trkpt lat="44.17491199814165" lon="8.092489287339294"><ele>1033.0</ele><time>2026-04-16T13:04:09.988Z</time></trkpt><trkpt lat="44.17498472529037" lon="8.092439323347522"><ele>1033.0</ele><time>2026-04-16T13:04:10.988Z</time></trkpt><trkpt lat="44.17506217614402" lon="8.092407826332446"><ele>1031.8333333333333</ele><time>2026-04-16T13:04:11.988Z</time></trkpt><trkpt lat="44.175157581578944" lon="8.092393665344195"><ele>1030.6666666666665</ele><time>2026-04-16T13:04:13.988Z</time></trkpt><trkpt lat="44.17518656679156" lon="8.092294155609105"><ele>1029.5</ele><time>2026-04-16T13:04:15.988Z</time></trkpt><trkpt lat="44.17518749006228" lon="8.09220434978685"><ele>1028.3333333333333</ele><time>2026-04-16T13:04:16.988Z</time></trkpt><trkpt lat="44.17517719619005" lon="8.092093671886621"><ele>1027.1666666666667</ele><time>2026-04-16T13:04:17.988Z</time></trkpt><trkpt lat="44.17514549794697" lon="8.091978526812952"><ele>1026.0</ele><time>2026-04-16T13:04:18.988Z</time></trkpt><trkpt lat="44.1751228500864" lon="8.0918605877627"><ele>1026.0</ele><time>2026-04-16T13:04:19.988Z</time></trkpt><trkpt lat="44.17510094754569" lon="8.09172869462288"><ele>1026.0</ele><time>2026-04-16T13:04:20.988Z</time></trkpt><trkpt lat="44.17508893703319" lon="8.09161076525483"><ele>1026.0</ele><time>2026-04-16T13:04:21.988Z</time></trkpt><trkpt lat="44.1750876150304" lon="8.091500962803986"><ele>1026.0</ele><time>2026-04-16T13:04:22.988Z</time></trkpt><trkpt lat="44.175093442333164" lon="8.091389770425101"><ele>1026.0</ele><time>2026-04-16T13:04:23.988Z</time></trkpt><trkpt lat="44.17510112890338" lon="8.091267460162436"><ele>1026.0</ele><time>2026-04-16T13:04:24.988Z</time></trkpt><trkpt lat="44.17510814872188" lon="8.091151790031525"><ele>1025.0</ele><time>2026-04-16T13:04:25.988Z</time></trkpt><trkpt lat="44.17511876220937" lon="8.091036614148909"><ele>1023.9999999999999</ele><time>2026-04-16T13:04:26.988Z</time></trkpt><trkpt lat="44.17512567323959" lon="8.090911111354584"><ele>1022.9999999999999</ele><time>2026-04-16T13:04:27.988Z</time></trkpt><trkpt lat="44.17514251861841" lon="8.090763850247864"><ele>1022.0</ele><time>2026-04-16T13:04:28.988Z</time></trkpt><trkpt lat="44.17517401464227" lon="8.090611566455893"><ele>1021.0</ele><time>2026-04-16T13:04:29.988Z</time></trkpt><trkpt lat="44.17520770797581" lon="8.090445373849766"><ele>1021.0</ele><time>2026-04-16T13:04:30.988Z</time></trkpt><trkpt lat="44.17524123057229" lon="8.090298004786872"><ele>1020.9999999999999</ele><time>2026-04-16T13:04:31.988Z</time></trkpt><trkpt lat="44.175272033932394" lon="8.090158946136333"><ele>1020.9999999999999</ele><time>2026-04-16T13:04:32.988Z</time></trkpt><trkpt lat="44.17530712781953" lon="8.090014232266428"><ele>1021.0</ele><time>2026-04-16T13:04:33.988Z</time></trkpt><trkpt lat="44.17533884553708" lon="8.089882357069207"><ele>1021.0</ele><time>2026-04-16T13:04:34.988Z</time></trkpt><trkpt lat="44.17535225311953" lon="8.089747741158643"><ele>1019.9999999999999</ele><time>2026-04-16T13:04:35.988Z</time></trkpt><trkpt lat="44.17535893544902" lon="8.089622283597647"><ele>1019.0</ele><time>2026-04-16T13:04:36.988Z</time></trkpt><trkpt lat="44.17534240360577" lon="8.089497219206033"><ele>1018.0</ele><time>2026-04-16T13:04:37.988Z</time></trkpt><trkpt lat="44.17530987709767" lon="8.089388577664147"><ele>1017.0</ele><time>2026-04-16T13:04:38.988Z</time></trkpt><trkpt lat="44.175287321986104" lon="8.08929251881565"><ele>1015.9999999999999</ele><time>2026-04-16T13:04:39.988Z</time></trkpt><trkpt lat="44.1752801906383" lon="8.08919456998687"><ele>1015.0</ele><time>2026-04-16T13:04:40.988Z</time></trkpt><trkpt lat="44.17532070683385" lon="8.08901238363166"><ele>1014.1666666666666</ele><time>2026-04-16T13:04:42.988Z</time></trkpt><trkpt lat="44.175362777382375" lon="8.088917273717032"><ele>1013.3333333333333</ele><time>2026-04-16T13:04:43.988Z</time></trkpt><trkpt lat="44.1754173243515" lon="8.088808393413391"><ele>1012.5</ele><time>2026-04-16T13:04:44.988Z</time></trkpt><trkpt lat="44.175453462181906" lon="8.08870656274447"><ele>1011.6666666666667</ele><time>2026-04-16T13:04:45.988Z</time></trkpt><trkpt lat="44.17546914509485" lon="8.088601887348624"><ele>1010.8333333333334</ele><time>2026-04-16T13:04:46.988Z</time></trkpt><trkpt lat="44.175447216097396" lon="8.088492287403495"><ele>1010.0</ele><time>2026-04-16T13:04:47.988Z</time></trkpt><trkpt lat="44.175419527095585" lon="8.088369077717493"><ele>1008.1666666666667</ele><time>2026-04-16T13:04:48.988Z</time></trkpt><trkpt lat="44.17540461394409" lon="8.088225462100835"><ele>1006.3333333333334</ele><time>2026-04-16T13:04:49.988Z</time></trkpt><trkpt lat="44.175416374131466" lon="8.088121549488024"><ele>1004.5</ele><time>2026-04-16T13:04:50.988Z</time></trkpt><trkpt lat="44.17544887331244" lon="8.08801577931286"><ele>1002.6666666666667</ele><time>2026-04-16T13:04:51.988Z</time></trkpt><trkpt lat="44.175494515532606" lon="8.087920924185969"><ele>1000.8333333333334</ele><time>2026-04-16T13:04:52.988Z</time></trkpt><trkpt lat="44.17554919242997" lon="8.087835702685078"><ele>999.0</ele><time>2026-04-16T13:04:53.988Z</time></trkpt><trkpt lat="44.175618939426634" lon="8.087728517131287"><ele>999.0</ele><time>2026-04-16T13:04:54.988Z</time></trkpt><trkpt lat="44.175679240018" lon="8.087613652610589"><ele>999.0</ele><time>2026-04-16T13:04:55.988Z</time></trkpt><trkpt lat="44.17572306093118" lon="8.087483382448523"><ele>999.0</ele><time>2026-04-16T13:04:56.988Z</time></trkpt><trkpt lat="44.17575414405952" lon="8.087314605499818"><ele>999.0</ele><time>2026-04-16T13:04:57.988Z</time></trkpt><trkpt lat="44.175794495513614" lon="8.08714960885439"><ele>1000.6</ele><time>2026-04-16T13:04:58.988Z</time></trkpt><trkpt lat="44.17582453805109" lon="8.08700383259294"><ele>1002.2</ele><time>2026-04-16T13:04:59.988Z</time></trkpt><trkpt lat="44.17585981772181" lon="8.08687680558352"><ele>1003.8000000000001</ele><time>2026-04-16T13:05:00.988Z</time></trkpt><trkpt lat="44.17589944470697" lon="8.08673336466014"><ele>1005.4000000000001</ele><time>2026-04-16T13:05:01.988Z</time></trkpt><trkpt lat="44.1759392293414" lon="8.086585209485554"><ele>1007.0</ele><time>2026-04-16T13:05:02.988Z</time></trkpt><trkpt lat="44.17597903749225" lon="8.086451224565044"><ele>1007.0</ele><time>2026-04-16T13:05:03.988Z</time></trkpt><trkpt lat="44.1760194025942" lon="8.086327863163824"><ele>1007.0</ele><time>2026-04-16T13:05:04.988Z</time></trkpt><trkpt lat="44.17606552883858" lon="8.086210672698295"><ele>1007.0</ele><time>2026-04-16T13:05:05.988Z</time></trkpt><trkpt lat="44.17611241540637" lon="8.086104007571317"><ele>1007.0</ele><time>2026-04-16T13:05:06.988Z</time></trkpt><trkpt lat="44.176165925013144" lon="8.085991242160288"><ele>1007.0</ele><time>2026-04-16T13:05:07.988Z</time></trkpt><trkpt lat="44.17621704498923" lon="8.085853849765407"><ele>1005.0</ele><time>2026-04-16T13:05:08.988Z</time></trkpt><trkpt lat="44.17627037261925" lon="8.085723860983848"><ele>1003.0</ele><time>2026-04-16T13:05:09.988Z</time></trkpt><trkpt lat="44.17631799808084" lon="8.08560184696239"><ele>1001.0</ele><time>2026-04-16T13:05:10.988Z</time></trkpt><trkpt lat="44.17635939602234" lon="8.085496483120007"><ele>999.0</ele><time>2026-04-16T13:05:11.988Z</time></trkpt><trkpt lat="44.17639141769237" lon="8.085393034025303"><ele>997.0</ele><time>2026-04-16T13:05:12.988Z</time></trkpt><trkpt lat="44.176402876244424" lon="8.085288029888778"><ele>997.0</ele><time>2026-04-16T13:05:13.988Z</time></trkpt><trkpt lat="44.17641751390503" lon="8.08515016246567"><ele>997.0</ele><time>2026-04-16T13:05:14.988Z</time></trkpt><trkpt lat="44.176437419700484" lon="8.085026953982716"><ele>997.0</ele><time>2026-04-16T13:05:15.988Z</time></trkpt><trkpt lat="44.176477104602434" lon="8.084930655521658"><ele>997.0</ele><time>2026-04-16T13:05:16.988Z</time></trkpt><trkpt lat="44.176529871876056" lon="8.084825214582176"><ele>997.0</ele><time>2026-04-16T13:05:17.988Z</time></trkpt><trkpt lat="44.17658995318543" lon="8.084715025257555"><ele>999.8333333333333</ele><time>2026-04-16T13:05:18.988Z</time></trkpt><trkpt lat="44.17664273548376" lon="8.084604758859715"><ele>1002.6666666666666</ele><time>2026-04-16T13:05:19.988Z</time></trkpt><trkpt lat="44.17667367082966" lon="8.084486585318416"><ele>1005.5</ele><time>2026-04-16T13:05:20.988Z</time></trkpt><trkpt lat="44.17668708667457" lon="8.084352565530656"><ele>1008.3333333333333</ele><time>2026-04-16T13:05:21.988Z</time></trkpt><trkpt lat="44.176713467347355" lon="8.084242871466689"><ele>1011.1666666666666</ele><time>2026-04-16T13:05:22.988Z</time></trkpt><trkpt lat="44.17674441091932" lon="8.084134101861164"><ele>1014.0</ele><time>2026-04-16T13:05:23.988Z</time></trkpt><trkpt lat="44.1767997120879" lon="8.084007255948944"><ele>1014.0</ele><time>2026-04-16T13:05:24.988Z</time></trkpt><trkpt lat="44.17684859673708" lon="8.083905437346825"><ele>1014.0</ele><time>2026-04-16T13:05:25.988Z</time></trkpt><trkpt lat="44.176882705002775" lon="8.083795799325982"><ele>1014.0</ele><time>2026-04-16T13:05:26.988Z</time></trkpt><trkpt lat="44.17688863036738" lon="8.083671939318059"><ele>1014.0</ele><time>2026-04-16T13:05:27.988Z</time></trkpt><trkpt lat="44.17688797576613" lon="8.083573543175218"><ele>1014.0</ele><time>2026-04-16T13:05:28.988Z</time></trkpt><trkpt lat="44.176870127888776" lon="8.083458278223878"><ele>1014.0</ele><time>2026-04-16T13:05:29.988Z</time></trkpt><trkpt lat="44.17684988213973" lon="8.083341430501426"><ele>1012.6666666666666</ele><time>2026-04-16T13:05:30.988Z</time></trkpt><trkpt lat="44.176854462896515" lon="8.083241930839783"><ele>1011.3333333333333</ele><time>2026-04-16T13:05:31.988Z</time></trkpt><trkpt lat="44.17688783036857" lon="8.08315315346316"><ele>1010.0</ele><time>2026-04-16T13:05:32.988Z</time></trkpt><trkpt lat="44.176925652521" lon="8.083052401435397"><ele>1008.6666666666666</ele><time>2026-04-16T13:05:33.988Z</time></trkpt><trkpt lat="44.17696462384474" lon="8.082926154870446"><ele>1007.3333333333333</ele><time>2026-04-16T13:05:34.988Z</time></trkpt><trkpt lat="44.17699691488326" lon="8.082791831874998"><ele>1006.0</ele><time>2026-04-16T13:05:35.988Z</time></trkpt><trkpt lat="44.177033313212014" lon="8.0826507502312"><ele>1006.0</ele><time>2026-04-16T13:05:36.988Z</time></trkpt><trkpt lat="44.177061419802186" lon="8.082513447341814"><ele>1005.9999999999999</ele><time>2026-04-16T13:05:37.988Z</time></trkpt><trkpt lat="44.17711176654496" lon="8.082393803014073"><ele>1005.9999999999999</ele><time>2026-04-16T13:05:38.988Z</time></trkpt><trkpt lat="44.177155137356685" lon="8.082282304626052"><ele>1006.0</ele><time>2026-04-16T13:05:39.988Z</time></trkpt><trkpt lat="44.17719648982364" lon="8.082183808534436"><ele>1006.0</ele><time>2026-04-16T13:05:40.988Z</time></trkpt><trkpt lat="44.17726259234853" lon="8.082022229259819"><ele>1004.6666666666666</ele><time>2026-04-16T13:05:42.988Z</time></trkpt><trkpt lat="44.17728930207727" lon="8.081913796756913"><ele>1003.3333333333333</ele><time>2026-04-16T13:05:43.988Z</time></trkpt><trkpt lat="44.17730859632757" lon="8.081812026916765"><ele>1002.0</ele><time>2026-04-16T13:05:44.988Z</time></trkpt><trkpt lat="44.17733106313232" lon="8.081709855281142"><ele>1000.6666666666667</ele><time>2026-04-16T13:05:45.987Z</time></trkpt><trkpt lat="44.17739359256025" lon="8.081635703984066"><ele>999.3333333333334</ele><time>2026-04-16T13:05:46.987Z</time></trkpt><trkpt lat="44.17745622487555" lon="8.081543296499962"><ele>998.0</ele><time>2026-04-16T13:05:47.988Z</time></trkpt><trkpt lat="44.17752976566937" lon="8.081442744058057"><ele>1002.8333333333334</ele><time>2026-04-16T13:05:48.988Z</time></trkpt><trkpt lat="44.17758248497058" lon="8.08133241598293"><ele>1007.6666666666667</ele><time>2026-04-16T13:05:49.988Z</time></trkpt><trkpt lat="44.17760211921923" lon="8.081230762397059"><ele>1012.5</ele><time>2026-04-16T13:05:50.988Z</time></trkpt><trkpt lat="44.177586898842186" lon="8.081099481867286"><ele>1017.3333333333333</ele><time>2026-04-16T13:05:51.988Z</time></trkpt><trkpt lat="44.17754103446053" lon="8.080985075645671"><ele>1022.1666666666666</ele><time>2026-04-16T13:05:52.988Z</time></trkpt><trkpt lat="44.17749485273381" lon="8.080895440594364"><ele>1027.0</ele><time>2026-04-16T13:05:53.988Z</time></trkpt><trkpt lat="44.177442712789144" lon="8.080764614084572"><ele>1027.3333333333333</ele><time>2026-04-16T13:05:54.988Z</time></trkpt><trkpt lat="44.17742902588417" lon="8.080647986054077"><ele>1027.6666666666665</ele><time>2026-04-16T13:05:55.988Z</time></trkpt><trkpt lat="44.17742205020679" lon="8.080516638044676"><ele>1028.0</ele><time>2026-04-16T13:05:56.987Z</time></trkpt><trkpt lat="44.177423323431235" lon="8.080395857754365"><ele>1028.3333333333333</ele><time>2026-04-16T13:05:57.987Z</time></trkpt><trkpt lat="44.17742266947297" lon="8.080275656342721"><ele>1028.6666666666667</ele><time>2026-04-16T13:05:58.987Z</time></trkpt><trkpt lat="44.177430617953696" lon="8.0801629090696"><ele>1029.0</ele><time>2026-04-16T13:05:59.987Z</time></trkpt><trkpt lat="44.177443070866225" lon="8.080058426711966"><ele>1029.0</ele><time>2026-04-16T13:06:00.987Z</time></trkpt><trkpt lat="44.177480345369716" lon="8.079965758271529"><ele>1029.0</ele><time>2026-04-16T13:06:01.987Z</time></trkpt><trkpt lat="44.177533102066946" lon="8.079851543746047"><ele>1029.0</ele><time>2026-04-16T13:06:02.987Z</time></trkpt><trkpt lat="44.17759734915784" lon="8.07971966996433"><ele>1029.0</ele><time>2026-04-16T13:06:03.987Z</time></trkpt><trkpt lat="44.17765252869687" lon="8.079592806092752"><ele>1029.0</ele><time>2026-04-16T13:06:04.987Z</time></trkpt><trkpt lat="44.177699076039815" lon="8.079465074869569"><ele>1028.6666666666667</ele><time>2026-04-16T13:06:05.987Z</time></trkpt><trkpt lat="44.17773138346791" lon="8.079335514170674"><ele>1028.3333333333333</ele><time>2026-04-16T13:06:06.987Z</time></trkpt><trkpt lat="44.177759555755664" lon="8.07922121352506"><ele>1028.0</ele><time>2026-04-16T13:06:07.987Z</time></trkpt><trkpt lat="44.17778998313602" lon="8.079120433075953"><ele>1027.6666666666665</ele><time>2026-04-16T13:06:08.987Z</time></trkpt><trkpt lat="44.177813398952644" lon="8.079010717949751"><ele>1027.3333333333333</ele><time>2026-04-16T13:06:09.987Z</time></trkpt><trkpt lat="44.17786063188514" lon="8.078920867135917"><ele>1027.0</ele><time>2026-04-16T13:06:10.987Z</time></trkpt><trkpt lat="44.17791473143028" lon="8.078850429317592"><ele>1027.4285714285716</ele><time>2026-04-16T13:06:11.987Z</time></trkpt><trkpt lat="44.1779716251321" lon="8.078803477006291"><ele>1027.857142857143</ele><time>2026-04-16T13:06:12.987Z</time></trkpt><trkpt lat="44.17803303354398" lon="8.078749647988914"><ele>1028.2857142857142</ele><time>2026-04-16T13:06:13.987Z</time></trkpt><trkpt lat="44.17810590790489" lon="8.07871815837982"><ele>1028.7142857142858</ele><time>2026-04-16T13:06:14.987Z</time></trkpt><trkpt lat="44.1781748464423" lon="8.078711526024671"><ele>1029.142857142857</ele><time>2026-04-16T13:06:15.987Z</time></trkpt><trkpt lat="44.17824987082878" lon="8.078729545980252"><ele>1029.5714285714287</ele><time>2026-04-16T13:06:16.987Z</time></trkpt><trkpt lat="44.178322808592085" lon="8.078749752725106"><ele>1030.0</ele><time>2026-04-16T13:06:17.987Z</time></trkpt><trkpt lat="44.178394112503376" lon="8.078780363893975"><ele>1030.0</ele><time>2026-04-16T13:06:18.987Z</time></trkpt><trkpt lat="44.178472778176264" lon="8.078794496508094"><ele>1030.0</ele><time>2026-04-16T13:06:19.987Z</time></trkpt><trkpt lat="44.17855059004439" lon="8.078802636852338"><ele>1030.0</ele><time>2026-04-16T13:06:20.987Z</time></trkpt><trkpt lat="44.17861540886292" lon="8.078800769465216"><ele>1030.0</ele><time>2026-04-16T13:06:21.987Z</time></trkpt><trkpt lat="44.17868523289225" lon="8.078754761613473"><ele>1030.0</ele><time>2026-04-16T13:06:22.987Z</time></trkpt><trkpt lat="44.178755240414844" lon="8.078706603652831"><ele>1030.0</ele><time>2026-04-16T13:06:23.987Z</time></trkpt><trkpt lat="44.178856338824225" lon="8.07864173463825"><ele>1030.0</ele><time>2026-04-16T13:06:24.987Z</time></trkpt><trkpt lat="44.17895393182038" lon="8.078589320506975"><ele>1030.0</ele><time>2026-04-16T13:06:25.987Z</time></trkpt><trkpt lat="44.17903243805598" lon="8.078568237074812"><ele>1030.0</ele><time>2026-04-16T13:06:26.987Z</time></trkpt><trkpt lat="44.17911825806247" lon="8.078542840458612"><ele>1030.0</ele><time>2026-04-16T13:06:27.987Z</time></trkpt><trkpt lat="44.17918455241395" lon="8.078489323013674"><ele>1030.0</ele><time>2026-04-16T13:06:28.987Z</time></trkpt><trkpt lat="44.17924116258718" lon="8.078389119690122"><ele>1030.0</ele><time>2026-04-16T13:06:29.987Z</time></trkpt><trkpt lat="44.17930774616817" lon="8.078291782294277"><ele>1029.6</ele><time>2026-04-16T13:06:30.987Z</time></trkpt><trkpt lat="44.17936924162167" lon="8.078245997548393"><ele>1029.2</ele><time>2026-04-16T13:06:31.987Z</time></trkpt><trkpt lat="44.17944284693118" lon="8.078214861975214"><ele>1028.8</ele><time>2026-04-16T13:06:32.987Z</time></trkpt><trkpt lat="44.17953153748039" lon="8.07818846869357"><ele>1028.4</ele><time>2026-04-16T13:06:33.987Z</time></trkpt><trkpt lat="44.17962088961968" lon="8.078176322881209"><ele>1028.0</ele><time>2026-04-16T13:06:34.987Z</time></trkpt><trkpt lat="44.179743019636035" lon="8.078152056488946"><ele>1028.0</ele><time>2026-04-16T13:06:36.987Z</time></trkpt><trkpt lat="44.17983338291012" lon="8.078108865118091"><ele>1028.0</ele><time>2026-04-16T13:06:37.987Z</time></trkpt><trkpt lat="44.179923148541114" lon="8.078052937393178"><ele>1028.0</ele><time>2026-04-16T13:06:38.987Z</time></trkpt><trkpt lat="44.18002251179198" lon="8.07796565308745"><ele>1028.0</ele><time>2026-04-16T13:06:39.987Z</time></trkpt><trkpt lat="44.18012619761509" lon="8.07789121510571"><ele>1028.0</ele><time>2026-04-16T13:06:40.987Z</time></trkpt><trkpt lat="44.18020718763072" lon="8.07780746778175"><ele>1032.2</ele><time>2026-04-16T13:06:41.987Z</time></trkpt><trkpt lat="44.1802793337276" lon="8.077754671144227"><ele>1036.4</ele><time>2026-04-16T13:06:42.987Z</time></trkpt><trkpt lat="44.18036260418339" lon="8.077710729390288"><ele>1040.6000000000001</ele><time>2026-04-16T13:06:43.987Z</time></trkpt><trkpt lat="44.18045551883705" lon="8.077654295050225"><ele>1044.8</ele><time>2026-04-16T13:06:44.987Z</time></trkpt><trkpt lat="44.180548128305055" lon="8.077607604850588"><ele>1049.0</ele><time>2026-04-16T13:06:45.987Z</time></trkpt><trkpt lat="44.180640324104296" lon="8.077590547857008"><ele>1052.4</ele><time>2026-04-16T13:06:46.987Z</time></trkpt><trkpt lat="44.180743659890794" lon="8.077570239845969"><ele>1055.8000000000002</ele><time>2026-04-16T13:06:47.987Z</time></trkpt><trkpt lat="44.18086048905332" lon="8.077555415648922"><ele>1059.1999999999998</ele><time>2026-04-16T13:06:48.987Z</time></trkpt><trkpt lat="44.1809777399349" lon="8.07753871709968"><ele>1062.6</ele><time>2026-04-16T13:06:49.987Z</time></trkpt><trkpt lat="44.18106801621533" lon="8.077514363746351"><ele>1066.0</ele><time>2026-04-16T13:06:50.987Z</time></trkpt><trkpt lat="44.18115360835084" lon="8.077479642761539"><ele>1066.0</ele><time>2026-04-16T13:06:51.987Z</time></trkpt><trkpt lat="44.18121832527908" lon="8.077440524286377"><ele>1066.0</ele><time>2026-04-16T13:06:52.987Z</time></trkpt><trkpt lat="44.18130249834394" lon="8.07739913051055"><ele>1066.0</ele><time>2026-04-16T13:06:53.987Z</time></trkpt><trkpt lat="44.181379965941694" lon="8.077347518558364"><ele>1066.0</ele><time>2026-04-16T13:06:54.987Z</time></trkpt><trkpt lat="44.18146769193621" lon="8.077283342931262"><ele>1066.0</ele><time>2026-04-16T13:06:55.987Z</time></trkpt><trkpt lat="44.18154162679946" lon="8.077216123380463"><ele>1066.0</ele><time>2026-04-16T13:06:56.987Z</time></trkpt><trkpt lat="44.18161439286146" lon="8.077186977173543"><ele>1066.3333333333333</ele><time>2026-04-16T13:06:57.987Z</time></trkpt><trkpt lat="44.181689762733086" lon="8.07714025171059"><ele>1066.6666666666665</ele><time>2026-04-16T13:06:58.987Z</time></trkpt><trkpt lat="44.181749697137825" lon="8.077050566081711"><ele>1067.0</ele><time>2026-04-16T13:06:59.987Z</time></trkpt><trkpt lat="44.1818035857168" lon="8.076960869972542"><ele>1067.3333333333333</ele><time>2026-04-16T13:07:00.987Z</time></trkpt><trkpt lat="44.18183653785684" lon="8.076840857521098"><ele>1067.6666666666667</ele><time>2026-04-16T13:07:01.987Z</time></trkpt><trkpt lat="44.181859051620656" lon="8.07672549034441"><ele>1068.0</ele><time>2026-04-16T13:07:02.987Z</time></trkpt><trkpt lat="44.181866702231815" lon="8.076615765717236"><ele>1067.3333333333333</ele><time>2026-04-16T13:07:03.987Z</time></trkpt><trkpt lat="44.181880657438256" lon="8.076511751240083"><ele>1066.6666666666667</ele><time>2026-04-16T13:07:04.987Z</time></trkpt><trkpt lat="44.18189868420615" lon="8.07640489048616"><ele>1066.0</ele><time>2026-04-16T13:07:05.987Z</time></trkpt><trkpt lat="44.18189803818773" lon="8.07628714032894"><ele>1065.3333333333335</ele><time>2026-04-16T13:07:06.987Z</time></trkpt><trkpt lat="44.18187962001047" lon="8.076171776851634"><ele>1064.6666666666667</ele><time>2026-04-16T13:07:07.987Z</time></trkpt><trkpt lat="44.18186172162488" lon="8.076055091022921"><ele>1064.0</ele><time>2026-04-16T13:07:08.987Z</time></trkpt><trkpt lat="44.18184680086621" lon="8.075948547582003"><ele>1064.0</ele><time>2026-04-16T13:07:09.987Z</time></trkpt><trkpt lat="44.18185431583266" lon="8.075825842460482"><ele>1064.0</ele><time>2026-04-16T13:07:10.987Z</time></trkpt><trkpt lat="44.18190028653358" lon="8.07566011925225"><ele>1064.0</ele><time>2026-04-16T13:07:12.987Z</time></trkpt><trkpt lat="44.18193867816545" lon="8.075578572315427"><ele>1064.0</ele><time>2026-04-16T13:07:13.987Z</time></trkpt><trkpt lat="44.182018678842894" lon="8.075464156856263"><ele>1064.0</ele><time>2026-04-16T13:07:15.987Z</time></trkpt><trkpt lat="44.18207098097248" lon="8.075400862653447"><ele>1062.5</ele><time>2026-04-16T13:07:16.987Z</time></trkpt><trkpt lat="44.18210993330133" lon="8.075322541245546"><ele>1061.0</ele><time>2026-04-16T13:07:17.987Z</time></trkpt><trkpt lat="44.18215171689729" lon="8.075233135168098"><ele>1059.5</ele><time>2026-04-16T13:07:18.987Z</time></trkpt><trkpt lat="44.18221409034903" lon="8.075135757949235"><ele>1058.0</ele><time>2026-04-16T13:07:19.987Z</time></trkpt><trkpt lat="44.18225682413864" lon="8.075027071226026"><ele>1056.5</ele><time>2026-04-16T13:07:20.987Z</time></trkpt><trkpt lat="44.182304081290965" lon="8.074945845842674"><ele>1055.0</ele><time>2026-04-16T13:07:21.987Z</time></trkpt><trkpt lat="44.18237263433852" lon="8.074825582860264"><ele>1059.0</ele><time>2026-04-16T13:07:23.987Z</time></trkpt><trkpt lat="44.182403596419675" lon="8.074742523153029"><ele>1063.0</ele><time>2026-04-16T13:07:24.987Z</time></trkpt><trkpt lat="44.1824815183534" lon="8.074624818550177"><ele>1067.0</ele><time>2026-04-16T13:07:26.987Z</time></trkpt><trkpt lat="44.18252066292991" lon="8.074518421641491"><ele>1071.0</ele><time>2026-04-16T13:07:27.987Z</time></trkpt><trkpt lat="44.182558052771576" lon="8.074410440264414"><ele>1075.0</ele><time>2026-04-16T13:07:28.987Z</time></trkpt><trkpt lat="44.18260189242945" lon="8.07433054506988"><ele>1079.0</ele><time>2026-04-16T13:07:29.987Z</time></trkpt><trkpt lat="44.18264466821766" lon="8.074233230112318"><ele>1079.0</ele><time>2026-04-16T13:07:30.987Z</time></trkpt><trkpt lat="44.182685335784406" lon="8.074163904282788"><ele>1079.0</ele><time>2026-04-16T13:07:31.987Z</time></trkpt><trkpt lat="44.18273450764179" lon="8.074108291230644"><ele>1079.0</ele><time>2026-04-16T13:07:32.987Z</time></trkpt><trkpt lat="44.1827881132665" lon="8.074031014612618"><ele>1079.0</ele><time>2026-04-16T13:07:33.987Z</time></trkpt><trkpt lat="44.18282265827244" lon="8.073879006717712"><ele>1079.0</ele><time>2026-04-16T13:07:34.987Z</time></trkpt><trkpt lat="44.182841167368046" lon="8.07372663278846"><ele>1079.0</ele><time>2026-04-16T13:07:35.987Z</time></trkpt><trkpt lat="44.182851815924835" lon="8.073609331126582"><ele>1077.3333333333335</ele><time>2026-04-16T13:07:36.987Z</time></trkpt><trkpt lat="44.18285409104776" lon="8.073506458236794"><ele>1075.6666666666667</ele><time>2026-04-16T13:07:37.987Z</time></trkpt><trkpt lat="44.18286841754605" lon="8.073375349902376"><ele>1074.0</ele><time>2026-04-16T13:07:38.987Z</time></trkpt><trkpt lat="44.18289611520445" lon="8.073263065176633"><ele>1072.3333333333333</ele><time>2026-04-16T13:07:39.987Z</time></trkpt><trkpt lat="44.182930262030766" lon="8.07318669241795"><ele>1070.6666666666665</ele><time>2026-04-16T13:07:40.987Z</time></trkpt><trkpt lat="44.18298230780076" lon="8.073040068141651"><ele>1069.0</ele><time>2026-04-16T13:07:42.987Z</time></trkpt><trkpt lat="44.18300519274242" lon="8.07293897012652"><ele>1069.3333333333333</ele><time>2026-04-16T13:07:43.987Z</time></trkpt><trkpt lat="44.1830194755218" lon="8.072831008010455"><ele>1069.6666666666665</ele><time>2026-04-16T13:07:44.987Z</time></trkpt><trkpt lat="44.18303389547919" lon="8.072727546445249"><ele>1070.0</ele><time>2026-04-16T13:07:45.987Z</time></trkpt><trkpt lat="44.18304031073373" lon="8.072599225007982"><ele>1070.3333333333333</ele><time>2026-04-16T13:07:46.987Z</time></trkpt><trkpt lat="44.18303400928694" lon="8.072482183119899"><ele>1070.6666666666667</ele><time>2026-04-16T13:07:47.987Z</time></trkpt><trkpt lat="44.183017376698515" lon="8.072360244063484"><ele>1071.0</ele><time>2026-04-16T13:07:48.987Z</time></trkpt><trkpt lat="44.18299246734564" lon="8.072231640908795"><ele>1071.0</ele><time>2026-04-16T13:07:49.987Z</time></trkpt><trkpt lat="44.182966051186575" lon="8.072115676273821"><ele>1071.0</ele><time>2026-04-16T13:07:50.987Z</time></trkpt><trkpt lat="44.18294682977553" lon="8.072010787391813"><ele>1071.0</ele><time>2026-04-16T13:07:51.987Z</time></trkpt><trkpt lat="44.18291317570577" lon="8.071897758921693"><ele>1071.0</ele><time>2026-04-16T13:07:52.987Z</time></trkpt><trkpt lat="44.18287193518393" lon="8.07179206805283"><ele>1071.0</ele><time>2026-04-16T13:07:53.987Z</time></trkpt><trkpt lat="44.18281593234748" lon="8.07170163408368"><ele>1071.0</ele><time>2026-04-16T13:07:54.987Z</time></trkpt><trkpt lat="44.18275056649121" lon="8.07165064753936"><ele>1072.6666666666667</ele><time>2026-04-16T13:07:55.987Z</time></trkpt><trkpt lat="44.182639407074994" lon="8.071548378949588"><ele>1074.3333333333333</ele><time>2026-04-16T13:07:57.987Z</time></trkpt><trkpt lat="44.18258203383318" lon="8.071471653036303"><ele>1076.0</ele><time>2026-04-16T13:07:58.987Z</time></trkpt><trkpt lat="44.182531959220505" lon="8.071383855748147"><ele>1077.6666666666665</ele><time>2026-04-16T13:07:59.987Z</time></trkpt><trkpt lat="44.18248324451573" lon="8.071310212361563"><ele>1079.3333333333333</ele><time>2026-04-16T13:08:00.987Z</time></trkpt><trkpt lat="44.18244065313805" lon="8.071234447141363"><ele>1081.0</ele><time>2026-04-16T13:08:01.987Z</time></trkpt><trkpt lat="44.1824000707478" lon="8.071146089868623"><ele>1081.0</ele><time>2026-04-16T13:08:02.987Z</time></trkpt><trkpt lat="44.18237368098688" lon="8.071040522240619"><ele>1081.0</ele><time>2026-04-16T13:08:03.987Z</time></trkpt><trkpt lat="44.18235266213303" lon="8.070919372259329"><ele>1081.0</ele><time>2026-04-16T13:08:04.987Z</time></trkpt><trkpt lat="44.1823460541273" lon="8.070788672394904"><ele>1081.0</ele><time>2026-04-16T13:08:05.987Z</time></trkpt><trkpt lat="44.18236157631545" lon="8.07066930578787"><ele>1081.0</ele><time>2026-04-16T13:08:06.987Z</time></trkpt><trkpt lat="44.18240530321972" lon="8.070562915987429"><ele>1081.0</ele><time>2026-04-16T13:08:07.987Z</time></trkpt><trkpt lat="44.18246518120006" lon="8.070464927120138"><ele>1078.8333333333333</ele><time>2026-04-16T13:08:08.987Z</time></trkpt><trkpt lat="44.18252760111842" lon="8.070368803250469"><ele>1076.6666666666665</ele><time>2026-04-16T13:08:09.987Z</time></trkpt><trkpt lat="44.18258715469265" lon="8.070275514597006"><ele>1074.5</ele><time>2026-04-16T13:08:10.987Z</time></trkpt><trkpt lat="44.182642731145" lon="8.070194136685933"><ele>1072.3333333333333</ele><time>2026-04-16T13:08:11.987Z</time></trkpt><trkpt lat="44.18269330077431" lon="8.070120179575044"><ele>1070.1666666666667</ele><time>2026-04-16T13:08:12.987Z</time></trkpt><trkpt lat="44.182739057083346" lon="8.070031602804455"><ele>1068.0</ele><time>2026-04-16T13:08:13.987Z</time></trkpt><trkpt lat="44.182771443813955" lon="8.069896406580272"><ele>1064.6666666666667</ele><time>2026-04-16T13:08:14.987Z</time></trkpt><trkpt lat="44.18279699994535" lon="8.069765295296758"><ele>1061.3333333333333</ele><time>2026-04-16T13:08:15.987Z</time></trkpt><trkpt lat="44.18282800339343" lon="8.069647725926847"><ele>1058.0</ele><time>2026-04-16T13:08:16.987Z</time></trkpt><trkpt lat="44.182860749258566" lon="8.06953429015427"><ele>1054.6666666666665</ele><time>2026-04-16T13:08:17.987Z</time></trkpt><trkpt lat="44.18288699477299" lon="8.069424524627307"><ele>1051.3333333333333</ele><time>2026-04-16T13:08:18.987Z</time></trkpt><trkpt lat="44.182914298753985" lon="8.069309699287084"><ele>1048.0</ele><time>2026-04-16T13:08:19.987Z</time></trkpt><trkpt lat="44.18294898826252" lon="8.069199552367488"><ele>1044.6666666666665</ele><time>2026-04-16T13:08:20.987Z</time></trkpt><trkpt lat="44.182987655502586" lon="8.069096416884632"><ele>1041.3333333333333</ele><time>2026-04-16T13:08:21.987Z</time></trkpt><trkpt lat="44.18302847852623" lon="8.068999093978231"><ele>1038.0</ele><time>2026-04-16T13:08:22.987Z</time></trkpt><trkpt lat="44.18307605439596" lon="8.06890558221196"><ele>1034.6666666666667</ele><time>2026-04-16T13:08:23.987Z</time></trkpt><trkpt lat="44.18313000366249" lon="8.068819269042631"><ele>1031.3333333333335</ele><time>2026-04-16T13:08:24.987Z</time></trkpt><trkpt lat="44.18317377280677" lon="8.06871985844514"><ele>1028.0</ele><time>2026-04-16T13:08:25.987Z</time></trkpt><trkpt lat="44.18321254234923" lon="8.068597853064746"><ele>1033.6</ele><time>2026-04-16T13:08:26.987Z</time></trkpt><trkpt lat="44.18324166602805" lon="8.068464867357193"><ele>1039.1999999999998</ele><time>2026-04-16T13:08:27.987Z</time></trkpt><trkpt lat="44.18325905792496" lon="8.068324363970117"><ele>1044.8</ele><time>2026-04-16T13:08:28.987Z</time></trkpt><trkpt lat="44.18328102528965" lon="8.068182781817137"><ele>1050.3999999999999</ele><time>2026-04-16T13:08:29.987Z</time></trkpt><trkpt lat="44.18331165303656" lon="8.068052236250429"><ele>1056.0</ele><time>2026-04-16T13:08:30.987Z</time></trkpt><trkpt lat="44.18335429428876" lon="8.067924132290898"><ele>1056.0</ele><time>2026-04-16T13:08:31.987Z</time></trkpt><trkpt lat="44.18339608554955" lon="8.067795565904756"><ele>1056.0</ele><time>2026-04-16T13:08:32.987Z</time></trkpt><trkpt lat="44.183447582602255" lon="8.06767077601309"><ele>1056.0</ele><time>2026-04-16T13:08:33.987Z</time></trkpt><trkpt lat="44.18350673512045" lon="8.067566594778228"><ele>1056.0</ele><time>2026-04-16T13:08:34.987Z</time></trkpt><trkpt lat="44.18357690795483" lon="8.067467370694962"><ele>1056.0</ele><time>2026-04-16T13:08:35.987Z</time></trkpt><trkpt lat="44.18363752484151" lon="8.067369735343643"><ele>1055.0</ele><time>2026-04-16T13:08:36.987Z</time></trkpt><trkpt lat="44.18366591420439" lon="8.067262463819281"><ele>1054.0</ele><time>2026-04-16T13:08:37.987Z</time></trkpt><trkpt lat="44.18366755218285" lon="8.067165211383374"><ele>1053.0</ele><time>2026-04-16T13:08:38.987Z</time></trkpt><trkpt lat="44.183645939290315" lon="8.067072414058531"><ele>1052.0</ele><time>2026-04-16T13:08:39.987Z</time></trkpt><trkpt lat="44.18359331452086" lon="8.066971405040984"><ele>1051.0</ele><time>2026-04-16T13:08:40.987Z</time></trkpt><trkpt lat="44.18354259551539" lon="8.06687055831"><ele>1050.0</ele><time>2026-04-16T13:08:41.987Z</time></trkpt><trkpt lat="44.18349398943081" lon="8.066768859137305"><ele>1050.0</ele><time>2026-04-16T13:08:42.987Z</time></trkpt><trkpt lat="44.18344706777253" lon="8.066679795757665"><ele>1050.0</ele><time>2026-04-16T13:08:43.987Z</time></trkpt><trkpt lat="44.18341160740765" lon="8.066586345716383"><ele>1050.0</ele><time>2026-04-16T13:08:44.987Z</time></trkpt><trkpt lat="44.18339612580484" lon="8.066482438889473"><ele>1050.0</ele><time>2026-04-16T13:08:45.987Z</time></trkpt><trkpt lat="44.18339529212139" lon="8.066367631792442"><ele>1050.0</ele><time>2026-04-16T13:08:46.987Z</time></trkpt><trkpt lat="44.18340835615337" lon="8.066256231270561"><ele>1050.0</ele><time>2026-04-16T13:08:47.987Z</time></trkpt><trkpt lat="44.18342097910424" lon="8.066152571783597"><ele>1051.3333333333333</ele><time>2026-04-16T13:08:48.987Z</time></trkpt><trkpt lat="44.18341525534674" lon="8.066059735985183"><ele>1052.6666666666667</ele><time>2026-04-16T13:08:49.987Z</time></trkpt><trkpt lat="44.183386923622244" lon="8.065951431351532"><ele>1054.0</ele><time>2026-04-16T13:08:50.987Z</time></trkpt><trkpt lat="44.18335523289794" lon="8.065831766759286"><ele>1055.3333333333335</ele><time>2026-04-16T13:08:51.987Z</time></trkpt><trkpt lat="44.18331769430024" lon="8.065711985147278"><ele>1056.6666666666667</ele><time>2026-04-16T13:08:52.987Z</time></trkpt><trkpt lat="44.18327732184132" lon="8.065593017656063"><ele>1058.0</ele><time>2026-04-16T13:08:53.987Z</time></trkpt><trkpt lat="44.18324229459938" lon="8.065479941396694"><ele>1060.0</ele><time>2026-04-16T13:08:54.987Z</time></trkpt><trkpt lat="44.183200530233336" lon="8.065378349627435"><ele>1062.0</ele><time>2026-04-16T13:08:55.987Z</time></trkpt><trkpt lat="44.18313848371992" lon="8.065297561337301"><ele>1064.0</ele><time>2026-04-16T13:08:56.987Z</time></trkpt><trkpt lat="44.18307526963321" lon="8.065222317417652"><ele>1066.0</ele><time>2026-04-16T13:08:57.987Z</time></trkpt><trkpt lat="44.18302089926283" lon="8.065158492727422"><ele>1068.0</ele><time>2026-04-16T13:08:58.987Z</time></trkpt><trkpt lat="44.1829325147314" lon="8.065043874327253"><ele>1070.0</ele><time>2026-04-16T13:09:00.987Z</time></trkpt><trkpt lat="44.1828904839568" lon="8.064977948117248"><ele>1065.8333333333335</ele><time>2026-04-16T13:09:01.987Z</time></trkpt><trkpt lat="44.182829438848" lon="8.064916791421284"><ele>1061.6666666666667</ele><time>2026-04-16T13:09:02.987Z</time></trkpt><trkpt lat="44.182753338925515" lon="8.064876880980625"><ele>1057.5</ele><time>2026-04-16T13:09:03.987Z</time></trkpt><trkpt lat="44.18267377570759" lon="8.064815507313657"><ele>1053.3333333333333</ele><time>2026-04-16T13:09:04.987Z</time></trkpt><trkpt lat="44.18260809622511" lon="8.064735836127829"><ele>1049.1666666666665</ele><time>2026-04-16T13:09:05.987Z</time></trkpt><trkpt lat="44.182550125794485" lon="8.064647585968505"><ele>1045.0</ele><time>2026-04-16T13:09:06.987Z</time></trkpt><trkpt lat="44.18249653934406" lon="8.064566192170618"><ele>1045.0</ele><time>2026-04-16T13:09:07.987Z</time></trkpt><trkpt lat="44.18245615668882" lon="8.064477073120026"><ele>1045.0</ele><time>2026-04-16T13:09:08.987Z</time></trkpt><trkpt lat="44.18241509217866" lon="8.064370880071818"><ele>1045.0</ele><time>2026-04-16T13:09:09.987Z</time></trkpt><trkpt lat="44.18236417779429" lon="8.064259069070365"><ele>1045.0</ele><time>2026-04-16T13:09:10.987Z</time></trkpt><trkpt lat="44.18230675192443" lon="8.064173326495519"><ele>1045.0</ele><time>2026-04-16T13:09:11.987Z</time></trkpt><trkpt lat="44.182245727797635" lon="8.064093088529775"><ele>1045.0</ele><time>2026-04-16T13:09:12.987Z</time></trkpt><trkpt lat="44.182198233181474" lon="8.06401462517936"><ele>1037.6</ele><time>2026-04-16T13:09:13.987Z</time></trkpt><trkpt lat="44.182153892760816" lon="8.063909900250865"><ele>1030.2</ele><time>2026-04-16T13:09:14.987Z</time></trkpt><trkpt lat="44.18211957706161" lon="8.063781949214947"><ele>1022.8</ele><time>2026-04-16T13:09:15.987Z</time></trkpt><trkpt lat="44.18210252666401" lon="8.063644207173425"><ele>1015.4</ele><time>2026-04-16T13:09:16.987Z</time></trkpt><trkpt lat="44.182090552107084" lon="8.063505258515853"><ele>1008.0</ele><time>2026-04-16T13:09:17.987Z</time></trkpt><trkpt lat="44.18208504608597" lon="8.063387522668508"><ele>1010.5999999999999</ele><time>2026-04-16T13:09:18.987Z</time></trkpt><trkpt lat="44.18206285342898" lon="8.063259416100035"><ele>1013.1999999999999</ele><time>2026-04-16T13:09:19.987Z</time></trkpt><trkpt lat="44.182036797175414" lon="8.063127961309458"><ele>1015.8</ele><time>2026-04-16T13:09:20.987Z</time></trkpt><trkpt lat="44.182009310541865" lon="8.06299225291253"><ele>1018.4</ele><time>2026-04-16T13:09:21.987Z</time></trkpt><trkpt lat="44.18196701164186" lon="8.06286611473238"><ele>1021.0</ele><time>2026-04-16T13:09:22.987Z</time></trkpt><trkpt lat="44.18190953380661" lon="8.062748154690661"><ele>1021.0</ele><time>2026-04-16T13:09:23.987Z</time></trkpt><trkpt lat="44.18184253319209" lon="8.06263427400863"><ele>1020.9999999999999</ele><time>2026-04-16T13:09:24.987Z</time></trkpt><trkpt lat="44.181774838542346" lon="8.062514769970624"><ele>1020.9999999999999</ele><time>2026-04-16T13:09:25.987Z</time></trkpt><trkpt lat="44.18171935219362" lon="8.062403486232265"><ele>1021.0</ele><time>2026-04-16T13:09:26.987Z</time></trkpt><trkpt lat="44.18167115708665" lon="8.062306634086323"><ele>1021.0</ele><time>2026-04-16T13:09:27.987Z</time></trkpt><trkpt lat="44.18158269360227" lon="8.062217409623074"><ele>1019.4</ele><time>2026-04-16T13:09:28.987Z</time></trkpt><trkpt lat="44.181495892713876" lon="8.062153294422163"><ele>1017.8</ele><time>2026-04-16T13:09:29.987Z</time></trkpt><trkpt lat="44.18139938729334" lon="8.062091400052097"><ele>1016.1999999999999</ele><time>2026-04-16T13:09:30.987Z</time></trkpt><trkpt lat="44.18131470860266" lon="8.062061529197235"><ele>1014.5999999999999</ele><time>2026-04-16T13:09:31.987Z</time></trkpt><trkpt lat="44.18121328345517" lon="8.062051001133144"><ele>1013.0</ele><time>2026-04-16T13:09:32.987Z</time></trkpt><trkpt lat="44.18111681311925" lon="8.062048527544945"><ele>1013.0000000000001</ele><time>2026-04-16T13:09:33.987Z</time></trkpt><trkpt lat="44.18102141312223" lon="8.062039563218613"><ele>1013.0</ele><time>2026-04-16T13:09:34.987Z</time></trkpt><trkpt lat="44.18093659096448" lon="8.061982405820551"><ele>1013.0</ele><time>2026-04-16T13:09:35.987Z</time></trkpt><trkpt lat="44.180880668722246" lon="8.061888147565044"><ele>1013.0</ele><time>2026-04-16T13:09:36.987Z</time></trkpt><trkpt lat="44.180855194618935" lon="8.061783686541723"><ele>1013.0000000000001</ele><time>2026-04-16T13:09:37.987Z</time></trkpt><trkpt lat="44.1808404200378" lon="8.061673465542379"><ele>1013.0</ele><time>2026-04-16T13:09:38.987Z</time></trkpt><trkpt lat="44.18080796324217" lon="8.061576571732669"><ele>1014.6666666666667</ele><time>2026-04-16T13:09:39.987Z</time></trkpt><trkpt lat="44.18077917887891" lon="8.061466736592791"><ele>1016.3333333333334</ele><time>2026-04-16T13:09:40.987Z</time></trkpt><trkpt lat="44.180741733547855" lon="8.061338610409887"><ele>1018.0</ele><time>2026-04-16T13:09:41.987Z</time></trkpt><trkpt lat="44.18072653190696" lon="8.061219153723657"><ele>1019.6666666666667</ele><time>2026-04-16T13:09:42.987Z</time></trkpt><trkpt lat="44.18069661901145" lon="8.061111273834669"><ele>1021.3333333333334</ele><time>2026-04-16T13:09:43.987Z</time></trkpt><trkpt lat="44.1806788864786" lon="8.061007923671655"><ele>1023.0</ele><time>2026-04-16T13:09:44.987Z</time></trkpt><trkpt lat="44.18065416553364" lon="8.060896079579585"><ele>1016.5</ele><time>2026-04-16T13:09:45.987Z</time></trkpt><trkpt lat="44.18061622941293" lon="8.060784874229675"><ele>1010.0</ele><time>2026-04-16T13:09:46.987Z</time></trkpt><trkpt lat="44.18057581644718" lon="8.060685800642721"><ele>1003.5</ele><time>2026-04-16T13:09:47.987Z</time></trkpt><trkpt lat="44.18051560103227" lon="8.060590506380967"><ele>997.0</ele><time>2026-04-16T13:09:48.987Z</time></trkpt><trkpt lat="44.180455605067706" lon="8.060505632401336"><ele>990.5</ele><time>2026-04-16T13:09:49.987Z</time></trkpt><trkpt lat="44.180409366304964" lon="8.060406478205374"><ele>984.0</ele><time>2026-04-16T13:09:50.987Z</time></trkpt><trkpt lat="44.18037490062445" lon="8.060287267285906"><ele>984.0</ele><time>2026-04-16T13:09:51.987Z</time></trkpt><trkpt lat="44.18036317507676" lon="8.060163711155283"><ele>984.0</ele><time>2026-04-16T13:09:52.987Z</time></trkpt><trkpt lat="44.18036074391073" lon="8.060047629656443"><ele>984.0</ele><time>2026-04-16T13:09:53.987Z</time></trkpt><trkpt lat="44.18035964281307" lon="8.059925728134143"><ele>984.0</ele><time>2026-04-16T13:09:54.987Z</time></trkpt><trkpt lat="44.180351729652585" lon="8.05980903724172"><ele>984.0</ele><time>2026-04-16T13:09:55.987Z</time></trkpt><trkpt lat="44.18033041348632" lon="8.05969156443351"><ele>984.0</ele><time>2026-04-16T13:09:56.986Z</time></trkpt><trkpt lat="44.18029185200801" lon="8.05957970995725"><ele>986.2</ele><time>2026-04-16T13:09:57.987Z</time></trkpt><trkpt lat="44.180251088819446" lon="8.059465080164289"><ele>988.4000000000001</ele><time>2026-04-16T13:09:58.987Z</time></trkpt><trkpt lat="44.18018286653896" lon="8.05936593376465"><ele>990.6</ele><time>2026-04-16T13:09:59.986Z</time></trkpt><trkpt lat="44.180110060783335" lon="8.059282587351358"><ele>992.8</ele><time>2026-04-16T13:10:00.987Z</time></trkpt><trkpt lat="44.18001309535923" lon="8.059217539582686"><ele>995.0</ele><time>2026-04-16T13:10:01.987Z</time></trkpt><trkpt lat="44.179930025077255" lon="8.05916221309901"><ele>995.8333333333334</ele><time>2026-04-16T13:10:02.986Z</time></trkpt><trkpt lat="44.179888646977204" lon="8.059016497751427"><ele>996.6666666666667</ele><time>2026-04-16T13:10:04.986Z</time></trkpt><trkpt lat="44.17991426683773" lon="8.058926270769657"><ele>997.5</ele><time>2026-04-16T13:10:05.986Z</time></trkpt><trkpt lat="44.17995600215897" lon="8.058816776949312"><ele>998.3333333333333</ele><time>2026-04-16T13:10:06.986Z</time></trkpt><trkpt lat="44.17998138935304" lon="8.058702471691586"><ele>999.1666666666666</ele><time>2026-04-16T13:10:07.986Z</time></trkpt><trkpt lat="44.179975209597984" lon="8.058596503475945"><ele>1000.0</ele><time>2026-04-16T13:10:08.986Z</time></trkpt><trkpt lat="44.17996154856151" lon="8.05851031369518"><ele>999.9999999999999</ele><time>2026-04-16T13:10:09.987Z</time></trkpt><trkpt lat="44.17992229304992" lon="8.058402826409646"><ele>1000.0</ele><time>2026-04-16T13:10:10.987Z</time></trkpt><trkpt lat="44.1798698132256" lon="8.058302033097897"><ele>1000.0</ele><time>2026-04-16T13:10:11.987Z</time></trkpt><trkpt lat="44.17981267174371" lon="8.058215808402997"><ele>1000.0</ele><time>2026-04-16T13:10:12.987Z</time></trkpt><trkpt lat="44.17974524115931" lon="8.058146499973132"><ele>999.9999999999999</ele><time>2026-04-16T13:10:13.987Z</time></trkpt><trkpt lat="44.1796679223208" lon="8.058097466263115"><ele>1000.0</ele><time>2026-04-16T13:10:14.987Z</time></trkpt><trkpt lat="44.179571235926666" lon="8.058035390749838"><ele>997.8</ele><time>2026-04-16T13:10:15.987Z</time></trkpt><trkpt lat="44.17948268410906" lon="8.057976383748878"><ele>995.6</ele><time>2026-04-16T13:10:16.987Z</time></trkpt><trkpt lat="44.17939429437172" lon="8.057912845070335"><ele>993.4000000000001</ele><time>2026-04-16T13:10:17.987Z</time></trkpt><trkpt lat="44.179298905337156" lon="8.057846581065327"><ele>991.2</ele><time>2026-04-16T13:10:18.987Z</time></trkpt><trkpt lat="44.179206397633806" lon="8.057788926641793"><ele>989.0</ele><time>2026-04-16T13:10:19.987Z</time></trkpt><trkpt lat="44.179114056996895" lon="8.05772318180795"><ele>989.0</ele><time>2026-04-16T13:10:20.987Z</time></trkpt><trkpt lat="44.179017832034496" lon="8.05766053698592"><ele>989.0000000000001</ele><time>2026-04-16T13:10:21.987Z</time></trkpt><trkpt lat="44.178929794192996" lon="8.05760616697144"><ele>989.0000000000001</ele><time>2026-04-16T13:10:22.987Z</time></trkpt><trkpt lat="44.17884185378315" lon="8.057551141704911"><ele>989.0</ele><time>2026-04-16T13:10:23.987Z</time></trkpt><trkpt lat="44.17874611678596" lon="8.057494634636225"><ele>989.0</ele><time>2026-04-16T13:10:24.987Z</time></trkpt><trkpt lat="44.17865812068546" lon="8.057446610184757"><ele>985.0000000000001</ele><time>2026-04-16T13:10:25.987Z</time></trkpt><trkpt lat="44.178566633801445" lon="8.057420439036695"><ele>981.0</ele><time>2026-04-16T13:10:26.987Z</time></trkpt><trkpt lat="44.17847735877346" lon="8.057389885446995"><ele>977.0</ele><time>2026-04-16T13:10:27.987Z</time></trkpt><trkpt lat="44.17841050810383" lon="8.057355332179513"><ele>973.0</ele><time>2026-04-16T13:10:28.987Z</time></trkpt><trkpt lat="44.178390270316434" lon="8.05722640276236"><ele>969.0000000000001</ele><time>2026-04-16T13:10:30.987Z</time></trkpt><trkpt lat="44.17841216885235" lon="8.05713712575004"><ele>965.0</ele><time>2026-04-16T13:10:31.987Z</time></trkpt><trkpt lat="44.17843564669172" lon="8.057038083435241"><ele>965.0</ele><time>2026-04-16T13:10:32.987Z</time></trkpt><trkpt lat="44.17846304540339" lon="8.056918556956047"><ele>965.0</ele><time>2026-04-16T13:10:33.987Z</time></trkpt><trkpt lat="44.178491005956495" lon="8.056807428590748"><ele>965.0</ele><time>2026-04-16T13:10:34.987Z</time></trkpt><trkpt lat="44.178533179403274" lon="8.056676505570366"><ele>965.0</ele><time>2026-04-16T13:10:35.987Z</time></trkpt><trkpt lat="44.1785765097947" lon="8.056560975509491"><ele>965.0</ele><time>2026-04-16T13:10:36.987Z</time></trkpt><trkpt lat="44.17861150721122" lon="8.05642508194439"><ele>963.25</ele><time>2026-04-16T13:10:37.987Z</time></trkpt><trkpt lat="44.178636636110966" lon="8.056265638130549"><ele>961.5</ele><time>2026-04-16T13:10:38.987Z</time></trkpt><trkpt lat="44.17863948238782" lon="8.056074758621467"><ele>959.75</ele><time>2026-04-16T13:10:39.987Z</time></trkpt><trkpt lat="44.17863299683192" lon="8.055905919739406"><ele>958.0</ele><time>2026-04-16T13:10:40.987Z</time></trkpt><trkpt lat="44.178629131801486" lon="8.055751312733847"><ele>957.8</ele><time>2026-04-16T13:10:41.987Z</time></trkpt><trkpt lat="44.17861996845401" lon="8.055605916002857"><ele>957.5999999999999</ele><time>2026-04-16T13:10:42.987Z</time></trkpt><trkpt lat="44.17858898816518" lon="8.05546540329641"><ele>957.4000000000001</ele><time>2026-04-16T13:10:43.987Z</time></trkpt><trkpt lat="44.17853563509572" lon="8.055345219471743"><ele>957.2</ele><time>2026-04-16T13:10:44.987Z</time></trkpt><trkpt lat="44.17848940341402" lon="8.055236559483252"><ele>957.0</ele><time>2026-04-16T13:10:45.987Z</time></trkpt><trkpt lat="44.178453187491435" lon="8.05512854924842"><ele>957.0</ele><time>2026-04-16T13:10:46.987Z</time></trkpt><trkpt lat="44.17842098862258" lon="8.055007779650404"><ele>957.0</ele><time>2026-04-16T13:10:47.987Z</time></trkpt><trkpt lat="44.178397173121525" lon="8.054875253329968"><ele>957.0</ele><time>2026-04-16T13:10:48.987Z</time></trkpt><trkpt lat="44.178390066978906" lon="8.054743019597698"><ele>957.0</ele><time>2026-04-16T13:10:49.987Z</time></trkpt><trkpt lat="44.17839281347899" lon="8.05460568885515"><ele>957.0</ele><time>2026-04-16T13:10:50.987Z</time></trkpt><trkpt lat="44.178393851655535" lon="8.054468900754026"><ele>957.2</ele><time>2026-04-16T13:10:51.987Z</time></trkpt><trkpt lat="44.178380243409556" lon="8.05434597591259"><ele>957.4000000000001</ele><time>2026-04-16T13:10:52.987Z</time></trkpt><trkpt lat="44.17836897734869" lon="8.054233588398086"><ele>957.5999999999999</ele><time>2026-04-16T13:10:53.987Z</time></trkpt><trkpt lat="44.178342194916794" lon="8.054109665699482"><ele>957.8</ele><time>2026-04-16T13:10:54.987Z</time></trkpt><trkpt lat="44.1783124060736" lon="8.05397187300683"><ele>958.0</ele><time>2026-04-16T13:10:55.987Z</time></trkpt><trkpt lat="44.178281681709194" lon="8.053829552542988"><ele>958.5</ele><time>2026-04-16T13:10:56.987Z</time></trkpt><trkpt lat="44.17825497650771" lon="8.053677118835669"><ele>959.0</ele><time>2026-04-16T13:10:57.987Z</time></trkpt><trkpt lat="44.17823580209026" lon="8.053512764100649"><ele>959.5</ele><time>2026-04-16T13:10:58.987Z</time></trkpt><trkpt lat="44.178220470018964" lon="8.053348269765475"><ele>960.0</ele><time>2026-04-16T13:10:59.987Z</time></trkpt><trkpt lat="44.17821271813403" lon="8.053177762012632"><ele>960.75</ele><time>2026-04-16T13:11:00.987Z</time></trkpt><trkpt lat="44.17820811678106" lon="8.053001768647402"><ele>961.5</ele><time>2026-04-16T13:11:01.987Z</time></trkpt><trkpt lat="44.17820767427671" lon="8.05282902575847"><ele>962.25</ele><time>2026-04-16T13:11:02.987Z</time></trkpt><trkpt lat="44.17820084132694" lon="8.052652599081249"><ele>963.0</ele><time>2026-04-16T13:11:03.987Z</time></trkpt><trkpt lat="44.178211752676155" lon="8.052478373117031"><ele>964.5</ele><time>2026-04-16T13:11:04.987Z</time></trkpt><trkpt lat="44.17823438522014" lon="8.05230266546151"><ele>966.0</ele><time>2026-04-16T13:11:05.987Z</time></trkpt><trkpt lat="44.17826736738409" lon="8.052131293448126"><ele>967.5</ele><time>2026-04-16T13:11:06.987Z</time></trkpt><trkpt lat="44.17829380474752" lon="8.051961563946966"><ele>969.0</ele><time>2026-04-16T13:11:07.987Z</time></trkpt><trkpt lat="44.17830526265415" lon="8.051799328459001"><ele>969.0</ele><time>2026-04-16T13:11:08.987Z</time></trkpt><trkpt lat="44.178313458137694" lon="8.051634233089006"><ele>969.0000000000001</ele><time>2026-04-16T13:11:09.987Z</time></trkpt><trkpt lat="44.17831331400282" lon="8.051478369590507"><ele>969.0000000000001</ele><time>2026-04-16T13:11:10.987Z</time></trkpt><trkpt lat="44.17831620672627" lon="8.051322582980479"><ele>969.0</ele><time>2026-04-16T13:11:11.987Z</time></trkpt><trkpt lat="44.17832297431782" lon="8.051182880774691"><ele>969.0</ele><time>2026-04-16T13:11:12.987Z</time></trkpt><trkpt lat="44.17832711292321" lon="8.051040832583086"><ele>969.6</ele><time>2026-04-16T13:11:13.987Z</time></trkpt><trkpt lat="44.178324889556144" lon="8.050891484833453"><ele>970.2</ele><time>2026-04-16T13:11:14.987Z</time></trkpt><trkpt lat="44.178310908475254" lon="8.050736067400516"><ele>970.8000000000001</ele><time>2026-04-16T13:11:15.987Z</time></trkpt><trkpt lat="44.17829735264915" lon="8.050584311148043"><ele>971.4000000000001</ele><time>2026-04-16T13:11:16.987Z</time></trkpt><trkpt lat="44.17826511662563" lon="8.050450795196545"><ele>972.0</ele><time>2026-04-16T13:11:17.987Z</time></trkpt><trkpt lat="44.17823620086665" lon="8.050322130675962"><ele>973.2</ele><time>2026-04-16T13:11:18.987Z</time></trkpt><trkpt lat="44.17821716620729" lon="8.05019911906405"><ele>974.4000000000001</ele><time>2026-04-16T13:11:19.987Z</time></trkpt><trkpt lat="44.17820290394837" lon="8.050065914339893"><ele>975.5999999999999</ele><time>2026-04-16T13:11:20.987Z</time></trkpt><trkpt lat="44.17818151637332" lon="8.049928401152558"><ele>976.8</ele><time>2026-04-16T13:11:21.987Z</time></trkpt><trkpt lat="44.17814901331257" lon="8.049790199207747"><ele>978.0</ele><time>2026-04-16T13:11:22.987Z</time></trkpt><trkpt lat="44.178116755951486" lon="8.049656904346502"><ele>974.8</ele><time>2026-04-16T13:11:23.987Z</time></trkpt><trkpt lat="44.1780864655177" lon="8.049515121498008"><ele>971.5999999999999</ele><time>2026-04-16T13:11:24.987Z</time></trkpt><trkpt lat="44.17805563421574" lon="8.049371636903485"><ele>968.4000000000001</ele><time>2026-04-16T13:11:25.987Z</time></trkpt><trkpt lat="44.178028265436296" lon="8.049242126203477"><ele>965.2</ele><time>2026-04-16T13:11:26.987Z</time></trkpt><trkpt lat="44.17799848148017" lon="8.049126883538426"><ele>962.0</ele><time>2026-04-16T13:11:27.987Z</time></trkpt><trkpt lat="44.1779689021347" lon="8.049017400912074"><ele>961.9999999999999</ele><time>2026-04-16T13:11:28.987Z</time></trkpt><trkpt lat="44.177947406278946" lon="8.048910877760003"><ele>962.0</ele><time>2026-04-16T13:11:29.987Z</time></trkpt><trkpt lat="44.17794255660029" lon="8.048802112355377"><ele>961.9999999999999</ele><time>2026-04-16T13:11:30.987Z</time></trkpt><trkpt lat="44.17794878977158" lon="8.048701416096245"><ele>961.9999999999999</ele><time>2026-04-16T13:11:31.987Z</time></trkpt><trkpt lat="44.17796556884023" lon="8.048609046351803"><ele>962.0</ele><time>2026-04-16T13:11:32.987Z</time></trkpt><trkpt lat="44.17798145637944" lon="8.04851687995444"><ele>961.9999999999999</ele><time>2026-04-16T13:11:33.987Z</time></trkpt><trkpt lat="44.17798657850284" lon="8.048416768803252"><ele>961.9999999999999</ele><time>2026-04-16T13:11:34.987Z</time></trkpt><trkpt lat="44.17797543870714" lon="8.048322105717219"><ele>961.6666666666667</ele><time>2026-04-16T13:11:35.987Z</time></trkpt><trkpt lat="44.17794510836021" lon="8.048235884831564"><ele>961.3333333333334</ele><time>2026-04-16T13:11:36.987Z</time></trkpt><trkpt lat="44.17789607766685" lon="8.04818069348131"><ele>961.0</ele><time>2026-04-16T13:11:37.987Z</time></trkpt><trkpt lat="44.177807821178966" lon="8.048144504913052"><ele>960.6666666666667</ele><time>2026-04-16T13:11:38.987Z</time></trkpt><trkpt lat="44.177737472375306" lon="8.04811587732417"><ele>960.3333333333334</ele><time>2026-04-16T13:11:39.987Z</time></trkpt><trkpt lat="44.177671295538325" lon="8.048082643231991"><ele>960.0</ele><time>2026-04-16T13:11:40.987Z</time></trkpt><trkpt lat="44.177574244952766" lon="8.04798609658575"><ele>960.0</ele><time>2026-04-16T13:11:42.987Z</time></trkpt><trkpt lat="44.17753167395987" lon="8.047919663571111"><ele>960.0</ele><time>2026-04-16T13:11:43.987Z</time></trkpt><trkpt lat="44.17749428665114" lon="8.047845032817538"><ele>960.0</ele><time>2026-04-16T13:11:44.987Z</time></trkpt><trkpt lat="44.17746297063362" lon="8.047761159673131"><ele>960.0</ele><time>2026-04-16T13:11:45.987Z</time></trkpt><trkpt lat="44.17743360187486" lon="8.047619566847706"><ele>960.0</ele><time>2026-04-16T13:11:47.987Z</time></trkpt><trkpt lat="44.177408466458566" lon="8.04752484090489"><ele>960.0</ele><time>2026-04-16T13:11:49.987Z</time></trkpt><trkpt lat="44.17743107485401" lon="8.047418987414746"><ele>960.0</ele><time>2026-04-16T13:11:51.987Z</time></trkpt><trkpt lat="44.17751004187998" lon="8.047372927085854"><ele>960.0</ele><time>2026-04-16T13:11:54.987Z</time></trkpt><trkpt lat="44.177559222903874" lon="8.047290482307446"><ele>960.0</ele><time>2026-04-16T13:11:57.987Z</time></trkpt><trkpt lat="44.17754565553713" lon="8.047198115433565"><ele>960.0</ele><time>2026-04-16T13:22:52.985Z</time></trkpt><trkpt lat="44.1774899580803" lon="8.047102644183246"><ele>960.0</ele><time>2026-04-16T13:22:55.985Z</time></trkpt><trkpt lat="44.177431703785345" lon="8.047055822790906"><ele>960.0</ele><time>2026-04-16T13:22:58.985Z</time></trkpt><trkpt lat="44.177335502083885" lon="8.047023692409976"><ele>960.0</ele><time>2026-04-16T13:23:07.985Z</time></trkpt><trkpt lat="44.17725742046801" lon="8.046990882160056"><ele>960.0</ele><time>2026-04-16T13:23:08.985Z</time></trkpt><trkpt lat="44.177168287796796" lon="8.0469533259636"><ele>960.0</ele><time>2026-04-16T13:23:10.985Z</time></trkpt><trkpt lat="44.17708907305908" lon="8.046849816967386"><ele>960.0</ele><time>2026-04-16T13:23:16.985Z</time></trkpt><trkpt lat="44.177029139772344" lon="8.046798250149063"><ele>960.0</ele><time>2026-04-16T13:23:17.985Z</time></trkpt><trkpt lat="44.17696197911001" lon="8.046734392650102"><ele>960.0</ele><time>2026-04-16T13:23:18.985Z</time></trkpt><trkpt lat="44.176879631000766" lon="8.046659961568208"><ele>961.25</ele><time>2026-04-16T13:23:19.985Z</time></trkpt><trkpt lat="44.17679885186624" lon="8.046584003223858"><ele>962.5</ele><time>2026-04-16T13:23:20.985Z</time></trkpt><trkpt lat="44.17670777972623" lon="8.046511820586277"><ele>963.75</ele><time>2026-04-16T13:23:21.985Z</time></trkpt><trkpt lat="44.17661173683151" lon="8.046440227953115"><ele>965.0</ele><time>2026-04-16T13:23:22.985Z</time></trkpt><trkpt lat="44.17648674377393" lon="8.046344748901864"><ele>965.0</ele><time>2026-04-16T13:23:23.985Z</time></trkpt><trkpt lat="44.17637588182099" lon="8.046240848990815"><ele>965.0</ele><time>2026-04-16T13:23:24.985Z</time></trkpt><trkpt lat="44.17628997659418" lon="8.046141893801979"><ele>965.0</ele><time>2026-04-16T13:23:25.985Z</time></trkpt><trkpt lat="44.1762269277442" lon="8.046052580270517"><ele>965.0</ele><time>2026-04-16T13:23:26.985Z</time></trkpt><trkpt lat="44.17618456176687" lon="8.045949201767346"><ele>965.0</ele><time>2026-04-16T13:23:27.985Z</time></trkpt><trkpt lat="44.176149518404614" lon="8.045811819740928"><ele>965.5</ele><time>2026-04-16T13:23:28.985Z</time></trkpt><trkpt lat="44.17611506710654" lon="8.045660781772455"><ele>966.0</ele><time>2026-04-16T13:23:29.985Z</time></trkpt><trkpt lat="44.17605687281331" lon="8.045528634868527"><ele>966.5</ele><time>2026-04-16T13:23:30.985Z</time></trkpt><trkpt lat="44.1759797616496" lon="8.045394102050013"><ele>967.0</ele><time>2026-04-16T13:23:31.985Z</time></trkpt><trkpt lat="44.1759027128566" lon="8.045265323502717"><ele>967.0</ele><time>2026-04-16T13:23:32.985Z</time></trkpt><trkpt lat="44.175838661127706" lon="8.045159680185819"><ele>967.0</ele><time>2026-04-16T13:23:33.985Z</time></trkpt><trkpt lat="44.17578184877744" lon="8.045045712281057"><ele>967.0</ele><time>2026-04-16T13:23:34.985Z</time></trkpt><trkpt lat="44.175721070871646" lon="8.044923624563332"><ele>967.0</ele><time>2026-04-16T13:23:35.985Z</time></trkpt><trkpt lat="44.175659621421424" lon="8.044787571432241"><ele>967.0</ele><time>2026-04-16T13:23:36.985Z</time></trkpt><trkpt lat="44.17560723038953" lon="8.044665409701"><ele>969.8333333333333</ele><time>2026-04-16T13:23:37.985Z</time></trkpt><trkpt lat="44.17555195136296" lon="8.044548138293614"><ele>972.6666666666666</ele><time>2026-04-16T13:23:38.985Z</time></trkpt><trkpt lat="44.175501575575765" lon="8.044436037724727"><ele>975.5</ele><time>2026-04-16T13:23:39.985Z</time></trkpt><trkpt lat="44.17546357722707" lon="8.044347361886155"><ele>978.3333333333333</ele><time>2026-04-16T13:23:40.985Z</time></trkpt><trkpt lat="44.175438206784676" lon="8.044241009903233"><ele>981.1666666666666</ele><time>2026-04-16T13:23:41.985Z</time></trkpt><trkpt lat="44.17543733275858" lon="8.04413883730713"><ele>984.0</ele><time>2026-04-16T13:23:42.985Z</time></trkpt><trkpt lat="44.17548151351196" lon="8.0439671866862"><ele>985.5</ele><time>2026-04-16T13:23:44.985Z</time></trkpt><trkpt lat="44.17551603754482" lon="8.043798219735665"><ele>987.0</ele><time>2026-04-16T13:23:46.985Z</time></trkpt><trkpt lat="44.17552576506606" lon="8.043697486430089"><ele>988.5</ele><time>2026-04-16T13:23:47.985Z</time></trkpt><trkpt lat="44.17553877470232" lon="8.043597211517875"><ele>990.0</ele><time>2026-04-16T13:23:48.985Z</time></trkpt><trkpt lat="44.17555543551214" lon="8.043483386093932"><ele>991.5</ele><time>2026-04-16T13:23:49.985Z</time></trkpt><trkpt lat="44.17558543023692" lon="8.043362855353102"><ele>993.0</ele><time>2026-04-16T13:23:50.985Z</time></trkpt><trkpt lat="44.17562129239733" lon="8.043224495008138"><ele>994.0</ele><time>2026-04-16T13:23:51.985Z</time></trkpt><trkpt lat="44.1756372571988" lon="8.043098800949041"><ele>995.0</ele><time>2026-04-16T13:23:52.985Z</time></trkpt><trkpt lat="44.17562711349979" lon="8.042972034814895"><ele>996.0</ele><time>2026-04-16T13:23:53.985Z</time></trkpt><trkpt lat="44.17560005328083" lon="8.042845564464418"><ele>997.0</ele><time>2026-04-16T13:23:54.985Z</time></trkpt><trkpt lat="44.175549939582694" lon="8.042724284834534"><ele>998.0</ele><time>2026-04-16T13:23:55.985Z</time></trkpt><trkpt lat="44.175490288355945" lon="8.042590419373292"><ele>998.0</ele><time>2026-04-16T13:23:56.985Z</time></trkpt><trkpt lat="44.17544389055108" lon="8.042465847803216"><ele>998.0</ele><time>2026-04-16T13:23:57.985Z</time></trkpt><trkpt lat="44.17542084332641" lon="8.042334582636407"><ele>998.0</ele><time>2026-04-16T13:23:58.985Z</time></trkpt><trkpt lat="44.17542091648879" lon="8.042205597603648"><ele>998.0</ele><time>2026-04-16T13:23:59.985Z</time></trkpt><trkpt lat="44.175433571961044" lon="8.042104783770535"><ele>998.0</ele><time>2026-04-16T13:24:00.985Z</time></trkpt><trkpt lat="44.175405604555145" lon="8.041967196368361"><ele>995.8</ele><time>2026-04-16T13:24:02.985Z</time></trkpt><trkpt lat="44.175332047491786" lon="8.041921071029252"><ele>993.5999999999999</ele><time>2026-04-16T13:24:04.985Z</time></trkpt><trkpt lat="44.17525565717189" lon="8.041922406496855"><ele>991.4000000000001</ele><time>2026-04-16T13:24:07.985Z</time></trkpt><trkpt lat="44.17514547199441" lon="8.041912286795267"><ele>989.2</ele><time>2026-04-16T13:24:23.985Z</time></trkpt><trkpt lat="44.17501649342299" lon="8.041897137712784"><ele>987.0</ele><time>2026-04-16T13:24:25.985Z</time></trkpt><trkpt lat="44.17494844746747" lon="8.041891360642612"><ele>987.0</ele><time>2026-04-16T13:24:26.985Z</time></trkpt><trkpt lat="44.17487529711673" lon="8.041894224748484"><ele>987.0</ele><time>2026-04-16T13:24:27.985Z</time></trkpt><trkpt lat="44.174791899058846" lon="8.041888803659933"><ele>987.0</ele><time>2026-04-16T13:24:28.985Z</time></trkpt><trkpt lat="44.17470561020522" lon="8.04186849913097"><ele>987.0</ele><time>2026-04-16T13:24:29.985Z</time></trkpt><trkpt lat="44.174624461098574" lon="8.041835282137011"><ele>987.0</ele><time>2026-04-16T13:24:30.985Z</time></trkpt><trkpt lat="44.17455073170931" lon="8.041802955504215"><ele>987.0</ele><time>2026-04-16T13:24:31.985Z</time></trkpt><trkpt lat="44.174476003684006" lon="8.041772898747647"><ele>986.6666666666666</ele><time>2026-04-16T13:24:32.985Z</time></trkpt><trkpt lat="44.17440253842448" lon="8.041738583989899"><ele>986.3333333333333</ele><time>2026-04-16T13:24:33.985Z</time></trkpt><trkpt lat="44.17433403173143" lon="8.04169987668026"><ele>986.0</ele><time>2026-04-16T13:24:34.985Z</time></trkpt><trkpt lat="44.17426835532372" lon="8.041655064240869"><ele>985.6666666666666</ele><time>2026-04-16T13:24:35.985Z</time></trkpt><trkpt lat="44.174195138863396" lon="8.041600983544814"><ele>985.3333333333333</ele><time>2026-04-16T13:24:36.985Z</time></trkpt><trkpt lat="44.17413546398281" lon="8.041543955059916"><ele>985.0</ele><time>2026-04-16T13:24:37.985Z</time></trkpt><trkpt lat="44.174074202196486" lon="8.041478567394881"><ele>986.8333333333333</ele><time>2026-04-16T13:24:38.983Z</time></trkpt><trkpt lat="44.17401965818329" lon="8.041419162890374"><ele>988.6666666666666</ele><time>2026-04-16T13:24:39.983Z</time></trkpt><trkpt lat="44.17393702221338" lon="8.041353770157732"><ele>990.5</ele><time>2026-04-16T13:24:40.983Z</time></trkpt><trkpt lat="44.1738588368597" lon="8.04130084046307"><ele>992.3333333333333</ele><time>2026-04-16T13:24:41.983Z</time></trkpt><trkpt lat="44.17378024822574" lon="8.04126287507542"><ele>994.1666666666666</ele><time>2026-04-16T13:24:42.983Z</time></trkpt><trkpt lat="44.173716517038415" lon="8.041210250354785"><ele>996.0</ele><time>2026-04-16T13:24:43.983Z</time></trkpt><trkpt lat="44.1736651802958" lon="8.041122886240043"><ele>996.0</ele><time>2026-04-16T13:24:44.983Z</time></trkpt><trkpt lat="44.173616774214636" lon="8.041023987874091"><ele>996.0</ele><time>2026-04-16T13:24:45.984Z</time></trkpt><trkpt lat="44.173589518487276" lon="8.040926213141228"><ele>996.0</ele><time>2026-04-16T13:24:46.984Z</time></trkpt><trkpt lat="44.173557104981654" lon="8.040822968822791"><ele>996.0</ele><time>2026-04-16T13:24:47.983Z</time></trkpt><trkpt lat="44.17352569655806" lon="8.0407125442747"><ele>996.0</ele><time>2026-04-16T13:24:48.984Z</time></trkpt><trkpt lat="44.1734790258872" lon="8.040606268939873"><ele>996.0</ele><time>2026-04-16T13:24:49.984Z</time></trkpt><trkpt lat="44.17343214244906" lon="8.040495908566015"><ele>997.6666666666666</ele><time>2026-04-16T13:24:50.983Z</time></trkpt><trkpt lat="44.17339964996726" lon="8.040408953048223"><ele>999.3333333333333</ele><time>2026-04-16T13:24:51.984Z</time></trkpt><trkpt lat="44.17338060025907" lon="8.040311842865389"><ele>1001.0</ele><time>2026-04-16T13:24:52.984Z</time></trkpt><trkpt lat="44.173385627617996" lon="8.040223966958202"><ele>1002.6666666666666</ele><time>2026-04-16T13:24:53.984Z</time></trkpt><trkpt lat="44.17337846584175" lon="8.040133067235809"><ele>1004.3333333333333</ele><time>2026-04-16T13:24:54.984Z</time></trkpt><trkpt lat="44.1733661040643" lon="8.039997930773612"><ele>1006.0</ele><time>2026-04-16T13:24:55.984Z</time></trkpt><trkpt lat="44.17333792713401" lon="8.039890513693246"><ele>1007.4999999999999</ele><time>2026-04-16T13:24:56.984Z</time></trkpt><trkpt lat="44.173330371549504" lon="8.039771663551953"><ele>1009.0</ele><time>2026-04-16T13:24:57.984Z</time></trkpt><trkpt lat="44.17331910698085" lon="8.039668848116202"><ele>1010.5</ele><time>2026-04-16T13:24:58.984Z</time></trkpt><trkpt lat="44.17332693626691" lon="8.03956285799975"><ele>1012.0</ele><time>2026-04-16T13:24:59.984Z</time></trkpt><trkpt lat="44.1733333483617" lon="8.039466768196055"><ele>1013.4999999999999</ele><time>2026-04-16T13:25:00.984Z</time></trkpt><trkpt lat="44.173343420974525" lon="8.039361773485934"><ele>1015.0</ele><time>2026-04-16T13:25:01.984Z</time></trkpt><trkpt lat="44.17336114327696" lon="8.039242557440213"><ele>1015.4</ele><time>2026-04-16T13:25:02.984Z</time></trkpt><trkpt lat="44.17336203187883" lon="8.03913149790137"><ele>1015.8</ele><time>2026-04-16T13:25:03.984Z</time></trkpt><trkpt lat="44.17335542568445" lon="8.039002244989938"><ele>1016.2</ele><time>2026-04-16T13:25:04.984Z</time></trkpt><trkpt lat="44.173361652167344" lon="8.038863619070884"><ele>1016.6</ele><time>2026-04-16T13:25:05.984Z</time></trkpt><trkpt lat="44.17336015609688" lon="8.038725526097538"><ele>1017.0</ele><time>2026-04-16T13:25:06.984Z</time></trkpt><trkpt lat="44.17336997218587" lon="8.038610919373665"><ele>1017.0</ele><time>2026-04-16T13:25:07.984Z</time></trkpt><trkpt lat="44.17337669058566" lon="8.03849456724081"><ele>1017.0</ele><time>2026-04-16T13:25:09.984Z</time></trkpt><trkpt lat="44.17329705376194" lon="8.038336254274526"><ele>1017.0</ele><time>2026-04-16T13:25:11.984Z</time></trkpt><trkpt lat="44.17322858643498" lon="8.03823469797491"><ele>1017.0</ele><time>2026-04-16T13:25:12.984Z</time></trkpt><trkpt lat="44.173156360860105" lon="8.0381663338892"><ele>1017.0</ele><time>2026-04-16T13:25:13.984Z</time></trkpt><trkpt lat="44.17309541383803" lon="8.038088383079003"><ele>1021.3333333333334</ele><time>2026-04-16T13:25:14.984Z</time></trkpt><trkpt lat="44.173051235675565" lon="8.038005517181315"><ele>1025.6666666666667</ele><time>2026-04-16T13:25:15.984Z</time></trkpt><trkpt lat="44.17301401163916" lon="8.03789502834419"><ele>1030.0</ele><time>2026-04-16T13:25:16.984Z</time></trkpt><trkpt lat="44.17298536986764" lon="8.037779199556672"><ele>1034.3333333333335</ele><time>2026-04-16T13:25:17.984Z</time></trkpt><trkpt lat="44.17295485466619" lon="8.037678786125507"><ele>1038.6666666666667</ele><time>2026-04-16T13:25:18.984Z</time></trkpt><trkpt lat="44.17292931433394" lon="8.037530323812964"><ele>1043.0</ele><time>2026-04-16T13:25:20.984Z</time></trkpt><trkpt lat="44.172830461469886" lon="8.037538915548176"><ele>1043.0</ele><time>2026-04-16T13:25:23.984Z</time></trkpt><trkpt lat="44.172828831148855" lon="8.037664930813387"><ele>1043.0</ele><time>2026-04-16T13:25:25.984Z</time></trkpt><trkpt lat="44.17283695065093" lon="8.03780206412228"><ele>1043.0</ele><time>2026-04-16T13:25:27.984Z</time></trkpt><trkpt lat="44.17281792554864" lon="8.037954024974983"><ele>1043.0</ele><time>2026-04-16T13:25:29.984Z</time></trkpt><trkpt lat="44.172808899686984" lon="8.038060665635504"><ele>1043.0</ele><time>2026-04-16T13:25:30.984Z</time></trkpt><trkpt lat="44.17279699013323" lon="8.038187967802259"><ele>1043.0</ele><time>2026-04-16T13:25:31.984Z</time></trkpt><trkpt lat="44.17280001206415" lon="8.03831231787151"><ele>1043.0</ele><time>2026-04-16T13:25:32.984Z</time></trkpt><trkpt lat="44.172809895001976" lon="8.038409781189955"><ele>1043.0</ele><time>2026-04-16T13:25:33.984Z</time></trkpt><trkpt lat="44.172804517042046" lon="8.038524603501044"><ele>1043.0</ele><time>2026-04-16T13:25:34.984Z</time></trkpt><trkpt lat="44.17278226465411" lon="8.038674105784798"><ele>1043.0</ele><time>2026-04-16T13:25:35.984Z</time></trkpt><trkpt lat="44.1727642095522" lon="8.038818128751085"><ele>1043.0</ele><time>2026-04-16T13:25:36.984Z</time></trkpt><trkpt lat="44.17273576563693" lon="8.038940989977181"><ele>1043.0</ele><time>2026-04-16T13:25:37.984Z</time></trkpt><trkpt lat="44.17270943963293" lon="8.039030761638143"><ele>1043.0</ele><time>2026-04-16T13:25:38.984Z</time></trkpt><trkpt lat="44.17268071750076" lon="8.039119034345115"><ele>1043.0</ele><time>2026-04-16T13:25:39.984Z</time></trkpt><trkpt lat="44.17260457331116" lon="8.039190420748362"><ele>1043.0</ele><time>2026-04-16T13:25:41.984Z</time></trkpt><trkpt lat="44.17253687343685" lon="8.039159192705284"><ele>1043.0</ele><time>2026-04-16T13:25:43.984Z</time></trkpt><trkpt lat="44.172518258083294" lon="8.039061508425744"><ele>1043.0</ele><time>2026-04-16T13:25:45.984Z</time></trkpt><trkpt lat="44.172568389707116" lon="8.03891762610658"><ele>1043.0</ele><time>2026-04-16T13:25:47.984Z</time></trkpt><trkpt lat="44.17257596170549" lon="8.03881635350871"><ele>1043.0</ele><time>2026-04-16T13:25:48.984Z</time></trkpt><trkpt lat="44.17256717873383" lon="8.038705667189776"><ele>1043.0</ele><time>2026-04-16T13:25:49.984Z</time></trkpt><trkpt lat="44.1725412869551" lon="8.038620273727457"><ele>1043.0</ele><time>2026-04-16T13:25:50.984Z</time></trkpt><trkpt lat="44.1724691965564" lon="8.03848093566909"><ele>1043.0</ele><time>2026-04-16T13:25:52.984Z</time></trkpt><trkpt lat="44.172421618355216" lon="8.038387404068047"><ele>1043.0</ele><time>2026-04-16T13:25:53.984Z</time></trkpt><trkpt lat="44.17234951580266" lon="8.038283450084352"><ele>1043.0</ele><time>2026-04-16T13:25:54.984Z</time></trkpt><trkpt lat="44.17227757665063" lon="8.038168820646494"><ele>1043.0</ele><time>2026-04-16T13:25:55.984Z</time></trkpt><trkpt lat="44.17221191722643" lon="8.038052568038522"><ele>1043.0</ele><time>2026-04-16T13:25:56.984Z</time></trkpt><trkpt lat="44.17214299581616" lon="8.037911648962393"><ele>1044.8</ele><time>2026-04-16T13:25:57.984Z</time></trkpt><trkpt lat="44.17207675573358" lon="8.037765396269425"><ele>1046.6</ele><time>2026-04-16T13:25:58.984Z</time></trkpt><trkpt lat="44.172022590224735" lon="8.037628664085412"><ele>1048.4</ele><time>2026-04-16T13:25:59.984Z</time></trkpt><trkpt lat="44.171973280467526" lon="8.037513464536115"><ele>1050.2</ele><time>2026-04-16T13:26:00.984Z</time></trkpt><trkpt lat="44.1719174597734" lon="8.037405520866823"><ele>1052.0</ele><time>2026-04-16T13:26:01.984Z</time></trkpt><trkpt lat="44.17186662954136" lon="8.037313399027019"><ele>1054.0</ele><time>2026-04-16T13:26:02.984Z</time></trkpt><trkpt lat="44.17181800365741" lon="8.03724789588047"><ele>1056.0</ele><time>2026-04-16T13:26:03.984Z</time></trkpt><trkpt lat="44.171707848976105" lon="8.03714035532825"><ele>1058.0</ele><time>2026-04-16T13:26:05.984Z</time></trkpt><trkpt lat="44.17164483222777" lon="8.037094075307605"><ele>1060.0</ele><time>2026-04-16T13:26:06.984Z</time></trkpt><trkpt lat="44.171562805865776" lon="8.037044570670268"><ele>1062.0</ele><time>2026-04-16T13:26:07.984Z</time></trkpt><trkpt lat="44.17149287308052" lon="8.03700004552697"><ele>1064.0</ele><time>2026-04-16T13:26:08.984Z</time></trkpt><trkpt lat="44.17137514178745" lon="8.036909796376591"><ele>1064.0</ele><time>2026-04-16T13:26:10.984Z</time></trkpt><trkpt lat="44.17131864987878" lon="8.036836985060201"><ele>1064.0</ele><time>2026-04-16T13:26:11.984Z</time></trkpt><trkpt lat="44.17125911431329" lon="8.03675649229971"><ele>1064.0</ele><time>2026-04-16T13:26:12.984Z</time></trkpt><trkpt lat="44.171185773957575" lon="8.03668842699463"><ele>1064.0</ele><time>2026-04-16T13:26:13.984Z</time></trkpt><trkpt lat="44.1710865062906" lon="8.036614091044425"><ele>1064.0</ele><time>2026-04-16T13:26:15.983Z</time></trkpt><trkpt lat="44.17102153795506" lon="8.036566662581889"><ele>1064.0</ele><time>2026-04-16T13:26:17.983Z</time></trkpt><trkpt lat="44.17099513410841" lon="8.036412699741733"><ele>1066.5</ele><time>2026-04-16T13:26:19.983Z</time></trkpt><trkpt lat="44.171006722772425" lon="8.036315140367638"><ele>1069.0</ele><time>2026-04-16T13:26:20.983Z</time></trkpt><trkpt lat="44.171022107639956" lon="8.036144814460787"><ele>1071.5</ele><time>2026-04-16T13:26:22.983Z</time></trkpt><trkpt lat="44.170985552368464" lon="8.036032757524483"><ele>1074.0</ele><time>2026-04-16T13:26:23.983Z</time></trkpt><trkpt lat="44.17094166569233" lon="8.035943930412238"><ele>1076.5</ele><time>2026-04-16T13:26:24.983Z</time></trkpt><trkpt lat="44.170895812636026" lon="8.035870139334484"><ele>1079.0</ele><time>2026-04-16T13:26:25.983Z</time></trkpt><trkpt lat="44.17083990183306" lon="8.035797064837176"><ele>1078.6000000000001</ele><time>2026-04-16T13:26:26.983Z</time></trkpt><trkpt lat="44.17078660189788" lon="8.035718344392274"><ele>1078.2</ele><time>2026-04-16T13:26:27.983Z</time></trkpt><trkpt lat="44.17071085901714" lon="8.03563525894761"><ele>1077.8000000000002</ele><time>2026-04-16T13:26:28.983Z</time></trkpt><trkpt lat="44.170617013619555" lon="8.035547454728745"><ele>1077.4</ele><time>2026-04-16T13:26:29.983Z</time></trkpt><trkpt lat="44.170541236981435" lon="8.035437751956087"><ele>1077.0</ele><time>2026-04-16T13:26:30.983Z</time></trkpt><trkpt lat="44.170473575861216" lon="8.035360861356093"><ele>1077.0</ele><time>2026-04-16T13:26:31.983Z</time></trkpt><trkpt lat="44.17040575207028" lon="8.035267043074315"><ele>1077.0</ele><time>2026-04-16T13:26:32.983Z</time></trkpt><trkpt lat="44.170330894959406" lon="8.035182166405267"><ele>1077.0</ele><time>2026-04-16T13:26:33.983Z</time></trkpt><trkpt lat="44.17025537141506" lon="8.03504821590762"><ele>1077.0</ele><time>2026-04-16T13:26:34.983Z</time></trkpt><trkpt lat="44.17019956097788" lon="8.034931811000154"><ele>1077.0</ele><time>2026-04-16T13:26:35.983Z</time></trkpt><trkpt lat="44.170157881406176" lon="8.034819992012418"><ele>1078.6666666666667</ele><time>2026-04-16T13:26:36.983Z</time></trkpt><trkpt lat="44.170108638993206" lon="8.034716846411005"><ele>1080.3333333333333</ele><time>2026-04-16T13:26:37.983Z</time></trkpt><trkpt lat="44.170088833560946" lon="8.034584172522"><ele>1082.0</ele><time>2026-04-16T13:26:39.983Z</time></trkpt><trkpt lat="44.17011233571345" lon="8.034487010299015"><ele>1083.6666666666665</ele><time>2026-04-16T13:26:40.983Z</time></trkpt><trkpt lat="44.170136441179295" lon="8.034385012983938"><ele>1085.3333333333333</ele><time>2026-04-16T13:26:41.983Z</time></trkpt><trkpt lat="44.170146520849784" lon="8.034250930159919"><ele>1087.0</ele><time>2026-04-16T13:26:42.983Z</time></trkpt><trkpt lat="44.170163137121065" lon="8.034127624912777"><ele>1087.1666666666665</ele><time>2026-04-16T13:26:43.983Z</time></trkpt><trkpt lat="44.17017635818233" lon="8.034033158264023"><ele>1087.3333333333333</ele><time>2026-04-16T13:26:44.982Z</time></trkpt><trkpt lat="44.170199368749586" lon="8.033874049995918"><ele>1087.5</ele><time>2026-04-16T13:26:46.982Z</time></trkpt><trkpt lat="44.17022007215158" lon="8.033790477792323"><ele>1087.6666666666667</ele><time>2026-04-16T13:26:47.983Z</time></trkpt><trkpt lat="44.17023974010969" lon="8.033691126686298"><ele>1087.8333333333335</ele><time>2026-04-16T13:26:48.982Z</time></trkpt><trkpt lat="44.170246919804754" lon="8.033571911541793"><ele>1088.0</ele><time>2026-04-16T13:26:49.982Z</time></trkpt><trkpt lat="44.17024043673197" lon="8.033460139720535"><ele>1088.0</ele><time>2026-04-16T13:26:50.982Z</time></trkpt><trkpt lat="44.170238070484785" lon="8.033339759304086"><ele>1088.0</ele><time>2026-04-16T13:26:51.982Z</time></trkpt><trkpt lat="44.17023727866199" lon="8.03321799905994"><ele>1088.0</ele><time>2026-04-16T13:26:52.982Z</time></trkpt><trkpt lat="44.170233777092754" lon="8.033096108922265"><ele>1088.0</ele><time>2026-04-16T13:26:53.982Z</time></trkpt><trkpt lat="44.170227242169226" lon="8.032985964960947"><ele>1088.0</ele><time>2026-04-16T13:26:54.982Z</time></trkpt><trkpt lat="44.17020830531644" lon="8.032852054425705"><ele>1088.0</ele><time>2026-04-16T13:26:56.982Z</time></trkpt><trkpt lat="44.17011423353145" lon="8.032690074095477"><ele>1089.2</ele><time>2026-04-16T13:26:58.982Z</time></trkpt><trkpt lat="44.17004155139508" lon="8.032606330814971"><ele>1090.4</ele><time>2026-04-16T13:26:59.982Z</time></trkpt><trkpt lat="44.16997042281376" lon="8.032510022597991"><ele>1091.6000000000001</ele><time>2026-04-16T13:27:00.982Z</time></trkpt><trkpt lat="44.16993497008562" lon="8.032415771939181"><ele>1092.8</ele><time>2026-04-16T13:27:01.982Z</time></trkpt><trkpt lat="44.169914883035396" lon="8.03226639483274"><ele>1094.0</ele><time>2026-04-16T13:27:03.982Z</time></trkpt><trkpt lat="44.169901790805355" lon="8.03214177429286"><ele>1092.6000000000001</ele><time>2026-04-16T13:27:04.982Z</time></trkpt><trkpt lat="44.16987333348586" lon="8.032048885122169"><ele>1091.2</ele><time>2026-04-16T13:27:05.982Z</time></trkpt><trkpt lat="44.169822329608955" lon="8.031965198785601"><ele>1089.8000000000002</ele><time>2026-04-16T13:27:06.982Z</time></trkpt><trkpt lat="44.16977999152927" lon="8.031894606432589"><ele>1088.4</ele><time>2026-04-16T13:27:07.982Z</time></trkpt><trkpt lat="44.16969538574559" lon="8.031800061279084"><ele>1087.0</ele><time>2026-04-16T13:27:08.982Z</time></trkpt><trkpt lat="44.16959290396552" lon="8.031700737340746"><ele>1092.6</ele><time>2026-04-16T13:27:09.982Z</time></trkpt><trkpt lat="44.1695020899236" lon="8.031611288728994"><ele>1098.2</ele><time>2026-04-16T13:27:10.982Z</time></trkpt><trkpt lat="44.169410398181256" lon="8.031532309483142"><ele>1103.8</ele><time>2026-04-16T13:27:11.982Z</time></trkpt><trkpt lat="44.16932338334889" lon="8.031447465509594"><ele>1109.4</ele><time>2026-04-16T13:27:12.982Z</time></trkpt><trkpt lat="44.16923618518865" lon="8.031363791101878"><ele>1115.0</ele><time>2026-04-16T13:27:13.982Z</time></trkpt><trkpt lat="44.16914870491492" lon="8.031295881092671"><ele>1115.0</ele><time>2026-04-16T13:27:14.982Z</time></trkpt><trkpt lat="44.169070153218684" lon="8.031230804494246"><ele>1115.0</ele><time>2026-04-16T13:27:15.982Z</time></trkpt><trkpt lat="44.16898637786821" lon="8.031174414904017"><ele>1115.0</ele><time>2026-04-16T13:27:16.982Z</time></trkpt><trkpt lat="44.1689127811091" lon="8.0311077366212"><ele>1115.0</ele><time>2026-04-16T13:27:17.982Z</time></trkpt><trkpt lat="44.16884521471273" lon="8.031030713672815"><ele>1115.0</ele><time>2026-04-16T13:27:18.982Z</time></trkpt><trkpt lat="44.168783892405656" lon="8.030942028173026"><ele>1115.0</ele><time>2026-04-16T13:27:19.982Z</time></trkpt><trkpt lat="44.16874381528613" lon="8.030873736487678"><ele>1116.0</ele><time>2026-04-16T13:27:20.982Z</time></trkpt><trkpt lat="44.16868634398722" lon="8.030767271247429"><ele>1117.0</ele><time>2026-04-16T13:27:21.982Z</time></trkpt><trkpt lat="44.16861736033618" lon="8.030688428219785"><ele>1118.0</ele><time>2026-04-16T13:27:22.982Z</time></trkpt><trkpt lat="44.168560510316375" lon="8.030581320310489"><ele>1119.0</ele><time>2026-04-16T13:27:23.982Z</time></trkpt><trkpt lat="44.168489903562545" lon="8.030478791851804"><ele>1120.0</ele><time>2026-04-16T13:27:24.982Z</time></trkpt><trkpt lat="44.16841070531064" lon="8.030386486766352"><ele>1120.0</ele><time>2026-04-16T13:27:25.982Z</time></trkpt><trkpt lat="44.16834098467471" lon="8.030318784533685"><ele>1120.0</ele><time>2026-04-16T13:27:26.982Z</time></trkpt><trkpt lat="44.168278690921284" lon="8.03025074088748"><ele>1120.0</ele><time>2026-04-16T13:27:27.982Z</time></trkpt><trkpt lat="44.16821185249192" lon="8.030188780495598"><ele>1120.0</ele><time>2026-04-16T13:27:28.982Z</time></trkpt><trkpt lat="44.1681475262037" lon="8.030134242747815"><ele>1120.0</ele><time>2026-04-16T13:27:29.982Z</time></trkpt><trkpt lat="44.16809225975941" lon="8.03007842815433"><ele>1120.0</ele><time>2026-04-16T13:27:30.982Z</time></trkpt><trkpt lat="44.1680018277523" lon="8.030080277209409"><ele>1117.6666666666665</ele><time>2026-04-16T13:27:32.982Z</time></trkpt><trkpt lat="44.1679345768519" lon="8.030123010356128"><ele>1115.3333333333333</ele><time>2026-04-16T13:27:33.982Z</time></trkpt><trkpt lat="44.16783976223309" lon="8.030128362408309"><ele>1113.0</ele><time>2026-04-16T13:27:34.982Z</time></trkpt><trkpt lat="44.16775813780474" lon="8.030120717202292"><ele>1110.6666666666667</ele><time>2026-04-16T13:27:35.982Z</time></trkpt><trkpt lat="44.16769391113348" lon="8.030093997418827"><ele>1108.3333333333335</ele><time>2026-04-16T13:27:36.982Z</time></trkpt><trkpt lat="44.167625011879394" lon="8.03004236640278"><ele>1106.0</ele><time>2026-04-16T13:27:37.982Z</time></trkpt><trkpt lat="44.16757904753534" lon="8.029981756449539"><ele>1109.3999999999999</ele><time>2026-04-16T13:27:38.982Z</time></trkpt><trkpt lat="44.16750355560295" lon="8.0299016330179"><ele>1112.8</ele><time>2026-04-16T13:27:39.982Z</time></trkpt><trkpt lat="44.1674332596072" lon="8.029819180074544"><ele>1116.1999999999998</ele><time>2026-04-16T13:27:40.982Z</time></trkpt><trkpt lat="44.16736113579318" lon="8.029730266909064"><ele>1119.6</ele><time>2026-04-16T13:27:41.982Z</time></trkpt><trkpt lat="44.167303093947595" lon="8.029660108195078"><ele>1123.0</ele><time>2026-04-16T13:27:42.982Z</time></trkpt><trkpt lat="44.16720145569288" lon="8.029560742972672"><ele>1123.0</ele><time>2026-04-16T13:27:44.982Z</time></trkpt><trkpt lat="44.16711828686305" lon="8.029519085451795"><ele>1123.0</ele><time>2026-04-16T13:27:45.982Z</time></trkpt><trkpt lat="44.167044107312826" lon="8.029497422471117"><ele>1123.0</ele><time>2026-04-16T13:27:46.982Z</time></trkpt><trkpt lat="44.16696978741433" lon="8.029479366268507"><ele>1123.0</ele><time>2026-04-16T13:27:47.982Z</time></trkpt><trkpt lat="44.16687157102019" lon="8.029416865993332"><ele>1123.0</ele><time>2026-04-16T13:27:49.982Z</time></trkpt><trkpt lat="44.166827694922276" lon="8.029335346191774"><ele>1123.0</ele><time>2026-04-16T13:27:50.982Z</time></trkpt><trkpt lat="44.166769447318536" lon="8.029273657942486"><ele>1123.0</ele><time>2026-04-16T13:27:51.982Z</time></trkpt><trkpt lat="44.1667185226425" lon="8.02919330024581"><ele>1123.0</ele><time>2026-04-16T13:27:52.982Z</time></trkpt><trkpt lat="44.166671073717545" lon="8.02912622419713"><ele>1123.0</ele><time>2026-04-16T13:27:53.982Z</time></trkpt><trkpt lat="44.16655331431469" lon="8.028990460651807"><ele>1123.0</ele><time>2026-04-16T13:27:55.982Z</time></trkpt><trkpt lat="44.166505859578336" lon="8.028881185338811"><ele>1123.0</ele><time>2026-04-16T13:27:56.982Z</time></trkpt><trkpt lat="44.16645098745724" lon="8.028773055323514"><ele>1122.1666666666665</ele><time>2026-04-16T13:27:57.982Z</time></trkpt><trkpt lat="44.166396412392764" lon="8.028687297910796"><ele>1121.3333333333333</ele><time>2026-04-16T13:27:58.982Z</time></trkpt><trkpt lat="44.16634101465827" lon="8.028619704367188"><ele>1120.5</ele><time>2026-04-16T13:27:59.982Z</time></trkpt><trkpt lat="44.16627442794415" lon="8.028534414116585"><ele>1119.6666666666667</ele><time>2026-04-16T13:28:00.982Z</time></trkpt><trkpt lat="44.166215993276715" lon="8.02844703754486"><ele>1118.8333333333335</ele><time>2026-04-16T13:28:01.982Z</time></trkpt><trkpt lat="44.16616827479569" lon="8.028333803699457"><ele>1118.0</ele><time>2026-04-16T13:28:02.982Z</time></trkpt><trkpt lat="44.166105383664295" lon="8.028253928170118"><ele>1123.4</ele><time>2026-04-16T13:28:03.982Z</time></trkpt><trkpt lat="44.166045380029104" lon="8.028188462811588"><ele>1128.8</ele><time>2026-04-16T13:28:04.982Z</time></trkpt><trkpt lat="44.165969596792" lon="8.028088285805886"><ele>1134.2</ele><time>2026-04-16T13:28:05.982Z</time></trkpt><trkpt lat="44.165895443365706" lon="8.02798850566923"><ele>1139.6</ele><time>2026-04-16T13:28:06.982Z</time></trkpt><trkpt lat="44.165829411849714" lon="8.027895192701392"><ele>1145.0</ele><time>2026-04-16T13:28:07.982Z</time></trkpt><trkpt lat="44.16577809134768" lon="8.027793192009772"><ele>1145.0</ele><time>2026-04-16T13:28:08.982Z</time></trkpt><trkpt lat="44.16572834191036" lon="8.02767457660565"><ele>1145.0</ele><time>2026-04-16T13:28:09.982Z</time></trkpt><trkpt lat="44.16567072361176" lon="8.02759787058495"><ele>1145.0</ele><time>2026-04-16T13:28:10.982Z</time></trkpt><trkpt lat="44.16561967629434" lon="8.027532063075668"><ele>1145.0</ele><time>2026-04-16T13:28:11.982Z</time></trkpt><trkpt lat="44.165570779689645" lon="8.027466226446492"><ele>1145.0</ele><time>2026-04-16T13:28:12.982Z</time></trkpt><trkpt lat="44.16554627978926" lon="8.027293739201243"><ele>1145.0</ele><time>2026-04-16T13:28:14.982Z</time></trkpt><trkpt lat="44.16557528870215" lon="8.0272031597035"><ele>1145.0</ele><time>2026-04-16T13:28:15.982Z</time></trkpt><trkpt lat="44.16561806957262" lon="8.027118889451089"><ele>1145.0</ele><time>2026-04-16T13:28:16.982Z</time></trkpt><trkpt lat="44.165678502901976" lon="8.027041769081574"><ele>1145.0</ele><time>2026-04-16T13:28:17.982Z</time></trkpt><trkpt lat="44.165743814293506" lon="8.026948388423778"><ele>1145.0</ele><time>2026-04-16T13:28:18.982Z</time></trkpt><trkpt lat="44.165767385205186" lon="8.026824944753589"><ele>1145.0</ele><time>2026-04-16T13:28:19.982Z</time></trkpt><trkpt lat="44.16577710801472" lon="8.026683182602714"><ele>1145.0</ele><time>2026-04-16T13:28:20.982Z</time></trkpt><trkpt lat="44.16577662513686" lon="8.02652674269868"><ele>1145.0</ele><time>2026-04-16T13:28:21.982Z</time></trkpt><trkpt lat="44.165784317964864" lon="8.026384400768784"><ele>1145.0</ele><time>2026-04-16T13:28:22.982Z</time></trkpt><trkpt lat="44.16578974434551" lon="8.026268771331692"><ele>1145.0</ele><time>2026-04-16T13:28:23.982Z</time></trkpt><trkpt lat="44.16580521460049" lon="8.026179831029538"><ele>1145.0</ele><time>2026-04-16T13:28:24.982Z</time></trkpt><trkpt lat="44.16582256221709" lon="8.02606881304925"><ele>1145.0</ele><time>2026-04-16T13:28:25.982Z</time></trkpt><trkpt lat="44.16583373855835" lon="8.025977212409146"><ele>1145.0</ele><time>2026-04-16T13:28:26.982Z</time></trkpt><trkpt lat="44.165882913176375" lon="8.025842199021792"><ele>1146.0</ele><time>2026-04-16T13:28:28.982Z</time></trkpt><trkpt lat="44.16597475265664" lon="8.025779459825394"><ele>1147.0</ele><time>2026-04-16T13:28:30.982Z</time></trkpt><trkpt lat="44.16605593864027" lon="8.025692965817086"><ele>1148.0</ele><time>2026-04-16T13:28:32.982Z</time></trkpt><trkpt lat="44.16610640262135" lon="8.025536238909558"><ele>1149.0</ele><time>2026-04-16T13:28:34.982Z</time></trkpt><trkpt lat="44.16609711549397" lon="8.02543345083345"><ele>1150.0</ele><time>2026-04-16T13:28:35.982Z</time></trkpt><trkpt lat="44.16604693826503" lon="8.025309710433408"><ele>1150.0</ele><time>2026-04-16T13:28:36.982Z</time></trkpt><trkpt lat="44.16600980487642" lon="8.025208923505573"><ele>1150.0</ele><time>2026-04-16T13:28:37.982Z</time></trkpt><trkpt lat="44.165974441389984" lon="8.025131565238746"><ele>1150.0</ele><time>2026-04-16T13:28:38.982Z</time></trkpt><trkpt lat="44.16595513952347" lon="8.025029658209101"><ele>1150.0</ele><time>2026-04-16T13:28:39.982Z</time></trkpt><trkpt lat="44.16593975955729" lon="8.024926392463032"><ele>1150.0</ele><time>2026-04-16T13:28:40.982Z</time></trkpt><trkpt lat="44.165922028290694" lon="8.024820056115695"><ele>1150.0</ele><time>2026-04-16T13:28:41.982Z</time></trkpt><trkpt lat="44.16587140132674" lon="8.024647796146935"><ele>1149.0</ele><time>2026-04-16T13:28:43.982Z</time></trkpt><trkpt lat="44.165830394834444" lon="8.024562757406144"><ele>1148.0</ele><time>2026-04-16T13:28:44.982Z</time></trkpt><trkpt lat="44.16578081689433" lon="8.024465317118558"><ele>1147.0</ele><time>2026-04-16T13:28:45.982Z</time></trkpt><trkpt lat="44.16573027794315" lon="8.024382164763464"><ele>1146.0</ele><time>2026-04-16T13:28:46.982Z</time></trkpt><trkpt lat="44.1656695899057" lon="8.02427668096332"><ele>1145.0</ele><time>2026-04-16T13:28:47.982Z</time></trkpt><trkpt lat="44.16561315841849" lon="8.02419591556073"><ele>1144.0</ele><time>2026-04-16T13:28:48.982Z</time></trkpt><trkpt lat="44.16555481283585" lon="8.024125142320225"><ele>1148.8333333333333</ele><time>2026-04-16T13:28:49.982Z</time></trkpt><trkpt lat="44.16550646881664" lon="8.024061339904339"><ele>1153.6666666666665</ele><time>2026-04-16T13:28:50.981Z</time></trkpt><trkpt lat="44.165442623241155" lon="8.023993381611188"><ele>1158.5</ele><time>2026-04-16T13:28:51.981Z</time></trkpt><trkpt lat="44.165393154853014" lon="8.023922415572203"><ele>1163.3333333333333</ele><time>2026-04-16T13:28:52.981Z</time></trkpt><trkpt lat="44.16531338048767" lon="8.02383229492213"><ele>1168.1666666666667</ele><time>2026-04-16T13:28:53.981Z</time></trkpt><trkpt lat="44.16525730467406" lon="8.02373008145185"><ele>1173.0</ele><time>2026-04-16T13:28:54.981Z</time></trkpt><trkpt lat="44.16520464795426" lon="8.023616883053595"><ele>1173.0</ele><time>2026-04-16T13:28:55.981Z</time></trkpt><trkpt lat="44.16515726796554" lon="8.023508837059316"><ele>1173.0</ele><time>2026-04-16T13:28:56.981Z</time></trkpt><trkpt lat="44.16510759093229" lon="8.023419159922922"><ele>1173.0</ele><time>2026-04-16T13:28:57.981Z</time></trkpt><trkpt lat="44.16506049241301" lon="8.023344195397035"><ele>1173.0</ele><time>2026-04-16T13:28:58.981Z</time></trkpt><trkpt lat="44.16501584284455" lon="8.023277933764243"><ele>1173.0</ele><time>2026-04-16T13:28:59.981Z</time></trkpt><trkpt lat="44.16495817876031" lon="8.023241489482238"><ele>1173.0</ele><time>2026-04-16T13:29:00.981Z</time></trkpt><trkpt lat="44.16488011825217" lon="8.023166177900237"><ele>1173.8333333333333</ele><time>2026-04-16T13:29:01.981Z</time></trkpt><trkpt lat="44.1648267953227" lon="8.02309970622914"><ele>1174.6666666666667</ele><time>2026-04-16T13:29:02.98Z</time></trkpt><trkpt lat="44.16475341288442" lon="8.022979557819864"><ele>1175.5</ele><time>2026-04-16T13:29:04.981Z</time></trkpt><trkpt lat="44.16468921954141" lon="8.022903375961535"><ele>1176.3333333333335</ele><time>2026-04-16T13:29:05.981Z</time></trkpt><trkpt lat="44.164646066768434" lon="8.022814764556156"><ele>1177.1666666666667</ele><time>2026-04-16T13:29:06.981Z</time></trkpt><trkpt lat="44.16460754259726" lon="8.02273387811236"><ele>1178.0</ele><time>2026-04-16T13:29:07.981Z</time></trkpt><trkpt lat="44.16453709383515" lon="8.022648890265609"><ele>1178.0</ele><time>2026-04-16T13:29:08.981Z</time></trkpt><trkpt lat="44.16447145677969" lon="8.022555681895742"><ele>1178.0</ele><time>2026-04-16T13:29:09.981Z</time></trkpt><trkpt lat="44.164414082574545" lon="8.022483651716726"><ele>1178.0</ele><time>2026-04-16T13:29:10.981Z</time></trkpt><trkpt lat="44.16441018390091" lon="8.022324720685676"><ele>1178.0</ele><time>2026-04-16T13:29:12.981Z</time></trkpt><trkpt lat="44.16441475884965" lon="8.022165275288405"><ele>1178.0</ele><time>2026-04-16T13:29:14.981Z</time></trkpt><trkpt lat="44.1644031067002" lon="8.022025800193589"><ele>1180.3333333333335</ele><time>2026-04-16T13:29:16.981Z</time></trkpt><trkpt lat="44.16435991853278" lon="8.021926527805666"><ele>1182.6666666666667</ele><time>2026-04-16T13:29:19.981Z</time></trkpt><trkpt lat="44.164292766842294" lon="8.021894677531778"><ele>1185.0</ele><time>2026-04-16T13:29:25.981Z</time></trkpt><trkpt lat="44.164229062543754" lon="8.021854431660591"><ele>1187.3333333333333</ele><time>2026-04-16T13:29:46.981Z</time></trkpt><trkpt lat="44.16425626541203" lon="8.021765352972668"><ele>1189.6666666666665</ele><time>2026-04-16T13:29:48.981Z</time></trkpt><trkpt lat="44.164310043955425" lon="8.02169885457874"><ele>1192.0</ele><time>2026-04-16T13:29:50.981Z</time></trkpt><trkpt lat="44.16436551486911" lon="8.021608366841562"><ele>1192.0</ele><time>2026-04-16T13:29:52.981Z</time></trkpt><trkpt lat="44.164463727817385" lon="8.021542925053879"><ele>1192.0</ele><time>2026-04-16T13:29:54.981Z</time></trkpt><trkpt lat="44.16454724809083" lon="8.02152216885201"><ele>1192.0</ele><time>2026-04-16T13:29:56.981Z</time></trkpt><trkpt lat="44.16459285885941" lon="8.021428331466682"><ele>1192.0</ele><time>2026-04-16T13:29:59.981Z</time></trkpt><trkpt lat="44.16454102516413" lon="8.021351162074962"><ele>1192.0</ele><time>2026-04-16T13:30:01.981Z</time></trkpt><trkpt lat="44.16447060709555" lon="8.021247300145518"><ele>1192.0</ele><time>2026-04-16T13:30:03.981Z</time></trkpt><trkpt lat="44.164415602864075" lon="8.021132916318267"><ele>1192.0</ele><time>2026-04-16T13:30:05.981Z</time></trkpt><trkpt lat="44.164447099365496" lon="8.021043641523999"><ele>1192.0</ele><time>2026-04-16T13:30:08.981Z</time></trkpt><trkpt lat="44.16454999891131" lon="8.021036715703742"><ele>1192.0</ele><time>2026-04-16T13:30:12.981Z</time></trkpt><trkpt lat="44.16466244402305" lon="8.0210677879453"><ele>1192.0</ele><time>2026-04-16T13:30:14.981Z</time></trkpt><trkpt lat="44.16477464187513" lon="8.021076348474535"><ele>1183.4</ele><time>2026-04-16T13:30:16.981Z</time></trkpt><trkpt lat="44.16486397523214" lon="8.021090348834203"><ele>1174.8000000000002</ele><time>2026-04-16T13:30:18.981Z</time></trkpt><trkpt lat="44.16495597705061" lon="8.021084554616145"><ele>1166.2</ele><time>2026-04-16T13:30:20.981Z</time></trkpt><trkpt lat="44.165066241115596" lon="8.021126179475882"><ele>1157.6000000000001</ele><time>2026-04-16T13:30:22.981Z</time></trkpt><trkpt lat="44.1651842134596" lon="8.021137871591783"><ele>1149.0</ele><time>2026-04-16T13:30:24.981Z</time></trkpt><trkpt lat="44.16524513070633" lon="8.021190399222045"><ele>1149.0</ele><time>2026-04-16T13:30:26.981Z</time></trkpt><trkpt lat="44.16533175115908" lon="8.021268390812168"><ele>1149.0</ele><time>2026-04-16T13:30:28.981Z</time></trkpt><trkpt lat="44.16541381258572" lon="8.021307152520775"><ele>1149.0</ele><time>2026-04-16T13:30:31.981Z</time></trkpt><trkpt lat="44.16549856500732" lon="8.021327277350728"><ele>1149.0</ele><time>2026-04-16T13:30:33.981Z</time></trkpt><trkpt lat="44.16559939713631" lon="8.02131709701384"><ele>1149.0</ele><time>2026-04-16T13:30:35.981Z</time></trkpt><trkpt lat="44.16566213489344" lon="8.021342492661093"><ele>1149.0</ele><time>2026-04-16T13:30:37.981Z</time></trkpt><trkpt lat="44.16577205496676" lon="8.021365638664868"><ele>1146.1666666666667</ele><time>2026-04-16T13:30:39.981Z</time></trkpt><trkpt lat="44.165837072158794" lon="8.021375603315139"><ele>1143.3333333333333</ele><time>2026-04-16T13:30:40.981Z</time></trkpt><trkpt lat="44.16591745383402" lon="8.021344971450034"><ele>1140.5</ele><time>2026-04-16T13:30:42.981Z</time></trkpt><trkpt lat="44.165980609425034" lon="8.02129876339993"><ele>1137.6666666666665</ele><time>2026-04-16T13:30:44.981Z</time></trkpt><trkpt lat="44.16606349075115" lon="8.02125460362593"><ele>1134.8333333333333</ele><time>2026-04-16T13:30:46.981Z</time></trkpt><trkpt lat="44.16615381188644" lon="8.021171135676209"><ele>1132.0</ele><time>2026-04-16T13:30:48.981Z</time></trkpt><trkpt lat="44.16624947881456" lon="8.021100221830968"><ele>1132.0</ele><time>2026-04-16T13:30:50.981Z</time></trkpt><trkpt lat="44.16635393999781" lon="8.021042376725642"><ele>1132.0</ele><time>2026-04-16T13:30:51.981Z</time></trkpt><trkpt lat="44.16643177486745" lon="8.021025640764321"><ele>1132.0</ele><time>2026-04-16T13:30:52.981Z</time></trkpt><trkpt lat="44.166494109520244" lon="8.021039896991477"><ele>1132.0</ele><time>2026-04-16T13:30:53.981Z</time></trkpt><trkpt lat="44.16656196117751" lon="8.021061916552947"><ele>1132.0</ele><time>2026-04-16T13:30:54.981Z</time></trkpt><trkpt lat="44.16662705998881" lon="8.021081714430503"><ele>1132.0</ele><time>2026-04-16T13:30:55.981Z</time></trkpt><trkpt lat="44.166705953080275" lon="8.021094928582754"><ele>1131.6</ele><time>2026-04-16T13:30:56.98Z</time></trkpt><trkpt lat="44.16679384111897" lon="8.021051577490017"><ele>1131.2</ele><time>2026-04-16T13:30:58.98Z</time></trkpt><trkpt lat="44.166878742853754" lon="8.020923379218331"><ele>1130.8</ele><time>2026-04-16T13:31:01.98Z</time></trkpt><trkpt lat="44.16694805566484" lon="8.020863809974472"><ele>1130.4</ele><time>2026-04-16T13:31:02.98Z</time></trkpt><trkpt lat="44.16704499884098" lon="8.020783734213536"><ele>1130.0</ele><time>2026-04-16T13:31:03.98Z</time></trkpt><trkpt lat="44.167134292749736" lon="8.02073069556607"><ele>1122.4</ele><time>2026-04-16T13:31:04.98Z</time></trkpt><trkpt lat="44.1672191162959" lon="8.020692144943974"><ele>1114.8</ele><time>2026-04-16T13:31:05.98Z</time></trkpt><trkpt lat="44.1672903555557" lon="8.020689819052869"><ele>1107.2</ele><time>2026-04-16T13:31:06.979Z</time></trkpt><trkpt lat="44.167357518380506" lon="8.020684853173126"><ele>1099.6</ele><time>2026-04-16T13:31:07.979Z</time></trkpt><trkpt lat="44.167497578167605" lon="8.020728815780144"><ele>1092.0</ele><time>2026-04-16T13:31:09.98Z</time></trkpt><trkpt lat="44.16759309621077" lon="8.020732429779391"><ele>1092.0</ele><time>2026-04-16T13:31:10.98Z</time></trkpt><trkpt lat="44.16768050999539" lon="8.020737633912386"><ele>1092.0</ele><time>2026-04-16T13:31:11.98Z</time></trkpt><trkpt lat="44.1678108112095" lon="8.020768445866851"><ele>1092.0</ele><time>2026-04-16T13:31:13.98Z</time></trkpt><trkpt lat="44.16787855250857" lon="8.02077092098028"><ele>1092.0</ele><time>2026-04-16T13:31:14.98Z</time></trkpt><trkpt lat="44.167945104908206" lon="8.020777688020976"><ele>1092.0</ele><time>2026-04-16T13:31:15.98Z</time></trkpt><trkpt lat="44.16801786574415" lon="8.020795358784321"><ele>1092.0</ele><time>2026-04-16T13:31:16.98Z</time></trkpt><trkpt lat="44.1681355927235" lon="8.020833852265119"><ele>1097.1666666666667</ele><time>2026-04-16T13:31:18.98Z</time></trkpt><trkpt lat="44.16821854903545" lon="8.020875857197316"><ele>1102.3333333333333</ele><time>2026-04-16T13:31:19.98Z</time></trkpt><trkpt lat="44.168294779118455" lon="8.020890587656025"><ele>1107.5</ele><time>2026-04-16T13:31:20.98Z</time></trkpt><trkpt lat="44.168393188648736" lon="8.020906273795312"><ele>1112.6666666666665</ele><time>2026-04-16T13:31:21.98Z</time></trkpt><trkpt lat="44.16846837595471" lon="8.02091688994314"><ele>1117.8333333333333</ele><time>2026-04-16T13:31:22.98Z</time></trkpt><trkpt lat="44.16854384115092" lon="8.020923358891585"><ele>1123.0</ele><time>2026-04-16T13:31:23.98Z</time></trkpt><trkpt lat="44.168633102080506" lon="8.020933847745068"><ele>1123.0</ele><time>2026-04-16T13:31:25.98Z</time></trkpt><trkpt lat="44.168699581114105" lon="8.020927250437397"><ele>1123.0</ele><time>2026-04-16T13:31:26.98Z</time></trkpt><trkpt lat="44.168766767431876" lon="8.020930218417107"><ele>1123.0</ele><time>2026-04-16T13:31:27.98Z</time></trkpt><trkpt lat="44.16884290406188" lon="8.020896930000427"><ele>1123.0</ele><time>2026-04-16T13:31:29.98Z</time></trkpt><trkpt lat="44.16891718227732" lon="8.020898098478808"><ele>1123.0</ele><time>2026-04-16T13:31:32.98Z</time></trkpt><trkpt lat="44.16903411806519" lon="8.02092742719039"><ele>1123.0</ele><time>2026-04-16T13:31:34.98Z</time></trkpt><trkpt lat="44.16913501415276" lon="8.020946727162814"><ele>1120.6666666666665</ele><time>2026-04-16T13:31:36.98Z</time></trkpt><trkpt lat="44.169202283793275" lon="8.020964165736576"><ele>1118.3333333333333</ele><time>2026-04-16T13:31:37.98Z</time></trkpt><trkpt lat="44.16933698055457" lon="8.020964403547964"><ele>1116.0</ele><time>2026-04-16T13:31:39.98Z</time></trkpt><trkpt lat="44.16942054334522" lon="8.020962346458944"><ele>1113.6666666666667</ele><time>2026-04-16T13:31:40.98Z</time></trkpt><trkpt lat="44.169493401942205" lon="8.021001036839289"><ele>1111.3333333333335</ele><time>2026-04-16T13:31:41.98Z</time></trkpt><trkpt lat="44.16956246018309" lon="8.021060866922102"><ele>1109.0</ele><time>2026-04-16T13:31:42.98Z</time></trkpt><trkpt lat="44.16962232419302" lon="8.021131626818748"><ele>1109.0</ele><time>2026-04-16T13:31:43.98Z</time></trkpt><trkpt lat="44.16975887791328" lon="8.02121747917533"><ele>1109.0</ele><time>2026-04-16T13:31:45.98Z</time></trkpt><trkpt lat="44.1698381287168" lon="8.021269009795954"><ele>1109.0</ele><time>2026-04-16T13:31:46.98Z</time></trkpt><trkpt lat="44.16991189794286" lon="8.021318340967253"><ele>1109.0</ele><time>2026-04-16T13:31:47.98Z</time></trkpt><trkpt lat="44.16997279812655" lon="8.021345988891682"><ele>1109.0</ele><time>2026-04-16T13:31:48.98Z</time></trkpt><trkpt lat="44.170070923534404" lon="8.021384423965843"><ele>1109.8</ele><time>2026-04-16T13:31:50.98Z</time></trkpt><trkpt lat="44.17016473486859" lon="8.021462221119993"><ele>1110.6000000000001</ele><time>2026-04-16T13:31:52.98Z</time></trkpt><trkpt lat="44.17023703378076" lon="8.021558502922456"><ele>1111.4</ele><time>2026-04-16T13:31:54.98Z</time></trkpt><trkpt lat="44.17030026136052" lon="8.02160847545031"><ele>1112.2</ele><time>2026-04-16T13:31:55.98Z</time></trkpt><trkpt lat="44.17036556781126" lon="8.0217027002667"><ele>1113.0</ele><time>2026-04-16T13:31:57.98Z</time></trkpt><trkpt lat="44.17041303491519" lon="8.021830705064065"><ele>1113.0</ele><time>2026-04-16T13:31:59.98Z</time></trkpt><trkpt lat="44.17046251589608" lon="8.021961009540405"><ele>1113.0</ele><time>2026-04-16T13:32:01.98Z</time></trkpt><trkpt lat="44.17054066315934" lon="8.021987299905303"><ele>1113.0</ele><time>2026-04-16T13:32:03.98Z</time></trkpt><trkpt lat="44.170630907499245" lon="8.022003485408082"><ele>1113.0</ele><time>2026-04-16T13:32:05.98Z</time></trkpt><trkpt lat="44.17071448660802" lon="8.021990067526904"><ele>1113.0</ele><time>2026-04-16T13:32:07.98Z</time></trkpt><trkpt lat="44.17079497777131" lon="8.022014956513258"><ele>1113.0</ele><time>2026-04-16T13:32:08.98Z</time></trkpt><trkpt lat="44.17087681906176" lon="8.022046262147038"><ele>1108.4</ele><time>2026-04-16T13:32:09.98Z</time></trkpt><trkpt lat="44.170951040876055" lon="8.022109584415492"><ele>1103.8</ele><time>2026-04-16T13:32:10.98Z</time></trkpt><trkpt lat="44.17100185948467" lon="8.022161652663812"><ele>1099.2</ele><time>2026-04-16T13:32:11.98Z</time></trkpt><trkpt lat="44.171054872893336" lon="8.022215931303807"><ele>1094.6</ele><time>2026-04-16T13:32:12.98Z</time></trkpt><trkpt lat="44.17112698830982" lon="8.02232373226192"><ele>1090.0</ele><time>2026-04-16T13:32:14.98Z</time></trkpt><trkpt lat="44.17122164646089" lon="8.022476155160692"><ele>1089.4</ele><time>2026-04-16T13:32:16.98Z</time></trkpt><trkpt lat="44.17128330767243" lon="8.022600763290285"><ele>1088.8</ele><time>2026-04-16T13:32:18.98Z</time></trkpt><trkpt lat="44.171334831735564" lon="8.02270415784729"><ele>1088.2</ele><time>2026-04-16T13:32:20.98Z</time></trkpt><trkpt lat="44.171454329885655" lon="8.022757688476053"><ele>1087.6</ele><time>2026-04-16T13:32:22.98Z</time></trkpt><trkpt lat="44.1715517856593" lon="8.022800258194287"><ele>1087.0</ele><time>2026-04-16T13:32:23.98Z</time></trkpt><trkpt lat="44.17163861283942" lon="8.022823052181991"><ele>1087.0</ele><time>2026-04-16T13:32:24.98Z</time></trkpt><trkpt lat="44.171740697225694" lon="8.022828613072317"><ele>1087.0</ele><time>2026-04-16T13:32:26.98Z</time></trkpt><trkpt lat="44.17180672610191" lon="8.02283927670732"><ele>1087.0</ele><time>2026-04-16T13:32:30.98Z</time></trkpt><trkpt lat="44.17189420261699" lon="8.02284300700405"><ele>1087.0</ele><time>2026-04-16T13:32:35.98Z</time></trkpt><trkpt lat="44.171957806717046" lon="8.022868175939909"><ele>1087.0</ele><time>2026-04-16T13:32:37.98Z</time></trkpt><trkpt lat="44.17206379235607" lon="8.02287772553766"><ele>1087.0</ele><time>2026-04-16T13:32:39.98Z</time></trkpt><trkpt lat="44.17215273913535" lon="8.022861610546597"><ele>1087.0</ele><time>2026-04-16T13:32:41.98Z</time></trkpt><trkpt lat="44.17225794538686" lon="8.022823968755729"><ele>1087.0</ele><time>2026-04-16T13:32:43.98Z</time></trkpt><trkpt lat="44.172364803984" lon="8.022813260275285"><ele>1087.0</ele><time>2026-04-16T13:32:45.98Z</time></trkpt><trkpt lat="44.17244228143848" lon="8.022821752941004"><ele>1087.0</ele><time>2026-04-16T13:32:46.98Z</time></trkpt><trkpt lat="44.17250868054137" lon="8.022854197807778"><ele>1087.0</ele><time>2026-04-16T13:32:47.98Z</time></trkpt><trkpt lat="44.17258779172892" lon="8.022890441598708"><ele>1087.0</ele><time>2026-04-16T13:32:48.98Z</time></trkpt><trkpt lat="44.17266581428098" lon="8.02289540146423"><ele>1084.6</ele><time>2026-04-16T13:32:49.98Z</time></trkpt><trkpt lat="44.17277790081351" lon="8.022882973423037"><ele>1082.2</ele><time>2026-04-16T13:32:51.98Z</time></trkpt><trkpt lat="44.17289577132419" lon="8.022941798761726"><ele>1079.8</ele><time>2026-04-16T13:32:53.98Z</time></trkpt><trkpt lat="44.172970584879614" lon="8.022959650798095"><ele>1077.4</ele><time>2026-04-16T13:32:54.98Z</time></trkpt><trkpt lat="44.173047448319615" lon="8.022964163625295"><ele>1075.0</ele><time>2026-04-16T13:32:55.98Z</time></trkpt><trkpt lat="44.17312781873926" lon="8.022941585093673"><ele>1073.6666666666665</ele><time>2026-04-16T13:32:56.98Z</time></trkpt><trkpt lat="44.17321092325122" lon="8.022906333477863"><ele>1072.3333333333333</ele><time>2026-04-16T13:32:57.98Z</time></trkpt><trkpt lat="44.17327968600058" lon="8.022883267932011"><ele>1071.0</ele><time>2026-04-16T13:32:58.98Z</time></trkpt><trkpt lat="44.173376134359906" lon="8.022876771197273"><ele>1069.6666666666667</ele><time>2026-04-16T13:33:00.98Z</time></trkpt><trkpt lat="44.17346638847287" lon="8.022855691243944"><ele>1068.3333333333335</ele><time>2026-04-16T13:33:02.979Z</time></trkpt><trkpt lat="44.173567238386156" lon="8.022862595839705"><ele>1067.0</ele><time>2026-04-16T13:33:04.979Z</time></trkpt><trkpt lat="44.17363319689272" lon="8.022879861995287"><ele>1067.0</ele><time>2026-04-16T13:33:05.98Z</time></trkpt><trkpt lat="44.173734490838335" lon="8.022848486450467"><ele>1067.0</ele><time>2026-04-16T13:33:07.979Z</time></trkpt><trkpt lat="44.17380330934318" lon="8.022832228113726"><ele>1067.0</ele><time>2026-04-16T13:33:08.979Z</time></trkpt><trkpt lat="44.173927142485844" lon="8.022821780815688"><ele>1067.0</ele><time>2026-04-16T13:33:10.979Z</time></trkpt><trkpt lat="44.173989643973115" lon="8.022833483012116"><ele>1067.0</ele><time>2026-04-16T13:33:11.979Z</time></trkpt><trkpt lat="44.17407081210643" lon="8.022847762483307"><ele>1067.0</ele><time>2026-04-16T13:33:12.979Z</time></trkpt><trkpt lat="44.17416694789439" lon="8.02284667048814"><ele>1065.4</ele><time>2026-04-16T13:33:13.979Z</time></trkpt><trkpt lat="44.17425668615369" lon="8.022849484176195"><ele>1063.8000000000002</ele><time>2026-04-16T13:33:14.979Z</time></trkpt><trkpt lat="44.174345436272105" lon="8.02285196849848"><ele>1062.2</ele><time>2026-04-16T13:33:15.979Z</time></trkpt><trkpt lat="44.174450689712295" lon="8.022869153640944"><ele>1060.6000000000001</ele><time>2026-04-16T13:33:16.979Z</time></trkpt><trkpt lat="44.17452372303794" lon="8.02288271775898"><ele>1059.0</ele><time>2026-04-16T13:33:17.979Z</time></trkpt><trkpt lat="44.174637580990115" lon="8.022902124471292"><ele>1059.0</ele><time>2026-04-16T13:33:19.979Z</time></trkpt><trkpt lat="44.17475223800667" lon="8.022897077794687"><ele>1059.0</ele><time>2026-04-16T13:33:21.979Z</time></trkpt><trkpt lat="44.174819414489" lon="8.022899031474074"><ele>1059.0</ele><time>2026-04-16T13:33:22.979Z</time></trkpt><trkpt lat="44.17489462289761" lon="8.022931463966954"><ele>1059.0</ele><time>2026-04-16T13:33:23.979Z</time></trkpt><trkpt lat="44.17499061384133" lon="8.02298918679214"><ele>1059.0</ele><time>2026-04-16T13:33:25.979Z</time></trkpt><trkpt lat="44.17506986000148" lon="8.0229965358674"><ele>1059.0</ele><time>2026-04-16T13:33:27.979Z</time></trkpt><trkpt lat="44.17513074177231" lon="8.02303721109644"><ele>1055.8</ele><time>2026-04-16T13:33:29.979Z</time></trkpt><trkpt lat="44.17528002594988" lon="8.023029974906828"><ele>1052.6000000000001</ele><time>2026-04-16T13:33:47.979Z</time></trkpt><trkpt lat="44.175368512642486" lon="8.023000487046549"><ele>1049.4</ele><time>2026-04-16T13:33:50.979Z</time></trkpt><trkpt lat="44.17544587276383" lon="8.022888975819258"><ele>1046.2</ele><time>2026-04-16T13:33:53.979Z</time></trkpt><trkpt lat="44.17550242748184" lon="8.022838435117372"><ele>1043.0</ele><time>2026-04-16T13:33:54.979Z</time></trkpt><trkpt lat="44.175570056423034" lon="8.022764081849889"><ele>1043.0</ele><time>2026-04-16T13:33:56.979Z</time></trkpt><trkpt lat="44.17566359417045" lon="8.022706096217176"><ele>1043.0</ele><time>2026-04-16T13:33:59.979Z</time></trkpt><trkpt lat="44.17577147403117" lon="8.022676679008667"><ele>1043.0</ele><time>2026-04-16T13:34:01.979Z</time></trkpt><trkpt lat="44.1758804668406" lon="8.022660670020054"><ele>1043.0</ele><time>2026-04-16T13:34:03.979Z</time></trkpt><trkpt lat="44.17596248116816" lon="8.022597953497257"><ele>1043.0</ele><time>2026-04-16T13:34:05.979Z</time></trkpt><trkpt lat="44.17603077173036" lon="8.02254539525875"><ele>1043.4</ele><time>2026-04-16T13:34:06.979Z</time></trkpt><trkpt lat="44.17609511290256" lon="8.022503688649298"><ele>1043.8</ele><time>2026-04-16T13:34:07.979Z</time></trkpt><trkpt lat="44.1762100271318" lon="8.022444034915182"><ele>1044.2</ele><time>2026-04-16T13:34:09.979Z</time></trkpt><trkpt lat="44.17630798597926" lon="8.022371677576054"><ele>1044.6</ele><time>2026-04-16T13:34:11.979Z</time></trkpt><trkpt lat="44.176405611139884" lon="8.022318629906872"><ele>1045.0</ele><time>2026-04-16T13:34:13.979Z</time></trkpt><trkpt lat="44.17650906638614" lon="8.022244572584963"><ele>1043.2857142857142</ele><time>2026-04-16T13:34:15.979Z</time></trkpt><trkpt lat="44.176575347037605" lon="8.02219944359871"><ele>1041.5714285714284</ele><time>2026-04-16T13:34:16.979Z</time></trkpt><trkpt lat="44.176636351759186" lon="8.02216067400776"><ele>1039.857142857143</ele><time>2026-04-16T13:34:17.979Z</time></trkpt><trkpt lat="44.17670450468318" lon="8.02210757236554"><ele>1038.142857142857</ele><time>2026-04-16T13:34:18.979Z</time></trkpt><trkpt lat="44.17676213301572" lon="8.022063787090785"><ele>1036.4285714285716</ele><time>2026-04-16T13:34:19.979Z</time></trkpt><trkpt lat="44.176832656981695" lon="8.022030490036055"><ele>1034.7142857142858</ele><time>2026-04-16T13:34:20.979Z</time></trkpt><trkpt lat="44.1769003165525" lon="8.021995771232318"><ele>1033.0</ele><time>2026-04-16T13:34:21.979Z</time></trkpt><trkpt lat="44.17701022249408" lon="8.021919194203928"><ele>1033.0</ele><time>2026-04-16T13:34:23.979Z</time></trkpt><trkpt lat="44.17705830781279" lon="8.021860131787308"><ele>1033.0</ele><time>2026-04-16T13:34:24.979Z</time></trkpt><trkpt lat="44.17710644473049" lon="8.021761138171152"><ele>1033.0</ele><time>2026-04-16T13:34:25.979Z</time></trkpt><trkpt lat="44.17715509210025" lon="8.0217007698613"><ele>1033.0</ele><time>2026-04-16T13:34:26.979Z</time></trkpt><trkpt lat="44.17719969787037" lon="8.02161317976385"><ele>1033.0</ele><time>2026-04-16T13:34:27.979Z</time></trkpt><trkpt lat="44.177314522551534" lon="8.021516740889709"><ele>1033.0</ele><time>2026-04-16T13:34:29.979Z</time></trkpt><trkpt lat="44.17739816702921" lon="8.02143996245018"><ele>1031.4285714285716</ele><time>2026-04-16T13:34:31.979Z</time></trkpt><trkpt lat="44.177467698325756" lon="8.021429108132038"><ele>1029.857142857143</ele><time>2026-04-16T13:34:33.979Z</time></trkpt><trkpt lat="44.17753260899866" lon="8.02141664605458"><ele>1028.2857142857142</ele><time>2026-04-16T13:34:35.979Z</time></trkpt><trkpt lat="44.177620704482536" lon="8.021393027725424"><ele>1026.7142857142858</ele><time>2026-04-16T13:34:37.979Z</time></trkpt><trkpt lat="44.17768409233272" lon="8.021381818874225"><ele>1025.142857142857</ele><time>2026-04-16T13:34:38.979Z</time></trkpt><trkpt lat="44.17776503701303" lon="8.021368371235893"><ele>1023.5714285714286</ele><time>2026-04-16T13:34:40.979Z</time></trkpt><trkpt lat="44.1778226211586" lon="8.021332256693519"><ele>1022.0</ele><time>2026-04-16T13:34:42.979Z</time></trkpt><trkpt lat="44.17792637422766" lon="8.021310598318362"><ele>1022.0000000000001</ele><time>2026-04-16T13:34:45.979Z</time></trkpt><trkpt lat="44.178002506232836" lon="8.021350667065347"><ele>1022.0</ele><time>2026-04-16T13:34:48.979Z</time></trkpt><trkpt lat="44.17805860928711" lon="8.021407725712747"><ele>1022.0</ele><time>2026-04-16T13:34:50.979Z</time></trkpt><trkpt lat="44.178111168907684" lon="8.021467914857006"><ele>1022.0</ele><time>2026-04-16T13:34:52.979Z</time></trkpt><trkpt lat="44.178195111732876" lon="8.021542348310602"><ele>1022.0000000000001</ele><time>2026-04-16T13:34:55.979Z</time></trkpt><trkpt lat="44.17825107778937" lon="8.021611601738048"><ele>1022.0</ele><time>2026-04-16T13:34:57.979Z</time></trkpt><trkpt lat="44.17831422423464" lon="8.021691119083291"><ele>1021.3333333333334</ele><time>2026-04-16T13:35:00.979Z</time></trkpt><trkpt lat="44.17836958407353" lon="8.021748575747585"><ele>1020.6666666666667</ele><time>2026-04-16T13:35:02.979Z</time></trkpt><trkpt lat="44.178455099760015" lon="8.021791867064225"><ele>1020.0</ele><time>2026-04-16T13:35:04.979Z</time></trkpt><trkpt lat="44.17853485207582" lon="8.02182765329975"><ele>1019.3333333333333</ele><time>2026-04-16T13:35:07.979Z</time></trkpt><trkpt lat="44.178621170631516" lon="8.021868509795295"><ele>1018.6666666666666</ele><time>2026-04-16T13:35:09.978Z</time></trkpt><trkpt lat="44.17869699570268" lon="8.021886007183616"><ele>1018.0</ele><time>2026-04-16T13:35:12.978Z</time></trkpt><trkpt lat="44.178792488510204" lon="8.021920748970224"><ele>1017.9999999999999</ele><time>2026-04-16T13:35:15.978Z</time></trkpt><trkpt lat="44.17886182185143" lon="8.021966802383249"><ele>1018.0</ele><time>2026-04-16T13:35:17.978Z</time></trkpt><trkpt lat="44.17894502320521" lon="8.022056572546768"><ele>1018.0</ele><time>2026-04-16T13:35:20.978Z</time></trkpt><trkpt lat="44.17902536768325" lon="8.022085254466788"><ele>1018.0</ele><time>2026-04-16T13:35:22.978Z</time></trkpt><trkpt lat="44.17909786265078" lon="8.022123462577275"><ele>1017.9999999999999</ele><time>2026-04-16T13:35:24.978Z</time></trkpt><trkpt lat="44.17916817122149" lon="8.022158701962178"><ele>1018.0</ele><time>2026-04-16T13:35:26.978Z</time></trkpt><trkpt lat="44.17922393989608" lon="8.022246711944737"><ele>1015.3333333333333</ele><time>2026-04-16T13:35:28.978Z</time></trkpt><trkpt lat="44.179281636350936" lon="8.02236175335857"><ele>1012.6666666666666</ele><time>2026-04-16T13:35:31.978Z</time></trkpt><trkpt lat="44.17936390036029" lon="8.02245576003041"><ele>1010.0</ele><time>2026-04-16T13:35:33.978Z</time></trkpt><trkpt lat="44.179414248349076" lon="8.022563135861773"><ele>1007.3333333333333</ele><time>2026-04-16T13:35:35.978Z</time></trkpt><trkpt lat="44.17942381916829" lon="8.0226702925334"><ele>1004.6666666666666</ele><time>2026-04-16T13:35:38.978Z</time></trkpt><trkpt lat="44.17945848870168" lon="8.022751426361575"><ele>1002.0</ele><time>2026-04-16T13:35:40.978Z</time></trkpt><trkpt lat="44.179493959699485" lon="8.022838987160908"><ele>1002.0</ele><time>2026-04-16T13:35:43.978Z</time></trkpt><trkpt lat="44.179559148308606" lon="8.022802810137001"><ele>1002.0</ele><time>2026-04-16T13:35:47.978Z</time></trkpt><trkpt lat="44.179605837895224" lon="8.022726670606566"><ele>1002.0</ele><time>2026-04-16T13:35:49.978Z</time></trkpt><trkpt lat="44.179654123598255" lon="8.022663302825217"><ele>1002.0</ele><time>2026-04-16T13:35:52.978Z</time></trkpt><trkpt lat="44.1797457888756" lon="8.022662552274758"><ele>1002.0</ele><time>2026-04-16T13:35:55.978Z</time></trkpt><trkpt lat="44.17986189996661" lon="8.02264440615612"><ele>1002.0</ele><time>2026-04-16T13:35:58.978Z</time></trkpt><trkpt lat="44.17992531626549" lon="8.022600176185275"><ele>997.3333333333334</ele><time>2026-04-16T13:36:00.978Z</time></trkpt><trkpt lat="44.18000330117781" lon="8.022563666738662"><ele>992.6666666666667</ele><time>2026-04-16T13:36:02.978Z</time></trkpt><trkpt lat="44.18009089562263" lon="8.022507488874318"><ele>988.0</ele><time>2026-04-16T13:36:05.978Z</time></trkpt><trkpt lat="44.1801476113467" lon="8.022465812198197"><ele>983.3333333333334</ele><time>2026-04-16T13:36:09.978Z</time></trkpt><trkpt lat="44.18020237339047" lon="8.022417020333355"><ele>978.6666666666667</ele><time>2026-04-16T13:36:18.978Z</time></trkpt><trkpt lat="44.18028137895408" lon="8.022357601380968"><ele>974.0</ele><time>2026-04-16T13:40:18.977Z</time></trkpt><trkpt lat="44.18033216689318" lon="8.022300258272688"><ele>972.5000000000001</ele><time>2026-04-16T13:40:22.977Z</time></trkpt><trkpt lat="44.180385361398514" lon="8.022241711016397"><ele>971.0</ele><time>2026-04-16T13:40:25.977Z</time></trkpt><trkpt lat="44.18043001272723" lon="8.022157869519829"><ele>969.5</ele><time>2026-04-16T13:40:28.977Z</time></trkpt><trkpt lat="44.180487698677766" lon="8.022063381084743"><ele>968.0</ele><time>2026-04-16T13:40:32.977Z</time></trkpt><trkpt lat="44.18057487662086" lon="8.0219985033305"><ele>966.5000000000001</ele><time>2026-04-16T13:40:34.977Z</time></trkpt><trkpt lat="44.18063216724041" lon="8.021917454430397"><ele>965.0</ele><time>2026-04-16T13:40:38.977Z</time></trkpt><trkpt lat="44.180695688935955" lon="8.021860566331712"><ele>964.5000000000001</ele><time>2026-04-16T13:40:40.977Z</time></trkpt><trkpt lat="44.180781803091335" lon="8.021841141913512"><ele>964.0</ele><time>2026-04-16T13:40:45.977Z</time></trkpt><trkpt lat="44.18084745900558" lon="8.021808854022998"><ele>963.5</ele><time>2026-04-16T13:40:49.977Z</time></trkpt><trkpt lat="44.18091089087895" lon="8.02178251532882"><ele>963.0</ele><time>2026-04-16T13:40:54.977Z</time></trkpt><trkpt lat="44.18099869055746" lon="8.021710593893653"><ele>962.5000000000001</ele><time>2026-04-16T13:41:01.977Z</time></trkpt><trkpt lat="44.18103915763518" lon="8.021639330927362"><ele>962.0</ele><time>2026-04-16T13:41:07.977Z</time></trkpt><trkpt lat="44.18109527420279" lon="8.021580089233604"><ele>961.9999999999999</ele><time>2026-04-16T13:41:15.977Z</time></trkpt><trkpt lat="44.18115521558438" lon="8.021519786448161"><ele>962.0</ele><time>2026-04-16T13:41:21.977Z</time></trkpt><trkpt lat="44.181230025460394" lon="8.021458265156255"><ele>961.9999999999999</ele><time>2026-04-16T13:44:10.975Z</time></trkpt><trkpt lat="44.18121272758255" lon="8.021559566831003"><ele>961.9999999999999</ele><time>2026-04-16T13:46:45.975Z</time></trkpt><trkpt lat="44.1811520203334" lon="8.021584627314468"><ele>962.0</ele><time>2026-04-16T13:46:59.975Z</time></trkpt><trkpt lat="44.18111313164577" lon="8.021667452757095"><ele>961.9999999999999</ele><time>2026-04-16T13:47:21.975Z</time></trkpt><trkpt lat="44.18105474166981" lon="8.021715934354376"><ele>961.9999999999999</ele><time>2026-04-16T13:47:30.975Z</time></trkpt><trkpt lat="44.18099482697642" lon="8.021751908953549"><ele>962.0000000000001</ele><time>2026-04-16T13:47:38.975Z</time></trkpt><trkpt lat="44.18091683650914" lon="8.021783491540901"><ele>962.0</ele><time>2026-04-16T13:48:24.973Z</time></trkpt><trkpt lat="44.180855026005474" lon="8.021821288542418"><ele>962.0</ele><time>2026-04-16T13:51:06.973Z</time></trkpt><trkpt lat="44.18078493593269" lon="8.021877342722993"><ele>962.0</ele><time>2026-04-16T13:51:08.973Z</time></trkpt><trkpt lat="44.18071268676356" lon="8.02193138116492"><ele>962.0000000000001</ele><time>2026-04-16T13:51:10.973Z</time></trkpt><trkpt lat="44.18064451919365" lon="8.022005054638308"><ele>962.0</ele><time>2026-04-16T13:51:12.973Z</time></trkpt><trkpt lat="44.180579871478436" lon="8.022063672054118"><ele>962.5000000000001</ele><time>2026-04-16T13:51:14.973Z</time></trkpt><trkpt lat="44.18053172383249" lon="8.02216167350547"><ele>963.0</ele><time>2026-04-16T13:51:17.973Z</time></trkpt><trkpt lat="44.18047506431475" lon="8.022244667404822"><ele>963.5</ele><time>2026-04-16T13:51:19.973Z</time></trkpt><trkpt lat="44.18040948998345" lon="8.02230868287291"><ele>964.0</ele><time>2026-04-16T13:51:22.973Z</time></trkpt><trkpt lat="44.180369772164596" lon="8.022393720109257"><ele>964.5000000000001</ele><time>2026-04-16T13:51:29.973Z</time></trkpt><trkpt lat="44.18030542063442" lon="8.022441228621007"><ele>965.0</ele><time>2026-04-16T13:51:34.973Z</time></trkpt><trkpt lat="44.18037129559068" lon="8.022448633772749"><ele>966.2857142857142</ele><time>2026-04-16T13:58:47.97Z</time></trkpt><trkpt lat="44.18039795176335" lon="8.022550736863602"><ele>967.5714285714287</ele><time>2026-04-16T13:58:51.97Z</time></trkpt><trkpt lat="44.18044013002754" lon="8.022623227860592"><ele>968.8571428571429</ele><time>2026-04-16T13:58:57.97Z</time></trkpt><trkpt lat="44.18048481130108" lon="8.022715695194899"><ele>970.1428571428571</ele><time>2026-04-16T13:59:42.97Z</time></trkpt><trkpt lat="44.1804656128371" lon="8.022808025783988"><ele>971.4285714285713</ele><time>2026-04-16T13:59:50.97Z</time></trkpt><trkpt lat="44.18048181138648" lon="8.022922404919555"><ele>972.7142857142858</ele><time>2026-04-16T13:59:55.97Z</time></trkpt><trkpt lat="44.18050184323409" lon="8.023014662484755"><ele>974.0</ele><time>2026-04-16T14:00:03.97Z</time></trkpt><trkpt lat="44.180492347255885" lon="8.023110602052398"><ele>974.0000000000001</ele><time>2026-04-16T14:00:15.97Z</time></trkpt><trkpt lat="44.180537799969535" lon="8.023230484162639"><ele>974.0</ele><time>2026-04-16T14:01:08.968Z</time></trkpt><trkpt lat="44.18060945155862" lon="8.023266438792952"><ele>974.0</ele><time>2026-04-16T14:01:32.968Z</time></trkpt><trkpt lat="44.180668494918685" lon="8.023344996587094"><ele>974.0</ele><time>2026-04-16T14:01:35.968Z</time></trkpt><trkpt lat="44.18072076302829" lon="8.023438103969234"><ele>974.0000000000001</ele><time>2026-04-16T14:01:38.968Z</time></trkpt><trkpt lat="44.180780275602324" lon="8.023490994046087"><ele>974.0</ele><time>2026-04-16T14:01:41.968Z</time></trkpt><trkpt lat="44.18082460714911" lon="8.02356152881433"><ele>971.6666666666667</ele><time>2026-04-16T14:01:43.968Z</time></trkpt><trkpt lat="44.18087155873267" lon="8.023638584836968"><ele>969.3333333333334</ele><time>2026-04-16T14:01:46.968Z</time></trkpt><trkpt lat="44.18093579898353" lon="8.023636964386919"><ele>967.0</ele><time>2026-04-16T14:01:50.968Z</time></trkpt><trkpt lat="44.1810049335898" lon="8.023611827706299"><ele>964.6666666666667</ele><time>2026-04-16T14:01:53.968Z</time></trkpt><trkpt lat="44.1811010409339" lon="8.023645379134374"><ele>962.3333333333334</ele><time>2026-04-16T14:01:56.968Z</time></trkpt><trkpt lat="44.18115523196258" lon="8.023745439509232"><ele>960.0</ele><time>2026-04-16T14:01:58.968Z</time></trkpt><trkpt lat="44.18120570046777" lon="8.023845864889894"><ele>960.0</ele><time>2026-04-16T14:02:00.968Z</time></trkpt><trkpt lat="44.18123208537007" lon="8.023928277653296"><ele>960.0</ele><time>2026-04-16T14:02:02.968Z</time></trkpt><trkpt lat="44.18129164980762" lon="8.024044102254356"><ele>960.0</ele><time>2026-04-16T14:02:05.968Z</time></trkpt><trkpt lat="44.18133454995561" lon="8.024150396219285"><ele>960.0</ele><time>2026-04-16T14:02:08.968Z</time></trkpt><trkpt lat="44.18137231602689" lon="8.024228315948854"><ele>960.0</ele><time>2026-04-16T14:02:10.968Z</time></trkpt><trkpt lat="44.18142402023684" lon="8.024290489375481"><ele>960.0</ele><time>2026-04-16T14:02:12.968Z</time></trkpt><trkpt lat="44.18148902861908" lon="8.024341854928128"><ele>958.8333333333334</ele><time>2026-04-16T14:02:14.968Z</time></trkpt><trkpt lat="44.181546675168214" lon="8.024404292337149"><ele>957.6666666666667</ele><time>2026-04-16T14:02:16.968Z</time></trkpt><trkpt lat="44.18157910786365" lon="8.024486355908444"><ele>956.5</ele><time>2026-04-16T14:02:18.968Z</time></trkpt><trkpt lat="44.181616258575005" lon="8.024573459749833"><ele>955.3333333333334</ele><time>2026-04-16T14:02:23.968Z</time></trkpt><trkpt lat="44.18161794588194" lon="8.024679841833652"><ele>954.1666666666667</ele><time>2026-04-16T14:02:28.967Z</time></trkpt><trkpt lat="44.18165604016154" lon="8.024804907392229"><ele>953.0</ele><time>2026-04-16T14:02:31.967Z</time></trkpt><trkpt lat="44.18168377101334" lon="8.02491255807863"><ele>951.1666666666667</ele><time>2026-04-16T14:02:33.967Z</time></trkpt><trkpt lat="44.181697211791025" lon="8.025025343731128"><ele>949.3333333333334</ele><time>2026-04-16T14:02:35.967Z</time></trkpt><trkpt lat="44.181726393992896" lon="8.025133201628696"><ele>947.5</ele><time>2026-04-16T14:02:41.967Z</time></trkpt><trkpt lat="44.18176904924059" lon="8.025228073524131"><ele>945.6666666666667</ele><time>2026-04-16T14:02:43.967Z</time></trkpt><trkpt lat="44.1818105309023" lon="8.025349990337604"><ele>943.8333333333334</ele><time>2026-04-16T14:02:45.967Z</time></trkpt><trkpt lat="44.18185112738092" lon="8.02544296658706"><ele>942.0</ele><time>2026-04-16T14:02:47.967Z</time></trkpt><trkpt lat="44.18189014574474" lon="8.025552165079116"><ele>942.0</ele><time>2026-04-16T14:02:50.967Z</time></trkpt><trkpt lat="44.18191642988702" lon="8.025644862022023"><ele>942.0</ele><time>2026-04-16T14:02:53.967Z</time></trkpt><trkpt lat="44.18194803612008" lon="8.025764158436958"><ele>942.0</ele><time>2026-04-16T14:02:55.967Z</time></trkpt><trkpt lat="44.18199060578012" lon="8.025845543581836"><ele>942.0</ele><time>2026-04-16T14:02:57.967Z</time></trkpt><trkpt lat="44.18204981658583" lon="8.02591077683848"><ele>942.0</ele><time>2026-04-16T14:02:59.967Z</time></trkpt><trkpt lat="44.18207556496232" lon="8.026025865576191"><ele>942.0</ele><time>2026-04-16T14:03:02.967Z</time></trkpt><trkpt lat="44.182132858403605" lon="8.026100332677673"><ele>941.0</ele><time>2026-04-16T14:03:04.967Z</time></trkpt><trkpt lat="44.18220871410389" lon="8.026174854642761"><ele>940.0</ele><time>2026-04-16T14:03:06.967Z</time></trkpt><trkpt lat="44.18225487700344" lon="8.0262626368791"><ele>939.0</ele><time>2026-04-16T14:03:08.967Z</time></trkpt><trkpt lat="44.182335911881104" lon="8.026313106559902"><ele>938.0</ele><time>2026-04-16T14:03:10.967Z</time></trkpt><trkpt lat="44.182422138497266" lon="8.026320506785057"><ele>937.0</ele><time>2026-04-16T14:03:14.967Z</time></trkpt><trkpt lat="44.182488784073115" lon="8.026318464689483"><ele>936.0</ele><time>2026-04-16T14:03:16.967Z</time></trkpt><trkpt lat="44.18256620603304" lon="8.02630989334288"><ele>936.0</ele><time>2026-04-16T14:03:18.967Z</time></trkpt><trkpt lat="44.18264336464506" lon="8.026311455107487"><ele>936.0</ele><time>2026-04-16T14:03:20.967Z</time></trkpt><trkpt lat="44.18271665281781" lon="8.02631457560896"><ele>936.0</ele><time>2026-04-16T14:03:23.967Z</time></trkpt><trkpt lat="44.18278454308925" lon="8.026365887975526"><ele>936.0</ele><time>2026-04-16T14:03:25.967Z</time></trkpt><trkpt lat="44.182813369666164" lon="8.02645374253579"><ele>936.0</ele><time>2026-04-16T14:03:27.967Z</time></trkpt><trkpt lat="44.182841915870945" lon="8.026604537174576"><ele>936.0</ele><time>2026-04-16T14:03:30.967Z</time></trkpt><trkpt lat="44.182897838371005" lon="8.026744269259368"><ele>931.5</ele><time>2026-04-16T14:03:32.967Z</time></trkpt><trkpt lat="44.18294715457173" lon="8.02683809521716"><ele>927.0</ele><time>2026-04-16T14:03:34.967Z</time></trkpt><trkpt lat="44.182978239016826" lon="8.026938409548649"><ele>922.5</ele><time>2026-04-16T14:03:36.967Z</time></trkpt><trkpt lat="44.18300743302842" lon="8.027065606222392"><ele>918.0</ele><time>2026-04-16T14:03:38.967Z</time></trkpt><trkpt lat="44.18302723226895" lon="8.027169967447389"><ele>913.5</ele><time>2026-04-16T14:03:40.967Z</time></trkpt><trkpt lat="44.18307660788798" lon="8.027266843281856"><ele>909.0</ele><time>2026-04-16T14:03:42.967Z</time></trkpt><trkpt lat="44.18312798415699" lon="8.027353647146478"><ele>910.2</ele><time>2026-04-16T14:03:44.967Z</time></trkpt><trkpt lat="44.18320164974137" lon="8.027418505985075"><ele>911.4000000000001</ele><time>2026-04-16T14:03:46.967Z</time></trkpt><trkpt lat="44.183287789954896" lon="8.027506046141315"><ele>912.6</ele><time>2026-04-16T14:03:48.967Z</time></trkpt><trkpt lat="44.183354324469484" lon="8.027593182353504"><ele>913.8</ele><time>2026-04-16T14:03:50.967Z</time></trkpt><trkpt lat="44.18339238028377" lon="8.027715742227182"><ele>915.0</ele><time>2026-04-16T14:03:52.967Z</time></trkpt><trkpt lat="44.18342705639586" lon="8.027814483952696"><ele>911.8333333333334</ele><time>2026-04-16T14:03:54.967Z</time></trkpt><trkpt lat="44.18348529584014" lon="8.027920766278141"><ele>908.6666666666667</ele><time>2026-04-16T14:03:56.967Z</time></trkpt><trkpt lat="44.183540194155704" lon="8.028011398717908"><ele>905.5</ele><time>2026-04-16T14:03:58.967Z</time></trkpt><trkpt lat="44.18362179255194" lon="8.028084831337155"><ele>902.3333333333334</ele><time>2026-04-16T14:04:00.967Z</time></trkpt><trkpt lat="44.18368468950772" lon="8.028122516391617"><ele>899.1666666666667</ele><time>2026-04-16T14:04:02.967Z</time></trkpt><trkpt lat="44.18375951348265" lon="8.028168274578759"><ele>896.0</ele><time>2026-04-16T14:04:04.967Z</time></trkpt><trkpt lat="44.18382162273148" lon="8.02821434556666"><ele>896.0</ele><time>2026-04-16T14:04:05.967Z</time></trkpt><trkpt lat="44.18387923528675" lon="8.028259128498222"><ele>896.0</ele><time>2026-04-16T14:04:06.967Z</time></trkpt><trkpt lat="44.18392616790249" lon="8.028338277859175"><ele>896.0</ele><time>2026-04-16T14:04:07.967Z</time></trkpt><trkpt lat="44.18397969327803" lon="8.028409271268973"><ele>896.0</ele><time>2026-04-16T14:04:08.967Z</time></trkpt><trkpt lat="44.18401540603475" lon="8.02849003376699"><ele>896.0</ele><time>2026-04-16T14:04:09.967Z</time></trkpt><trkpt lat="44.18404591351023" lon="8.028576565140833"><ele>896.0</ele><time>2026-04-16T14:04:10.967Z</time></trkpt><trkpt lat="44.18404820753472" lon="8.028668711639527"><ele>896.0</ele><time>2026-04-16T14:04:11.967Z</time></trkpt><trkpt lat="44.1840517149218" lon="8.028809289366988"><ele>895.8</ele><time>2026-04-16T14:04:13.967Z</time></trkpt><trkpt lat="44.18407687190633" lon="8.02894108733998"><ele>895.5999999999999</ele><time>2026-04-16T14:04:15.967Z</time></trkpt><trkpt lat="44.18414340183758" lon="8.029068640081181"><ele>895.4</ele><time>2026-04-16T14:04:17.967Z</time></trkpt><trkpt lat="44.18416658534413" lon="8.029150495614656"><ele>895.2</ele><time>2026-04-16T14:04:18.967Z</time></trkpt><trkpt lat="44.184194127382014" lon="8.029302131462607"><ele>895.0</ele><time>2026-04-16T14:04:20.967Z</time></trkpt><trkpt lat="44.18422908430437" lon="8.029406480876723"><ele>891.8571428571428</ele><time>2026-04-16T14:04:22.967Z</time></trkpt><trkpt lat="44.18426159076726" lon="8.02948210093161"><ele>888.7142857142858</ele><time>2026-04-16T14:04:27.967Z</time></trkpt><trkpt lat="44.184310220049646" lon="8.029578521788979"><ele>885.5714285714286</ele><time>2026-04-16T14:06:32.965Z</time></trkpt><trkpt lat="44.18434573495315" lon="8.029658549373703"><ele>882.4285714285713</ele><time>2026-04-16T14:06:34.965Z</time></trkpt><trkpt lat="44.184431191717245" lon="8.029663411811244"><ele>879.2857142857142</ele><time>2026-04-16T14:06:38.964Z</time></trkpt><trkpt lat="44.184486519682565" lon="8.02959829940703"><ele>876.1428571428571</ele><time>2026-04-16T14:06:42.964Z</time></trkpt><trkpt lat="44.18454845725253" lon="8.029556357098272"><ele>873.0</ele><time>2026-04-16T14:06:44.965Z</time></trkpt><trkpt lat="44.18463491427958" lon="8.029494529113396"><ele>873.0</ele><time>2026-04-16T14:06:47.965Z</time></trkpt><trkpt lat="44.184691572877774" lon="8.029403161517683"><ele>873.0</ele><time>2026-04-16T14:06:49.964Z</time></trkpt><trkpt lat="44.184777969831174" lon="8.029352119865313"><ele>873.0</ele><time>2026-04-16T14:06:51.965Z</time></trkpt><trkpt lat="44.18488716257663" lon="8.029293933687422"><ele>873.0</ele><time>2026-04-16T14:06:53.965Z</time></trkpt><trkpt lat="44.1849776546094" lon="8.029225919596692"><ele>873.0</ele><time>2026-04-16T14:06:55.965Z</time></trkpt><trkpt lat="44.185069883113286" lon="8.029152901480867"><ele>875.9999999999999</ele><time>2026-04-16T14:06:57.965Z</time></trkpt><trkpt lat="44.185123027498975" lon="8.029105695973314"><ele>879.0</ele><time>2026-04-16T14:06:59.965Z</time></trkpt><trkpt lat="44.18518218940295" lon="8.029030095692804"><ele>882.0</ele><time>2026-04-16T14:07:01.965Z</time></trkpt><trkpt lat="44.18524945818363" lon="8.029000421567709"><ele>885.0</ele><time>2026-04-16T14:07:03.965Z</time></trkpt><trkpt lat="44.18532465803519" lon="8.028936454258105"><ele>888.0</ele><time>2026-04-16T14:07:06.965Z</time></trkpt><trkpt lat="44.18540280281607" lon="8.0289334412422"><ele>890.9999999999999</ele><time>2026-04-16T14:07:09.965Z</time></trkpt><trkpt lat="44.18543622011337" lon="8.0290079837139"><ele>894.0</ele><time>2026-04-16T14:07:11.965Z</time></trkpt><trkpt lat="44.185374911017426" lon="8.029078845308703"><ele>888.6666666666666</ele><time>2026-04-16T14:07:14.965Z</time></trkpt><trkpt lat="44.185322965380706" lon="8.029149889809878"><ele>883.3333333333333</ele><time>2026-04-16T14:07:16.965Z</time></trkpt><trkpt lat="44.18527918775526" lon="8.029260174379736"><ele>878.0</ele><time>2026-04-16T14:07:18.965Z</time></trkpt><trkpt lat="44.185244827862796" lon="8.02934612586632"><ele>872.6666666666666</ele><time>2026-04-16T14:07:20.965Z</time></trkpt><trkpt lat="44.18517507996816" lon="8.02940443277875"><ele>867.3333333333333</ele><time>2026-04-16T14:07:23.965Z</time></trkpt><trkpt lat="44.18517632976625" lon="8.02951601808459"><ele>862.0</ele><time>2026-04-16T14:07:26.965Z</time></trkpt><trkpt lat="44.18524067855412" lon="8.02956293688577"><ele>861.9999999999999</ele><time>2026-04-16T14:07:28.965Z</time></trkpt><trkpt lat="44.18531347924244" lon="8.029571857898631"><ele>862.0</ele><time>2026-04-16T14:07:30.965Z</time></trkpt><trkpt lat="44.185377317772954" lon="8.029551263444718"><ele>862.0</ele><time>2026-04-16T14:07:32.965Z</time></trkpt><trkpt lat="44.18545035320128" lon="8.029515404626352"><ele>862.0</ele><time>2026-04-16T14:07:35.965Z</time></trkpt><trkpt lat="44.18554515631893" lon="8.029516136032699"><ele>861.9999999999999</ele><time>2026-04-16T14:07:38.965Z</time></trkpt><trkpt lat="44.185623601505725" lon="8.029496529354262"><ele>862.0</ele><time>2026-04-16T14:07:42.965Z</time></trkpt><trkpt lat="44.18569602485662" lon="8.029536166157154"><ele>861.9999999999999</ele><time>2026-04-16T14:07:44.965Z</time></trkpt><trkpt lat="44.18573958658688" lon="8.029606216391931"><ele>862.0</ele><time>2026-04-16T14:07:46.965Z</time></trkpt><trkpt lat="44.185785069098294" lon="8.029715296844774"><ele>862.0</ele><time>2026-04-16T14:07:49.965Z</time></trkpt><trkpt lat="44.18576926342074" lon="8.029814217505555"><ele>862.0</ele><time>2026-04-16T14:07:51.965Z</time></trkpt><trkpt lat="44.18573509907891" lon="8.029888884076497"><ele>861.9999999999999</ele><time>2026-04-16T14:07:53.965Z</time></trkpt><trkpt lat="44.185656463923415" lon="8.029958195116926"><ele>862.0</ele><time>2026-04-16T14:07:56.965Z</time></trkpt><trkpt lat="44.18559136524218" lon="8.03000639328404"><ele>857.4000000000001</ele><time>2026-04-16T14:07:59.965Z</time></trkpt><trkpt lat="44.18554745725159" lon="8.030083954044878"><ele>852.8000000000001</ele><time>2026-04-16T14:08:01.965Z</time></trkpt><trkpt lat="44.185508619484594" lon="8.030204148450542"><ele>848.2</ele><time>2026-04-16T14:08:03.965Z</time></trkpt><trkpt lat="44.18548907527163" lon="8.030347934682766"><ele>843.6</ele><time>2026-04-16T14:08:05.965Z</time></trkpt><trkpt lat="44.18546162616402" lon="8.030483043996997"><ele>839.0</ele><time>2026-04-16T14:08:07.965Z</time></trkpt><trkpt lat="44.18542767962726" lon="8.030608883957782"><ele>839.0</ele><time>2026-04-16T14:08:09.965Z</time></trkpt><trkpt lat="44.185388689519094" lon="8.030734039644459"><ele>839.0</ele><time>2026-04-16T14:08:11.965Z</time></trkpt><trkpt lat="44.185348847735554" lon="8.03085287161918"><ele>839.0</ele><time>2026-04-16T14:08:13.965Z</time></trkpt><trkpt lat="44.18528270066717" lon="8.030938888012512"><ele>839.0</ele><time>2026-04-16T14:08:15.965Z</time></trkpt><trkpt lat="44.185183646516165" lon="8.031014353839542"><ele>839.0</ele><time>2026-04-16T14:08:17.965Z</time></trkpt><trkpt lat="44.185103005903194" lon="8.03108542499142"><ele>835.6666666666667</ele><time>2026-04-16T14:08:19.965Z</time></trkpt><trkpt lat="44.185017236310244" lon="8.03113494081342"><ele>832.3333333333334</ele><time>2026-04-16T14:08:21.965Z</time></trkpt><trkpt lat="44.18493708884712" lon="8.031172211868476"><ele>829.0</ele><time>2026-04-16T14:08:23.965Z</time></trkpt><trkpt lat="44.184866748714406" lon="8.031223582683907"><ele>825.6666666666667</ele><time>2026-04-16T14:08:25.965Z</time></trkpt><trkpt lat="44.18478224206539" lon="8.031241041903417"><ele>822.3333333333334</ele><time>2026-04-16T14:08:28.965Z</time></trkpt><trkpt lat="44.18470492822861" lon="8.031268819174825"><ele>819.0</ele><time>2026-04-16T14:08:30.965Z</time></trkpt><trkpt lat="44.18462965298571" lon="8.031322436961947"><ele>818.4000000000001</ele><time>2026-04-16T14:08:32.965Z</time></trkpt><trkpt lat="44.18454214504909" lon="8.031396287117614"><ele>817.8</ele><time>2026-04-16T14:08:34.965Z</time></trkpt><trkpt lat="44.18445797619252" lon="8.031468509896369"><ele>817.2</ele><time>2026-04-16T14:08:36.965Z</time></trkpt><trkpt lat="44.18438961448734" lon="8.03153284806753"><ele>816.5999999999999</ele><time>2026-04-16T14:08:38.965Z</time></trkpt><trkpt lat="44.18430756771537" lon="8.031569459480718"><ele>816.0</ele><time>2026-04-16T14:08:40.965Z</time></trkpt><trkpt lat="44.18422720195649" lon="8.03161090786243"><ele>811.5</ele><time>2026-04-16T14:08:43.963Z</time></trkpt><trkpt lat="44.18415596984099" lon="8.031648340930277"><ele>807.0</ele><time>2026-04-16T14:08:45.963Z</time></trkpt><trkpt lat="44.18410397134081" lon="8.03169988865227"><ele>802.5</ele><time>2026-04-16T14:08:46.963Z</time></trkpt><trkpt lat="44.18402469701866" lon="8.03174926780497"><ele>798.0</ele><time>2026-04-16T14:08:48.963Z</time></trkpt><trkpt lat="44.183940208647186" lon="8.031759504886242"><ele>793.5</ele><time>2026-04-16T14:08:50.963Z</time></trkpt><trkpt lat="44.183865132323305" lon="8.031743033734825"><ele>789.0</ele><time>2026-04-16T14:08:52.963Z</time></trkpt><trkpt lat="44.183794638702125" lon="8.031671229734865"><ele>786.8000000000001</ele><time>2026-04-16T14:08:55.963Z</time></trkpt><trkpt lat="44.18371793087365" lon="8.031662801029574"><ele>784.6</ele><time>2026-04-16T14:08:58.963Z</time></trkpt><trkpt lat="44.18366123422818" lon="8.031884594874766"><ele>782.4</ele><time>2026-04-16T14:10:09.963Z</time></trkpt><trkpt lat="44.183662694390705" lon="8.031999993370913"><ele>780.2</ele><time>2026-04-16T14:10:26.963Z</time></trkpt><trkpt lat="44.183718756197855" lon="8.032071375926837"><ele>778.0</ele><time>2026-04-16T14:10:28.963Z</time></trkpt><trkpt lat="44.183788483444744" lon="8.032111640143912"><ele>777.9999999999999</ele><time>2026-04-16T14:10:30.963Z</time></trkpt><trkpt lat="44.18386928190471" lon="8.032155166477539"><ele>778.0</ele><time>2026-04-16T14:10:32.963Z</time></trkpt><trkpt lat="44.183955026156895" lon="8.032209697066245"><ele>778.0</ele><time>2026-04-16T14:10:34.963Z</time></trkpt><trkpt lat="44.18401460749832" lon="8.032258673727089"><ele>778.0</ele><time>2026-04-16T14:10:36.963Z</time></trkpt><trkpt lat="44.18410330809394" lon="8.032316775164933"><ele>777.9999999999999</ele><time>2026-04-16T14:10:38.963Z</time></trkpt><trkpt lat="44.184184341928" lon="8.03236605812767"><ele>778.0</ele><time>2026-04-16T14:10:40.963Z</time></trkpt><trkpt lat="44.18428216015027" lon="8.03243275322774"><ele>775.0</ele><time>2026-04-16T14:10:42.963Z</time></trkpt><trkpt lat="44.18439411679915" lon="8.03253015608814"><ele>772.0</ele><time>2026-04-16T14:10:44.963Z</time></trkpt><trkpt lat="44.184491294988845" lon="8.032626892160694"><ele>769.0</ele><time>2026-04-16T14:10:46.963Z</time></trkpt><trkpt lat="44.18456987627008" lon="8.03272906001582"><ele>766.0</ele><time>2026-04-16T14:10:48.963Z</time></trkpt><trkpt lat="44.18458081702546" lon="8.032832520089631"><ele>763.0</ele><time>2026-04-16T14:10:51.962Z</time></trkpt><trkpt lat="44.18450699749372" lon="8.032893221651797"><ele>763.0</ele><time>2026-04-16T14:10:53.961Z</time></trkpt><trkpt lat="44.18440929144938" lon="8.03293567011764"><ele>763.0</ele><time>2026-04-16T14:10:55.961Z</time></trkpt><trkpt lat="44.1843305389994" lon="8.032950649092871"><ele>763.0</ele><time>2026-04-16T14:10:57.962Z</time></trkpt><trkpt lat="44.184262055627755" lon="8.032918470996163"><ele>763.0</ele><time>2026-04-16T14:10:59.961Z</time></trkpt><trkpt lat="44.18417192749249" lon="8.032868929757797"><ele>763.0</ele><time>2026-04-16T14:11:01.961Z</time></trkpt><trkpt lat="44.18410245907888" lon="8.032804296446217"><ele>763.0</ele><time>2026-04-16T14:11:03.961Z</time></trkpt><trkpt lat="44.18401732721958" lon="8.032837531361466"><ele>763.0</ele><time>2026-04-16T14:11:06.961Z</time></trkpt><trkpt lat="44.184060548607434" lon="8.032972496196097"><ele>763.0</ele><time>2026-04-16T14:11:09.961Z</time></trkpt><trkpt lat="44.184166149785824" lon="8.03305698236193"><ele>763.0</ele><time>2026-04-16T14:11:11.961Z</time></trkpt><trkpt lat="44.18422200815751" lon="8.03311884760348"><ele>763.0</ele><time>2026-04-16T14:11:12.961Z</time></trkpt><trkpt lat="44.184271226370285" lon="8.033186173320235"><ele>763.0</ele><time>2026-04-16T14:11:13.961Z</time></trkpt><trkpt lat="44.184323356446335" lon="8.03325296248096"><ele>763.0</ele><time>2026-04-16T14:11:14.961Z</time></trkpt><trkpt lat="44.18442356189547" lon="8.033370925692791"><ele>760.2</ele><time>2026-04-16T14:11:16.961Z</time></trkpt><trkpt lat="44.18450537426341" lon="8.033472122681987"><ele>757.4</ele><time>2026-04-16T14:11:18.961Z</time></trkpt><trkpt lat="44.18457459642362" lon="8.033568517300006"><ele>754.6</ele><time>2026-04-16T14:11:20.961Z</time></trkpt><trkpt lat="44.18463553019024" lon="8.033637102500727"><ele>751.8000000000001</ele><time>2026-04-16T14:11:22.961Z</time></trkpt><trkpt lat="44.18473123005541" lon="8.033745484567518"><ele>749.0</ele><time>2026-04-16T14:11:24.961Z</time></trkpt><trkpt lat="44.184817293781386" lon="8.033874512036562"><ele>749.1666666666666</ele><time>2026-04-16T14:11:26.961Z</time></trkpt><trkpt lat="44.18486884207386" lon="8.033955946899088"><ele>749.3333333333333</ele><time>2026-04-16T14:11:27.961Z</time></trkpt><trkpt lat="44.184961604230594" lon="8.034092378467799"><ele>749.5</ele><time>2026-04-16T14:11:29.961Z</time></trkpt><trkpt lat="44.18502230650626" lon="8.034137568438997"><ele>749.6666666666666</ele><time>2026-04-16T14:11:30.961Z</time></trkpt><trkpt lat="44.18507359995429" lon="8.034198361766286"><ele>749.8333333333334</ele><time>2026-04-16T14:11:31.961Z</time></trkpt><trkpt lat="44.185130405737645" lon="8.03427972390277"><ele>750.0</ele><time>2026-04-16T14:11:32.961Z</time></trkpt><trkpt lat="44.18518241535099" lon="8.034354503434331"><ele>747.1666666666666</ele><time>2026-04-16T14:11:33.961Z</time></trkpt><trkpt lat="44.18522954834634" lon="8.03442100732613"><ele>744.3333333333334</ele><time>2026-04-16T14:11:34.961Z</time></trkpt><trkpt lat="44.1852700515742" lon="8.034489114161767"><ele>741.5</ele><time>2026-04-16T14:11:35.961Z</time></trkpt><trkpt lat="44.18536382112376" lon="8.034589282945639"><ele>738.6666666666667</ele><time>2026-04-16T14:11:37.961Z</time></trkpt><trkpt lat="44.185432792860915" lon="8.034669334757554"><ele>735.8333333333334</ele><time>2026-04-16T14:11:39.961Z</time></trkpt><trkpt lat="44.18550250788943" lon="8.034785821733683"><ele>733.0</ele><time>2026-04-16T14:11:41.961Z</time></trkpt><trkpt lat="44.185561132564985" lon="8.034876890850569"><ele>733.8</ele><time>2026-04-16T14:11:43.961Z</time></trkpt><trkpt lat="44.18563953964701" lon="8.034997833335298"><ele>734.5999999999999</ele><time>2026-04-16T14:11:45.961Z</time></trkpt><trkpt lat="44.18574872830463" lon="8.03503328026126"><ele>735.4000000000001</ele><time>2026-04-16T14:11:47.961Z</time></trkpt><trkpt lat="44.18581506086591" lon="8.035021584247927"><ele>736.2</ele><time>2026-04-16T14:11:50.961Z</time></trkpt><trkpt lat="44.18587019163237" lon="8.03497182247189"><ele>737.0</ele><time>2026-04-16T14:11:52.961Z</time></trkpt><trkpt lat="44.18597753755322" lon="8.034922152769834"><ele>737.0</ele><time>2026-04-16T14:11:54.961Z</time></trkpt><trkpt lat="44.18606672813188" lon="8.034860853159174"><ele>737.0</ele><time>2026-04-16T14:11:56.961Z</time></trkpt><trkpt lat="44.18613598001388" lon="8.034804558498926"><ele>737.0</ele><time>2026-04-16T14:11:58.961Z</time></trkpt><trkpt lat="44.18623283786727" lon="8.034801584520066"><ele>737.0</ele><time>2026-04-16T14:12:00.961Z</time></trkpt><trkpt lat="44.18631636900983" lon="8.034818804251895"><ele>737.0</ele><time>2026-04-16T14:12:02.961Z</time></trkpt><trkpt lat="44.18638078927886" lon="8.034821499547668"><ele>737.0</ele><time>2026-04-16T14:12:03.961Z</time></trkpt><trkpt lat="44.186476183232" lon="8.034825643228519"><ele>735.1666666666666</ele><time>2026-04-16T14:12:05.961Z</time></trkpt><trkpt lat="44.18658127759643" lon="8.034798630121267"><ele>733.3333333333333</ele><time>2026-04-16T14:12:16.961Z</time></trkpt><trkpt lat="44.18666679263291" lon="8.03484399760564"><ele>731.5</ele><time>2026-04-16T14:12:18.961Z</time></trkpt><trkpt lat="44.186731922152205" lon="8.034870812450942"><ele>729.6666666666666</ele><time>2026-04-16T14:12:20.961Z</time></trkpt><trkpt lat="44.1868073529363" lon="8.034890226241734"><ele>727.8333333333334</ele><time>2026-04-16T14:12:23.961Z</time></trkpt><trkpt lat="44.186881899793505" lon="8.034872122209284"><ele>726.0</ele><time>2026-04-16T14:12:26.961Z</time></trkpt><trkpt lat="44.186959129820124" lon="8.034842661841987"><ele>726.0</ele><time>2026-04-16T14:12:28.961Z</time></trkpt><trkpt lat="44.18704788910987" lon="8.03484640038337"><ele>726.0</ele><time>2026-04-16T14:12:30.961Z</time></trkpt><trkpt lat="44.18715944740022" lon="8.034861122115322"><ele>726.0</ele><time>2026-04-16T14:12:32.961Z</time></trkpt><trkpt lat="44.187224373619344" lon="8.034867289755907"><ele>726.0</ele><time>2026-04-16T14:12:33.961Z</time></trkpt><trkpt lat="44.18732990226826" lon="8.034848570312025"><ele>726.0</ele><time>2026-04-16T14:12:35.961Z</time></trkpt><trkpt lat="44.187392059781104" lon="8.034810083841402"><ele>726.0</ele><time>2026-04-16T14:12:37.961Z</time></trkpt><trkpt lat="44.18749011858147" lon="8.03473846309793"><ele>723.1666666666666</ele><time>2026-04-16T14:12:40.961Z</time></trkpt><trkpt lat="44.18756035748053" lon="8.0346813994597"><ele>720.3333333333334</ele><time>2026-04-16T14:12:42.961Z</time></trkpt><trkpt lat="44.187638698736606" lon="8.034606946866592"><ele>717.5</ele><time>2026-04-16T14:12:44.961Z</time></trkpt><trkpt lat="44.18771900589553" lon="8.034537387394998"><ele>714.6666666666667</ele><time>2026-04-16T14:12:46.961Z</time></trkpt><trkpt lat="44.18777132416301" lon="8.03448593673485"><ele>711.8333333333334</ele><time>2026-04-16T14:12:48.961Z</time></trkpt><trkpt lat="44.18781789139305" lon="8.034411526958166"><ele>709.0</ele><time>2026-04-16T14:12:50.961Z</time></trkpt><trkpt lat="44.187854443360905" lon="8.034336081845694"><ele>709.0</ele><time>2026-04-16T14:12:51.961Z</time></trkpt><trkpt lat="44.18792815253234" lon="8.03418833076338"><ele>709.0</ele><time>2026-04-16T14:12:53.961Z</time></trkpt><trkpt lat="44.18799214212151" lon="8.034150356395568"><ele>709.0</ele><time>2026-04-16T14:12:54.961Z</time></trkpt><trkpt lat="44.18805793019057" lon="8.03409935544923"><ele>709.0</ele><time>2026-04-16T14:12:55.96Z</time></trkpt><trkpt lat="44.18812038194925" lon="8.034044441200221"><ele>709.0</ele><time>2026-04-16T14:12:56.96Z</time></trkpt><trkpt lat="44.18822051780487" lon="8.033948780613278"><ele>706.6</ele><time>2026-04-16T14:12:58.96Z</time></trkpt><trkpt lat="44.18832237138994" lon="8.033850893050205"><ele>704.2</ele><time>2026-04-16T14:13:00.96Z</time></trkpt><trkpt lat="44.188383303255414" lon="8.033797226298926"><ele>701.8000000000001</ele><time>2026-04-16T14:13:01.959Z</time></trkpt><trkpt lat="44.18844626974037" lon="8.033728874589645"><ele>699.4000000000001</ele><time>2026-04-16T14:13:02.96Z</time></trkpt><trkpt lat="44.18852267145065" lon="8.033661902481446"><ele>697.0</ele><time>2026-04-16T14:13:03.96Z</time></trkpt><trkpt lat="44.18861517863385" lon="8.033599320483782"><ele>697.0</ele><time>2026-04-16T14:13:04.96Z</time></trkpt><trkpt lat="44.18871544226061" lon="8.033546489070707"><ele>697.0</ele><time>2026-04-16T14:13:05.96Z</time></trkpt><trkpt lat="44.18881357887558" lon="8.033491847558999"><ele>697.0</ele><time>2026-04-16T14:13:06.96Z</time></trkpt><trkpt lat="44.1889057519873" lon="8.033439405635185"><ele>697.0</ele><time>2026-04-16T14:13:07.96Z</time></trkpt><trkpt lat="44.18900033872976" lon="8.033368963395363"><ele>697.0</ele><time>2026-04-16T14:13:08.959Z</time></trkpt><trkpt lat="44.189084455592095" lon="8.033311213777209"><ele>695.8</ele><time>2026-04-16T14:13:09.959Z</time></trkpt><trkpt lat="44.18915691032194" lon="8.033233990713148"><ele>694.6</ele><time>2026-04-16T14:13:10.959Z</time></trkpt><trkpt lat="44.18921689173412" lon="8.033131597530524"><ele>693.4</ele><time>2026-04-16T14:13:11.959Z</time></trkpt><trkpt lat="44.18925369936145" lon="8.03300129887875"><ele>692.1999999999999</ele><time>2026-04-16T14:13:12.959Z</time></trkpt><trkpt lat="44.189269795571995" lon="8.03286867682817"><ele>691.0</ele><time>2026-04-16T14:13:13.959Z</time></trkpt><trkpt lat="44.18930072591779" lon="8.032761647249934"><ele>691.0</ele><time>2026-04-16T14:13:14.959Z</time></trkpt><trkpt lat="44.189348874939064" lon="8.032660213553697"><ele>691.0</ele><time>2026-04-16T14:13:15.959Z</time></trkpt><trkpt lat="44.189406829173635" lon="8.032564447015133"><ele>691.0</ele><time>2026-04-16T14:13:16.959Z</time></trkpt><trkpt lat="44.189474341801684" lon="8.032489164120966"><ele>691.0</ele><time>2026-04-16T14:13:17.959Z</time></trkpt><trkpt lat="44.18954657239427" lon="8.032434505203504"><ele>691.0</ele><time>2026-04-16T14:13:18.959Z</time></trkpt><trkpt lat="44.189645720202435" lon="8.03239423263994"><ele>691.0</ele><time>2026-04-16T14:13:19.959Z</time></trkpt><trkpt lat="44.18974573430908" lon="8.032335730239831"><ele>691.0</ele><time>2026-04-16T14:13:20.959Z</time></trkpt><trkpt lat="44.189843982738694" lon="8.032294834357149"><ele>691.0</ele><time>2026-04-16T14:13:21.959Z</time></trkpt><trkpt lat="44.1899443972038" lon="8.032241904219422"><ele>691.0</ele><time>2026-04-16T14:13:22.959Z</time></trkpt><trkpt lat="44.19004142855386" lon="8.032199391441518"><ele>691.0</ele><time>2026-04-16T14:13:23.959Z</time></trkpt><trkpt lat="44.190134523003884" lon="8.032165877033936"><ele>691.0</ele><time>2026-04-16T14:13:24.959Z</time></trkpt><trkpt lat="44.19024820728568" lon="8.032123659424677"><ele>691.0</ele><time>2026-04-16T14:13:25.959Z</time></trkpt><trkpt lat="44.19037714706383" lon="8.03208335802913"><ele>691.0</ele><time>2026-04-16T14:13:26.959Z</time></trkpt><trkpt lat="44.190497152281424" lon="8.032030591386738"><ele>691.0</ele><time>2026-04-16T14:13:27.959Z</time></trkpt><trkpt lat="44.19062610635657" lon="8.03197775959822"><ele>691.0</ele><time>2026-04-16T14:13:28.959Z</time></trkpt><trkpt lat="44.1907523700314" lon="8.031932417707779"><ele>688.25</ele><time>2026-04-16T14:13:29.959Z</time></trkpt><trkpt lat="44.1908832786907" lon="8.031876303194785"><ele>685.5</ele><time>2026-04-16T14:13:30.959Z</time></trkpt><trkpt lat="44.191011304595406" lon="8.031813978617267"><ele>682.75</ele><time>2026-04-16T14:13:31.959Z</time></trkpt><trkpt lat="44.191151226984196" lon="8.031757575836192"><ele>680.0</ele><time>2026-04-16T14:13:32.959Z</time></trkpt><trkpt lat="44.19129204038509" lon="8.031724439709958"><ele>680.0</ele><time>2026-04-16T14:13:33.959Z</time></trkpt><trkpt lat="44.19142893702328" lon="8.03170123964322"><ele>680.0</ele><time>2026-04-16T14:13:34.959Z</time></trkpt><trkpt lat="44.19155678870358" lon="8.031714770106051"><ele>680.0</ele><time>2026-04-16T14:13:35.959Z</time></trkpt><trkpt lat="44.19168588623463" lon="8.031732933705728"><ele>680.0</ele><time>2026-04-16T14:13:36.959Z</time></trkpt><trkpt lat="44.19181669368157" lon="8.031751779035636"><ele>677.5</ele><time>2026-04-16T14:13:37.959Z</time></trkpt><trkpt lat="44.19195292213034" lon="8.031759201789932"><ele>675.0</ele><time>2026-04-16T14:13:38.959Z</time></trkpt><trkpt lat="44.19209472905734" lon="8.031788340690419"><ele>672.5</ele><time>2026-04-16T14:13:39.959Z</time></trkpt><trkpt lat="44.19222889050861" lon="8.031833064365097"><ele>670.0</ele><time>2026-04-16T14:13:40.959Z</time></trkpt><trkpt lat="44.19236812261804" lon="8.031854003645112"><ele>670.25</ele><time>2026-04-16T14:13:41.959Z</time></trkpt><trkpt lat="44.19250951285604" lon="8.031817349395745"><ele>670.5</ele><time>2026-04-16T14:13:42.959Z</time></trkpt><trkpt lat="44.19264496752252" lon="8.031766897090264"><ele>670.75</ele><time>2026-04-16T14:13:43.959Z</time></trkpt><trkpt lat="44.19277151439955" lon="8.03170396116765"><ele>671.0</ele><time>2026-04-16T14:13:44.959Z</time></trkpt><trkpt lat="44.1928590131427" lon="8.03161379689574"><ele>671.0</ele><time>2026-04-16T14:13:45.959Z</time></trkpt><trkpt lat="44.19295418287402" lon="8.031512726516205"><ele>671.0</ele><time>2026-04-16T14:13:46.959Z</time></trkpt><trkpt lat="44.19308308103442" lon="8.031443490560116"><ele>671.0</ele><time>2026-04-16T14:13:47.959Z</time></trkpt><trkpt lat="44.19320809825479" lon="8.031426358263053"><ele>671.0</ele><time>2026-04-16T14:13:48.959Z</time></trkpt><trkpt lat="44.19330989902159" lon="8.031399252821561"><ele>668.0</ele><time>2026-04-16T14:13:49.959Z</time></trkpt><trkpt lat="44.19341840128761" lon="8.03136010831414"><ele>665.0</ele><time>2026-04-16T14:13:50.959Z</time></trkpt><trkpt lat="44.19351045497114" lon="8.031300544690044"><ele>662.0</ele><time>2026-04-16T14:13:51.959Z</time></trkpt><trkpt lat="44.19357058504144" lon="8.031190872706846"><ele>659.0</ele><time>2026-04-16T14:13:52.959Z</time></trkpt><trkpt lat="44.19366208714933" lon="8.031073920825923"><ele>656.0</ele><time>2026-04-16T14:13:53.959Z</time></trkpt><trkpt lat="44.19376053209243" lon="8.03097279188832"><ele>656.0</ele><time>2026-04-16T14:13:54.959Z</time></trkpt><trkpt lat="44.19386455563051" lon="8.030880135851104"><ele>656.0</ele><time>2026-04-16T14:13:55.959Z</time></trkpt><trkpt lat="44.19398242319103" lon="8.0308002949601"><ele>656.0</ele><time>2026-04-16T14:13:56.959Z</time></trkpt><trkpt lat="44.19409587302061" lon="8.030729458031548"><ele>656.0</ele><time>2026-04-16T14:13:57.959Z</time></trkpt><trkpt lat="44.194218828132165" lon="8.03066818739877"><ele>653.25</ele><time>2026-04-16T14:13:58.959Z</time></trkpt><trkpt lat="44.194347603873396" lon="8.030630635677726"><ele>650.5</ele><time>2026-04-16T14:13:59.959Z</time></trkpt><trkpt lat="44.194474106379985" lon="8.030578688400983"><ele>647.75</ele><time>2026-04-16T14:14:00.959Z</time></trkpt><trkpt lat="44.19459636423133" lon="8.030511418278639"><ele>645.0</ele><time>2026-04-16T14:14:01.959Z</time></trkpt><trkpt lat="44.19470613783391" lon="8.030418328454296"><ele>645.0</ele><time>2026-04-16T14:14:02.959Z</time></trkpt><trkpt lat="44.19481649567927" lon="8.03032005464348"><ele>645.0</ele><time>2026-04-16T14:14:03.959Z</time></trkpt><trkpt lat="44.194922223192876" lon="8.030227136717366"><ele>645.0</ele><time>2026-04-16T14:14:04.959Z</time></trkpt><trkpt lat="44.19501618374186" lon="8.030139432658503"><ele>645.0</ele><time>2026-04-16T14:14:05.959Z</time></trkpt><trkpt lat="44.1950948549454" lon="8.030049025033868"><ele>646.8</ele><time>2026-04-16T14:14:06.959Z</time></trkpt><trkpt lat="44.195174310145845" lon="8.029970986300935"><ele>648.6</ele><time>2026-04-16T14:14:07.959Z</time></trkpt><trkpt lat="44.19525924298655" lon="8.029899280940164"><ele>650.4000000000001</ele><time>2026-04-16T14:14:08.959Z</time></trkpt><trkpt lat="44.19534229031464" lon="8.029839182126544"><ele>652.2</ele><time>2026-04-16T14:14:09.959Z</time></trkpt><trkpt lat="44.19543203979181" lon="8.029789474740285"><ele>654.0</ele><time>2026-04-16T14:14:10.959Z</time></trkpt><trkpt lat="44.19552297297715" lon="8.029750704908116"><ele>654.0</ele><time>2026-04-16T14:14:11.959Z</time></trkpt><trkpt lat="44.19561028144102" lon="8.029700401112478"><ele>654.0</ele><time>2026-04-16T14:14:12.959Z</time></trkpt><trkpt lat="44.19569498425151" lon="8.029652579335604"><ele>654.0</ele><time>2026-04-16T14:14:13.959Z</time></trkpt><trkpt lat="44.19577807189753" lon="8.02960785341719"><ele>654.0</ele><time>2026-04-16T14:14:14.959Z</time></trkpt><trkpt lat="44.19586648963199" lon="8.029559371547858"><ele>654.0</ele><time>2026-04-16T14:14:15.959Z</time></trkpt><trkpt lat="44.19596975539662" lon="8.029506934726772"><ele>649.8000000000001</ele><time>2026-04-16T14:14:16.959Z</time></trkpt><trkpt lat="44.196077318859466" lon="8.029442086650633"><ele>645.6</ele><time>2026-04-16T14:14:17.959Z</time></trkpt><trkpt lat="44.19617855601846" lon="8.029385988233981"><ele>641.4</ele><time>2026-04-16T14:14:18.959Z</time></trkpt><trkpt lat="44.196279259665715" lon="8.029328024197314"><ele>637.2</ele><time>2026-04-16T14:14:19.959Z</time></trkpt><trkpt lat="44.196383890065434" lon="8.0292802150274"><ele>633.0</ele><time>2026-04-16T14:14:20.959Z</time></trkpt><trkpt lat="44.19648632991656" lon="8.029222417660955"><ele>630.6</ele><time>2026-04-16T14:14:21.959Z</time></trkpt><trkpt lat="44.19658857436569" lon="8.029161591966988"><ele>628.1999999999999</ele><time>2026-04-16T14:14:22.959Z</time></trkpt><trkpt lat="44.19668616487064" lon="8.029097651478036"><ele>625.8</ele><time>2026-04-16T14:14:23.959Z</time></trkpt><trkpt lat="44.19679335638329" lon="8.029050849264875"><ele>623.4</ele><time>2026-04-16T14:14:24.959Z</time></trkpt><trkpt lat="44.19689344628754" lon="8.029001332232385"><ele>621.0</ele><time>2026-04-16T14:14:25.959Z</time></trkpt><trkpt lat="44.19698993626153" lon="8.028944286739286"><ele>620.6</ele><time>2026-04-16T14:14:26.959Z</time></trkpt><trkpt lat="44.19708779608959" lon="8.028878334937241"><ele>620.2</ele><time>2026-04-16T14:14:27.959Z</time></trkpt><trkpt lat="44.19717570934991" lon="8.028807378831491"><ele>619.8</ele><time>2026-04-16T14:14:28.959Z</time></trkpt><trkpt lat="44.197271376860215" lon="8.028735716957021"><ele>619.4</ele><time>2026-04-16T14:14:29.959Z</time></trkpt><trkpt lat="44.19735454132493" lon="8.028652550206829"><ele>619.0</ele><time>2026-04-16T14:14:30.959Z</time></trkpt><trkpt lat="44.19743140678286" lon="8.028567496094626"><ele>619.0</ele><time>2026-04-16T14:14:31.959Z</time></trkpt><trkpt lat="44.19749779137761" lon="8.0284852453206"><ele>619.0</ele><time>2026-04-16T14:14:32.959Z</time></trkpt><trkpt lat="44.19757198941812" lon="8.028399968121423"><ele>619.0</ele><time>2026-04-16T14:14:33.959Z</time></trkpt><trkpt lat="44.19763670218045" lon="8.028322065560975"><ele>619.0</ele><time>2026-04-16T14:14:34.959Z</time></trkpt><trkpt lat="44.19771728682652" lon="8.02824014984943"><ele>619.0</ele><time>2026-04-16T14:14:35.959Z</time></trkpt><trkpt lat="44.19780462807619" lon="8.02814121689407"><ele>622.0</ele><time>2026-04-16T14:14:36.959Z</time></trkpt><trkpt lat="44.19789642767397" lon="8.028038245968725"><ele>625.0</ele><time>2026-04-16T14:14:37.959Z</time></trkpt><trkpt lat="44.197984408350145" lon="8.027933036488779"><ele>628.0</ele><time>2026-04-16T14:14:38.959Z</time></trkpt><trkpt lat="44.19807478277416" lon="8.027822441767862"><ele>631.0</ele><time>2026-04-16T14:14:39.959Z</time></trkpt><trkpt lat="44.198174420339946" lon="8.027714320939527"><ele>624.25</ele><time>2026-04-16T14:14:40.959Z</time></trkpt><trkpt lat="44.198278741681705" lon="8.02760352784866"><ele>617.5</ele><time>2026-04-16T14:14:41.959Z</time></trkpt><trkpt lat="44.198386682713696" lon="8.027492410643518"><ele>610.75</ele><time>2026-04-16T14:14:42.959Z</time></trkpt><trkpt lat="44.19847882898517" lon="8.027391529808728"><ele>604.0</ele><time>2026-04-16T14:14:43.959Z</time></trkpt><trkpt lat="44.19855519783405" lon="8.027281150304052"><ele>604.0</ele><time>2026-04-16T14:14:44.959Z</time></trkpt><trkpt lat="44.19864119478647" lon="8.027184945314733"><ele>604.0</ele><time>2026-04-16T14:14:45.959Z</time></trkpt><trkpt lat="44.19873503337592" lon="8.027083433801687"><ele>604.0</ele><time>2026-04-16T14:14:46.959Z</time></trkpt><trkpt lat="44.19883002234031" lon="8.02697609877841"><ele>604.0</ele><time>2026-04-16T14:14:47.959Z</time></trkpt><trkpt lat="44.19892812462175" lon="8.026857353801129"><ele>603.75</ele><time>2026-04-16T14:14:48.959Z</time></trkpt><trkpt lat="44.19903004027956" lon="8.026731315230371"><ele>603.5</ele><time>2026-04-16T14:14:49.959Z</time></trkpt><trkpt lat="44.19912718307522" lon="8.02661817016173"><ele>603.25</ele><time>2026-04-16T14:14:50.959Z</time></trkpt><trkpt lat="44.19922115340459" lon="8.026510166151024"><ele>603.0</ele><time>2026-04-16T14:14:51.959Z</time></trkpt><trkpt lat="44.199307685444275" lon="8.02639899196154"><ele>601.5</ele><time>2026-04-16T14:14:52.959Z</time></trkpt><trkpt lat="44.199395516184794" lon="8.026279333418405"><ele>600.0</ele><time>2026-04-16T14:14:53.959Z</time></trkpt><trkpt lat="44.199483971090395" lon="8.026162444293046"><ele>598.5</ele><time>2026-04-16T14:14:54.959Z</time></trkpt><trkpt lat="44.19956841018865" lon="8.026033041477776"><ele>597.0</ele><time>2026-04-16T14:14:55.959Z</time></trkpt><trkpt lat="44.199659250924725" lon="8.025912410223697"><ele>597.0</ele><time>2026-04-16T14:14:56.959Z</time></trkpt><trkpt lat="44.19974646530317" lon="8.025790222310155"><ele>597.0</ele><time>2026-04-16T14:14:57.959Z</time></trkpt><trkpt lat="44.19983226461895" lon="8.025667569203875"><ele>597.0</ele><time>2026-04-16T14:14:58.959Z</time></trkpt><trkpt lat="44.19991682820886" lon="8.025539222637732"><ele>597.0</ele><time>2026-04-16T14:14:59.959Z</time></trkpt><trkpt lat="44.199998884331414" lon="8.025402154372648"><ele>597.0</ele><time>2026-04-16T14:15:00.959Z</time></trkpt><trkpt lat="44.20007730988419" lon="8.02527353787319"><ele>597.0</ele><time>2026-04-16T14:15:01.958Z</time></trkpt><trkpt lat="44.2001578213117" lon="8.025154529357648"><ele>597.0</ele><time>2026-04-16T14:15:02.958Z</time></trkpt><trkpt lat="44.20024255276935" lon="8.02502707878937"><ele>597.0</ele><time>2026-04-16T14:15:03.958Z</time></trkpt><trkpt lat="44.200331008394706" lon="8.024892793994047"><ele>596.75</ele><time>2026-04-16T14:15:04.958Z</time></trkpt><trkpt lat="44.20041770645671" lon="8.024762239840902"><ele>596.5</ele><time>2026-04-16T14:15:05.958Z</time></trkpt><trkpt lat="44.200505800149884" lon="8.024634582110863"><ele>596.25</ele><time>2026-04-16T14:15:06.958Z</time></trkpt><trkpt lat="44.20059193232465" lon="8.02450417624463"><ele>596.0</ele><time>2026-04-16T14:15:07.958Z</time></trkpt><trkpt lat="44.20067511241436" lon="8.024373013551317"><ele>596.0</ele><time>2026-04-16T14:15:08.958Z</time></trkpt><trkpt lat="44.20075540214884" lon="8.024252723226564"><ele>596.0</ele><time>2026-04-16T14:15:09.958Z</time></trkpt><trkpt lat="44.2008382864685" lon="8.024129360046075"><ele>596.0</ele><time>2026-04-16T14:15:10.958Z</time></trkpt><trkpt lat="44.200921924130704" lon="8.024005508517838"><ele>596.0</ele><time>2026-04-16T14:15:11.958Z</time></trkpt><trkpt lat="44.2010051792859" lon="8.02387954244695"><ele>594.75</ele><time>2026-04-16T14:15:12.958Z</time></trkpt><trkpt lat="44.201088783144854" lon="8.02375800928236"><ele>593.5</ele><time>2026-04-16T14:15:13.958Z</time></trkpt><trkpt lat="44.201162019075056" lon="8.023634970754168"><ele>592.25</ele><time>2026-04-16T14:15:14.957Z</time></trkpt><trkpt lat="44.20123715904402" lon="8.023521926438468"><ele>591.0</ele><time>2026-04-16T14:15:15.957Z</time></trkpt><trkpt lat="44.2013190311265" lon="8.023399045891217"><ele>590.75</ele><time>2026-04-16T14:15:16.957Z</time></trkpt><trkpt lat="44.20140598759554" lon="8.023281371192512"><ele>590.5</ele><time>2026-04-16T14:15:17.957Z</time></trkpt><trkpt lat="44.2014899226779" lon="8.023151935452645"><ele>590.25</ele><time>2026-04-16T14:15:18.957Z</time></trkpt><trkpt lat="44.20157022102624" lon="8.023029471740594"><ele>590.0</ele><time>2026-04-16T14:15:19.957Z</time></trkpt><trkpt lat="44.201648313918305" lon="8.022912879940607"><ele>590.0</ele><time>2026-04-16T14:15:20.957Z</time></trkpt><trkpt lat="44.20172894259124" lon="8.022777393025903"><ele>590.0</ele><time>2026-04-16T14:15:21.957Z</time></trkpt><trkpt lat="44.20180819888332" lon="8.022650613792084"><ele>590.0</ele><time>2026-04-16T14:15:22.957Z</time></trkpt><trkpt lat="44.2018960272822" lon="8.022521347823513"><ele>590.0</ele><time>2026-04-16T14:15:23.957Z</time></trkpt><trkpt lat="44.20198170564887" lon="8.022398321692627"><ele>589.6</ele><time>2026-04-16T14:15:24.957Z</time></trkpt><trkpt lat="44.20205929119565" lon="8.022278675063834"><ele>589.2</ele><time>2026-04-16T14:15:25.957Z</time></trkpt><trkpt lat="44.20213144982088" lon="8.022175059243802"><ele>588.8</ele><time>2026-04-16T14:15:26.957Z</time></trkpt><trkpt lat="44.202205478258016" lon="8.022080945238882"><ele>588.4</ele><time>2026-04-16T14:15:27.957Z</time></trkpt><trkpt lat="44.202289357588164" lon="8.022006617861436"><ele>588.0</ele><time>2026-04-16T14:15:28.957Z</time></trkpt><trkpt lat="44.20237628327132" lon="8.021950791748905"><ele>588.0</ele><time>2026-04-16T14:15:29.957Z</time></trkpt><trkpt lat="44.20248814793963" lon="8.021918136994454"><ele>588.0</ele><time>2026-04-16T14:15:30.957Z</time></trkpt><trkpt lat="44.20259700619438" lon="8.021907136041348"><ele>588.0</ele><time>2026-04-16T14:15:31.957Z</time></trkpt><trkpt lat="44.202699581685145" lon="8.021912508280483"><ele>588.0</ele><time>2026-04-16T14:15:32.957Z</time></trkpt><trkpt lat="44.20279484648118" lon="8.021914101747853"><ele>588.0</ele><time>2026-04-16T14:15:33.957Z</time></trkpt><trkpt lat="44.202888223191074" lon="8.021911659744214"><ele>588.0</ele><time>2026-04-16T14:15:34.957Z</time></trkpt><trkpt lat="44.20296739584611" lon="8.02191004142225"><ele>588.0</ele><time>2026-04-16T14:15:35.957Z</time></trkpt><trkpt lat="44.20303940415015" lon="8.021907455657914"><ele>588.0</ele><time>2026-04-16T14:15:36.957Z</time></trkpt><trkpt lat="44.20310573553921" lon="8.021903897857577"><ele>588.0</ele><time>2026-04-16T14:15:37.957Z</time></trkpt><trkpt lat="44.20317432938484" lon="8.02189821592338"><ele>588.0</ele><time>2026-04-16T14:15:38.957Z</time></trkpt><trkpt lat="44.20327108204678" lon="8.021894713976918"><ele>588.0</ele><time>2026-04-16T14:15:40.957Z</time></trkpt><trkpt lat="44.20337905210952" lon="8.021891832351178"><ele>587.8333333333334</ele><time>2026-04-16T14:15:42.957Z</time></trkpt><trkpt lat="44.20346373925608" lon="8.02189762568915"><ele>587.6666666666666</ele><time>2026-04-16T14:15:44.957Z</time></trkpt><trkpt lat="44.20356047934979" lon="8.021887199426937"><ele>587.5</ele><time>2026-04-16T14:15:46.957Z</time></trkpt><trkpt lat="44.20363934512308" lon="8.021876152860443"><ele>587.3333333333333</ele><time>2026-04-16T14:15:47.957Z</time></trkpt><trkpt lat="44.20370964404983" lon="8.021840645081168"><ele>587.1666666666666</ele><time>2026-04-16T14:15:48.957Z</time></trkpt><trkpt lat="44.203761900909214" lon="8.021766533823634"><ele>587.0</ele><time>2026-04-16T14:15:49.957Z</time></trkpt><trkpt lat="44.2037986660929" lon="8.02167071985399"><ele>586.8000000000001</ele><time>2026-04-16T14:15:50.957Z</time></trkpt><trkpt lat="44.20381412371003" lon="8.021569356926292"><ele>586.6</ele><time>2026-04-16T14:15:51.957Z</time></trkpt><trkpt lat="44.20383099771589" lon="8.021471638211418"><ele>586.4000000000001</ele><time>2026-04-16T14:15:52.957Z</time></trkpt><trkpt lat="44.20384540087278" lon="8.021343619604394"><ele>586.2</ele><time>2026-04-16T14:15:53.957Z</time></trkpt><trkpt lat="44.20385192663491" lon="8.02119578544665"><ele>586.0</ele><time>2026-04-16T14:15:54.957Z</time></trkpt><trkpt lat="44.203860724802205" lon="8.021028126100495"><ele>586.0</ele><time>2026-04-16T14:15:55.957Z</time></trkpt><trkpt lat="44.20387299961881" lon="8.020872291071436"><ele>586.0</ele><time>2026-04-16T14:15:56.957Z</time></trkpt><trkpt lat="44.20388704092093" lon="8.020735964402526"><ele>586.0</ele><time>2026-04-16T14:15:57.957Z</time></trkpt><trkpt lat="44.203905768797554" lon="8.020603888849314"><ele>586.0</ele><time>2026-04-16T14:15:58.957Z</time></trkpt><trkpt lat="44.20393356771162" lon="8.020500338629663"><ele>586.0</ele><time>2026-04-16T14:15:59.957Z</time></trkpt><trkpt lat="44.20393870843219" lon="8.020372709001078"><ele>585.25</ele><time>2026-04-16T14:16:00.957Z</time></trkpt><trkpt lat="44.203931462641314" lon="8.0201922318725"><ele>584.5</ele><time>2026-04-16T14:16:01.957Z</time></trkpt><trkpt lat="44.2039298476096" lon="8.020006002475657"><ele>583.75</ele><time>2026-04-16T14:16:02.957Z</time></trkpt><trkpt lat="44.20395355670354" lon="8.019793516380927"><ele>583.0</ele><time>2026-04-16T14:16:03.957Z</time></trkpt><trkpt lat="44.20398006837899" lon="8.019608132770289"><ele>582.8333333333334</ele><time>2026-04-16T14:16:04.957Z</time></trkpt><trkpt lat="44.204001538388816" lon="8.019448496886321"><ele>582.6666666666667</ele><time>2026-04-16T14:16:05.957Z</time></trkpt><trkpt lat="44.204008950269845" lon="8.019320283920877"><ele>582.5</ele><time>2026-04-16T14:16:06.957Z</time></trkpt><trkpt lat="44.2040174553975" lon="8.019223049658095"><ele>582.3333333333334</ele><time>2026-04-16T14:16:07.957Z</time></trkpt><trkpt lat="44.204028447073206" lon="8.019121316080026"><ele>582.1666666666666</ele><time>2026-04-16T14:16:08.957Z</time></trkpt><trkpt lat="44.20403540525448" lon="8.019016712738296"><ele>582.0</ele><time>2026-04-16T14:16:09.957Z</time></trkpt><trkpt lat="44.20403889294296" lon="8.018920409676038"><ele>582.3333333333334</ele><time>2026-04-16T14:16:10.957Z</time></trkpt><trkpt lat="44.20404500217209" lon="8.018817596684018"><ele>582.6666666666666</ele><time>2026-04-16T14:16:11.957Z</time></trkpt><trkpt lat="44.20405562096491" lon="8.018722858017835"><ele>583.0</ele><time>2026-04-16T14:16:12.957Z</time></trkpt><trkpt lat="44.20405641908152" lon="8.018570990104253"><ele>583.3333333333333</ele><time>2026-04-16T14:16:14.957Z</time></trkpt><trkpt lat="44.20401788627786" lon="8.018485582738277"><ele>583.6666666666666</ele><time>2026-04-16T14:16:16.957Z</time></trkpt><trkpt lat="44.2039639768896" lon="8.018437430344823"><ele>584.0</ele><time>2026-04-16T14:16:18.957Z</time></trkpt><trkpt lat="44.20391097050444" lon="8.018541651784897"><ele>584.0</ele><time>2026-04-16T14:31:18.955Z</time></trkpt><trkpt lat="44.20395629169587" lon="8.018605713390052"><ele>584.0</ele><time>2026-04-16T14:31:25.955Z</time></trkpt><trkpt lat="44.20401302192043" lon="8.018754150939488"><ele>584.0</ele><time>2026-04-16T14:31:28.955Z</time></trkpt><trkpt lat="44.20402480916439" lon="8.018910166882929"><ele>584.0</ele><time>2026-04-16T14:31:30.955Z</time></trkpt><trkpt lat="44.204011165753464" lon="8.019049079443958"><ele>584.0</ele><time>2026-04-16T14:31:32.955Z</time></trkpt><trkpt lat="44.20401243872225" lon="8.019175558433131"><ele>583.8</ele><time>2026-04-16T14:31:34.955Z</time></trkpt><trkpt lat="44.204014520326155" lon="8.019332182287844"><ele>583.5999999999999</ele><time>2026-04-16T14:31:36.955Z</time></trkpt><trkpt lat="44.20399931600981" lon="8.019492944813479"><ele>583.4</ele><time>2026-04-16T14:31:38.955Z</time></trkpt><trkpt lat="44.20399213733578" lon="8.019589063227963"><ele>583.1999999999999</ele><time>2026-04-16T14:31:39.955Z</time></trkpt><trkpt lat="44.20398610793266" lon="8.019700313665675"><ele>583.0</ele><time>2026-04-16T14:31:40.955Z</time></trkpt><trkpt lat="44.20398382352695" lon="8.019808514523273"><ele>583.0</ele><time>2026-04-16T14:31:41.955Z</time></trkpt><trkpt lat="44.203975639531365" lon="8.019921327131039"><ele>583.0</ele><time>2026-04-16T14:31:42.955Z</time></trkpt><trkpt lat="44.20396980343781" lon="8.020023539046825"><ele>583.0</ele><time>2026-04-16T14:31:43.955Z</time></trkpt></trkseg></trk></gpx>